Wetterdaten: Dienstag, 23.01.2018
Datum Zeit Temp. A. Feuchte A. Luftdruck Regen Wind Richtung Richtung Sonnenschein ET UV Solar Taupunkt Windchill Windböen
23.01.2018 00:00 3,9 °C 94 % 1018,6 hPa 0,0 mm 14,3 km/h (3 Bft) SW 232 ° 0 min 0,000 mm 0,0 UV-I 0 W/m² 3,0 °C 0,5 °C 20,9 km/h (4 Bft)
23.01.2018 00:01 3,8 °C 94 % 1018,7 hPa 0,0 mm 15,2 km/h (3 Bft) W 272 ° 0 min 0,000 mm 0,0 UV-I 0 W/m² 2,9 °C 0,2 °C 20,9 km/h (4 Bft)
23.01.2018 00:02 3,8 °C 94 % 1018,7 hPa 0,0 mm 17,6 km/h (3 Bft) W-NW 286 ° 0 min 0,000 mm 0,0 UV-I 0 W/m² 2,9 °C -0,1 °C 27,4 km/h (4 Bft)
23.01.2018 00:03 3,8 °C 94 % 1018,7 hPa 0,0 mm 14,4 km/h (3 Bft) W 265 ° 0 min 0,000 mm 0,0 UV-I 0 W/m² 2,9 °C 0,4 °C 20,9 km/h (4 Bft)
23.01.2018 00:04 3,8 °C 94 % 1018,7 hPa 0,2 mm 11,7 km/h (2 Bft) W 259 ° 0 min 0,000 mm 0,0 UV-I 0 W/m² 2,9 °C 0,9 °C 19,3 km/h (3 Bft)
23.01.2018 00:05 3,8 °C 94 % 1018,7 hPa 0,0 mm 12,7 km/h (3 Bft) W 273 ° 0 min 0,000 mm 0,0 UV-I 0 W/m² 2,9 °C 0,7 °C 20,9 km/h (4 Bft)
23.01.2018 00:06 3,8 °C 94 % 1018,8 hPa 0,0 mm 9,5 km/h (2 Bft) W 267 ° 0 min 0,000 mm 0,0 UV-I 0 W/m² 2,9 °C 1,3 °C 16,1 km/h (3 Bft)
23.01.2018 00:07 3,8 °C 94 % 1018,8 hPa 0,0 mm 18,4 km/h (3 Bft) W 270 ° 0 min 0,000 mm 0,0 UV-I 0 W/m² 2,9 °C -0,2 °C 27,4 km/h (4 Bft)
23.01.2018 00:08 3,8 °C 94 % 1018,9 hPa 0,0 mm 16,8 km/h (3 Bft) W-SW 258 ° 0 min 0,000 mm 0,0 UV-I 0 W/m² 2,9 °C -0,0 °C 22,5 km/h (4 Bft)
23.01.2018 00:09 3,8 °C 94 % 1018,9 hPa 0,0 mm 14,9 km/h (3 Bft) W 270 ° 0 min 0,000 mm 0,0 UV-I 0 W/m² 2,9 °C 0,3 °C 20,9 km/h (4 Bft)
23.01.2018 00:10 3,8 °C 94 % 1018,9 hPa 0,0 mm 14,4 km/h (3 Bft) W 274 ° 0 min 0,000 mm 0,0 UV-I 0 W/m² 2,9 °C 0,4 °C 22,5 km/h (4 Bft)
23.01.2018 00:11 3,8 °C 94 % 1019,0 hPa 0,0 mm 19,2 km/h (3 Bft) W 260 ° 0 min 0,000 mm 0,0 UV-I 0 W/m² 2,9 °C -0,3 °C 25,7 km/h (4 Bft)
23.01.2018 00:12 3,8 °C 94 % 1019,0 hPa 0,0 mm 16,3 km/h (3 Bft) W-NW 298 ° 0 min 0,000 mm 0,0 UV-I 0 W/m² 2,9 °C 0,1 °C 24,1 km/h (4 Bft)
23.01.2018 00:13 3,8 °C 94 % 1019,0 hPa 0,0 mm 7,7 km/h (2 Bft) W 275 ° 0 min 0,000 mm 0,0 UV-I 0 W/m² 2,9 °C 1,8 °C 11,3 km/h (2 Bft)
23.01.2018 00:14 3,8 °C 94 % 1019,1 hPa 0,0 mm 10,2 km/h (2 Bft) W 280 ° 0 min 0,000 mm 0,0 UV-I 0 W/m² 2,9 °C 1,2 °C 14,5 km/h (3 Bft)
23.01.2018 00:15 3,8 °C 94 % 1019,1 hPa 0,0 mm 9,7 km/h (2 Bft) W 263 ° 0 min 0,000 mm 0,0 UV-I 0 W/m² 2,9 °C 1,3 °C 14,5 km/h (3 Bft)
23.01.2018 00:16 3,8 °C 93 % 1019,2 hPa 0,0 mm 10,8 km/h (2 Bft) W-SW 252 ° 0 min 0,000 mm 0,0 UV-I 0 W/m² 2,8 °C 1,0 °C 14,5 km/h (3 Bft)
23.01.2018 00:17 3,7 °C 93 % 1019,2 hPa 0,0 mm 7,8 km/h (2 Bft) W-SW 244 ° 0 min 0,000 mm 0,0 UV-I 0 W/m² 2,7 °C 1,7 °C 11,3 km/h (2 Bft)
23.01.2018 00:18 3,7 °C 93 % 1019,2 hPa 0,0 mm 14,7 km/h (3 Bft) W-SW 247 ° 0 min 0,000 mm 0,0 UV-I 0 W/m² 2,7 °C 0,2 °C 20,9 km/h (4 Bft)
23.01.2018 00:19 3,7 °C 93 % 1019,3 hPa 0,0 mm 14,1 km/h (3 Bft) W-SW 241 ° 0 min 0,000 mm 0,0 UV-I 0 W/m² 2,7 °C 0,3 °C 19,3 km/h (3 Bft)
23.01.2018 00:20 3,7 °C 93 % 1019,2 hPa 0,0 mm 16,6 km/h (3 Bft) W 267 ° 0 min 0,000 mm 0,0 UV-I 0 W/m² 2,7 °C -0,1 °C 22,5 km/h (4 Bft)
23.01.2018 00:21 3,7 °C 93 % 1019,2 hPa 0,0 mm 14,6 km/h (3 Bft) W 269 ° 0 min 0,000 mm 0,0 UV-I 0 W/m² 2,7 °C 0,2 °C 20,9 km/h (4 Bft)
23.01.2018 00:22 3,7 °C 93 % 1019,2 hPa 0,0 mm 8,8 km/h (2 Bft) W 271 ° 0 min 0,000 mm 0,0 UV-I 0 W/m² 2,7 °C 1,4 °C 19,3 km/h (3 Bft)
23.01.2018 00:23 3,7 °C 93 % 1019,2 hPa 0,0 mm 9,8 km/h (2 Bft) SW 236 ° 0 min 0,000 mm 0,0 UV-I 0 W/m² 2,7 °C 1,2 °C 14,5 km/h (3 Bft)
23.01.2018 00:24 3,7 °C 93 % 1019,3 hPa 0,0 mm 10,5 km/h (2 Bft) W-NW 288 ° 0 min 0,000 mm 0,0 UV-I 0 W/m² 2,7 °C 1,0 °C 17,7 km/h (3 Bft)
23.01.2018 00:25 3,7 °C 93 % 1019,2 hPa 0,0 mm 4,1 km/h (1 Bft) SW 236 ° 0 min 0,000 mm 0,0 UV-I 0 W/m² 2,7 °C 3,7 °C 12,9 km/h (3 Bft)
23.01.2018 00:26 3,7 °C 93 % 1019,2 hPa 0,0 mm 10,1 km/h (2 Bft) W-SW 258 ° 0 min 0,000 mm 0,0 UV-I 0 W/m² 2,7 °C 1,1 °C 17,7 km/h (3 Bft)
23.01.2018 00:27 3,7 °C 93 % 1019,2 hPa 0,0 mm 13,0 km/h (3 Bft) W-SW 241 ° 0 min 0,000 mm 0,0 UV-I 0 W/m² 2,7 °C 0,5 °C 17,7 km/h (3 Bft)
23.01.2018 00:28 3,7 °C 93 % 1019,2 hPa 0,0 mm 16,0 km/h (3 Bft) W 270 ° 0 min 0,000 mm 0,0 UV-I 0 W/m² 2,7 °C -0,0 °C 22,5 km/h (4 Bft)
23.01.2018 00:29 3,7 °C 93 % 1019,2 hPa 0,0 mm 9,4 km/h (2 Bft) W-SW 248 ° 0 min 0,000 mm 0,0 UV-I 0 W/m² 2,7 °C 1,2 °C 16,1 km/h (3 Bft)
23.01.2018 00:30 3,7 °C 94 % 1019,2 hPa 0,0 mm 11,9 km/h (2 Bft) W-NW 282 ° 0 min 0,000 mm 0,0 UV-I 0 W/m² 2,8 °C 0,7 °C 14,5 km/h (3 Bft)
23.01.2018 00:31 3,7 °C 93 % 1019,2 hPa 0,0 mm 8,3 km/h (2 Bft) SW 225 ° 0 min 0,000 mm 0,0 UV-I 0 W/m² 2,7 °C 1,5 °C 11,3 km/h (2 Bft)
23.01.2018 00:32 3,7 °C 93 % 1019,2 hPa 0,0 mm 9,2 km/h (2 Bft) W-SW 257 ° 0 min 0,000 mm 0,0 UV-I 0 W/m² 2,7 °C 1,3 °C 14,5 km/h (3 Bft)
23.01.2018 00:33 3,7 °C 93 % 1019,3 hPa 0,0 mm 4,3 km/h (1 Bft) W-SW 242 ° 0 min 0,000 mm 0,0 UV-I 0 W/m² 2,7 °C 3,7 °C 9,7 km/h (2 Bft)
23.01.2018 00:34 3,7 °C 93 % 1019,3 hPa 0,0 mm 5,6 km/h (1 Bft) W 273 ° 0 min 0,000 mm 0,0 UV-I 0 W/m² 2,7 °C 2,4 °C 11,3 km/h (2 Bft)
23.01.2018 00:35 3,7 °C 93 % 1019,3 hPa 0,0 mm 9,1 km/h (2 Bft) W-NW 290 ° 0 min 0,000 mm 0,0 UV-I 0 W/m² 2,7 °C 1,3 °C 12,9 km/h (3 Bft)
23.01.2018 00:36 3,7 °C 93 % 1019,4 hPa 0,0 mm 14,8 km/h (3 Bft) W 263 ° 0 min 0,000 mm 0,0 UV-I 0 W/m² 2,7 °C 0,2 °C 20,9 km/h (4 Bft)
23.01.2018 00:37 3,7 °C 93 % 1019,4 hPa 0,0 mm 13,7 km/h (3 Bft) W 269 ° 0 min 0,000 mm 0,0 UV-I 0 W/m² 2,7 °C 0,4 °C 20,9 km/h (4 Bft)
23.01.2018 00:38 3,7 °C 93 % 1019,4 hPa 0,0 mm 14,5 km/h (3 Bft) W-SW 254 ° 0 min 0,000 mm 0,0 UV-I 0 W/m² 2,7 °C 0,2 °C 20,9 km/h (4 Bft)
23.01.2018 00:39 3,7 °C 93 % 1019,2 hPa 0,0 mm 7,0 km/h (2 Bft) W-SW 252 ° 0 min 0,000 mm 0,0 UV-I 0 W/m² 2,7 °C 1,9 °C 16,1 km/h (3 Bft)
23.01.2018 00:40 3,7 °C 93 % 1019,4 hPa 0,0 mm 15,2 km/h (3 Bft) S 180 ° 0 min 0,000 mm 0,0 UV-I 0 W/m² 2,7 °C 0,1 °C 20,9 km/h (4 Bft)
23.01.2018 00:41 3,7 °C 93 % 1019,3 hPa 0,0 mm 11,6 km/h (2 Bft) W-SW 255 ° 0 min 0,000 mm 0,0 UV-I 0 W/m² 2,7 °C 0,8 °C 17,7 km/h (3 Bft)
23.01.2018 00:42 3,7 °C 93 % 1019,3 hPa 0,0 mm 11,8 km/h (2 Bft) W 271 ° 0 min 0,000 mm 0,0 UV-I 0 W/m² 2,7 °C 0,7 °C 14,5 km/h (3 Bft)
23.01.2018 00:43 3,7 °C 93 % 1019,3 hPa 0,0 mm 10,9 km/h (2 Bft) W 265 ° 0 min 0,000 mm 0,0 UV-I 0 W/m² 2,7 °C 0,9 °C 16,1 km/h (3 Bft)
23.01.2018 00:44 3,7 °C 93 % 1019,3 hPa 0,0 mm 13,3 km/h (3 Bft) W 262 ° 0 min 0,000 mm 0,0 UV-I 0 W/m² 2,7 °C 0,4 °C 19,3 km/h (3 Bft)
23.01.2018 00:45 3,7 °C 93 % 1019,4 hPa 0,0 mm 7,8 km/h (2 Bft) W 280 ° 0 min 0,000 mm 0,0 UV-I 0 W/m² 2,7 °C 1,7 °C 14,5 km/h (3 Bft)
23.01.2018 00:46 3,7 °C 93 % 1019,3 hPa 0,0 mm 9,3 km/h (2 Bft) W 263 ° 0 min 0,000 mm 0,0 UV-I 0 W/m² 2,7 °C 1,3 °C 12,9 km/h (3 Bft)
23.01.2018 00:47 3,7 °C 93 % 1019,3 hPa 0,0 mm 8,2 km/h (2 Bft) W 263 ° 0 min 0,000 mm 0,0 UV-I 0 W/m² 2,7 °C 1,6 °C 11,3 km/h (2 Bft)
23.01.2018 00:48 3,6 °C 93 % 1019,3 hPa 0,0 mm 7,8 km/h (2 Bft) W-SW 256 ° 0 min 0,000 mm 0,0 UV-I 0 W/m² 2,6 °C 1,5 °C 14,5 km/h (3 Bft)
23.01.2018 00:49 3,6 °C 93 % 1019,3 hPa 0,0 mm 7,6 km/h (2 Bft) SW 233 ° 0 min 0,000 mm 0,0 UV-I 0 W/m² 2,6 °C 1,6 °C 11,3 km/h (2 Bft)
23.01.2018 00:50 3,6 °C 93 % 1019,3 hPa 0,0 mm 9,4 km/h (2 Bft) W 271 ° 0 min 0,000 mm 0,0 UV-I 0 W/m² 2,6 °C 1,1 °C 14,5 km/h (3 Bft)
23.01.2018 00:51 3,6 °C 93 % 1019,4 hPa 0,0 mm 5,8 km/h (2 Bft) W 277 ° 0 min 0,000 mm 0,0 UV-I 0 W/m² 2,6 °C 2,2 °C 11,3 km/h (2 Bft)
23.01.2018 00:52 3,6 °C 93 % 1019,4 hPa 0,0 mm 12,3 km/h (3 Bft) W 267 ° 0 min 0,000 mm 0,0 UV-I 0 W/m² 2,6 °C 0,5 °C 17,7 km/h (3 Bft)
23.01.2018 00:53 3,6 °C 93 % 1019,3 hPa 0,0 mm 7,1 km/h (2 Bft) W-SW 253 ° 0 min 0,000 mm 0,0 UV-I 0 W/m² 2,6 °C 1,8 °C 11,3 km/h (2 Bft)
23.01.2018 00:54 3,6 °C 93 % 1019,3 hPa 0,0 mm 11,9 km/h (2 Bft) W-NW 292 ° 0 min 0,000 mm 0,0 UV-I 0 W/m² 2,6 °C 0,6 °C 16,1 km/h (3 Bft)
23.01.2018 00:55 3,6 °C 93 % 1019,3 hPa 0,0 mm 9,3 km/h (2 Bft) W 260 ° 0 min 0,000 mm 0,0 UV-I 0 W/m² 2,6 °C 1,2 °C 12,9 km/h (3 Bft)
23.01.2018 00:56 3,6 °C 93 % 1019,4 hPa 0,0 mm 10,4 km/h (2 Bft) W-NW 289 ° 0 min 0,000 mm 0,0 UV-I 0 W/m² 2,6 °C 0,9 °C 16,1 km/h (3 Bft)
23.01.2018 00:57 3,6 °C 93 % 1019,4 hPa 0,0 mm 6,5 km/h (2 Bft) NW 313 ° 0 min 0,000 mm 0,0 UV-I 0 W/m² 2,6 °C 1,9 °C 11,3 km/h (2 Bft)
23.01.2018 00:58 3,6 °C 93 % 1019,5 hPa 0,0 mm 11,9 km/h (2 Bft) NW 323 ° 0 min 0,000 mm 0,0 UV-I 0 W/m² 2,6 °C 0,6 °C 17,7 km/h (3 Bft)
23.01.2018 00:59 3,6 °C 93 % 1019,5 hPa 0,0 mm 8,4 km/h (2 Bft) NW 312 ° 0 min 0,000 mm 0,0 UV-I 0 W/m² 2,6 °C 1,4 °C 14,5 km/h (3 Bft)
23.01.2018 01:00 3,6 °C 93 % 1019,6 hPa 0,0 mm 11,4 km/h (2 Bft) W-NW 294 ° 0 min 0,000 mm 0,0 UV-I 0 W/m² 2,6 °C 0,7 °C 16,1 km/h (3 Bft)
23.01.2018 01:01 3,5 °C 93 % 1019,7 hPa 0,0 mm 12,4 km/h (3 Bft) W-NW 284 ° 0 min 0,000 mm 0,0 UV-I 0 W/m² 2,5 °C 0,4 °C 19,3 km/h (3 Bft)
23.01.2018 01:02 3,4 °C 92 % 1019,7 hPa 0,0 mm 11,0 km/h (2 Bft) W 279 ° 0 min 0,000 mm 0,0 UV-I 0 W/m² 2,2 °C 0,5 °C 16,1 km/h (3 Bft)
23.01.2018 01:03 3,3 °C 92 % 1019,7 hPa 0,0 mm 7,6 km/h (2 Bft) NW 324 ° 0 min 0,000 mm 0,0 UV-I 0 W/m² 2,1 °C 1,3 °C 11,3 km/h (2 Bft)
23.01.2018 01:04 3,3 °C 92 % 1019,8 hPa 0,0 mm 6,6 km/h (2 Bft) NW 315 ° 0 min 0,000 mm 0,0 UV-I 0 W/m² 2,1 °C 1,6 °C 11,3 km/h (2 Bft)
23.01.2018 01:05 3,2 °C 92 % 1019,8 hPa 0,0 mm 7,1 km/h (2 Bft) W 275 ° 0 min 0,000 mm 0,0 UV-I 0 W/m² 2,0 °C 1,3 °C 12,9 km/h (3 Bft)
23.01.2018 01:06 3,1 °C 92 % 1019,9 hPa 0,0 mm 13,0 km/h (3 Bft) W-NW 286 ° 0 min 0,000 mm 0,0 UV-I 0 W/m² 1,9 °C -0,2 °C 17,7 km/h (3 Bft)
23.01.2018 01:07 3,1 °C 92 % 1019,9 hPa 0,0 mm 9,3 km/h (2 Bft) W-NW 286 ° 0 min 0,000 mm 0,0 UV-I 0 W/m² 1,9 °C 0,6 °C 16,1 km/h (3 Bft)
23.01.2018 01:08 3,0 °C 92 % 1020,0 hPa 0,0 mm 12,0 km/h (2 Bft) NW 315 ° 0 min 0,000 mm 0,0 UV-I 0 W/m² 1,8 °C -0,2 °C 17,7 km/h (3 Bft)
23.01.2018 01:09 2,9 °C 92 % 1020,0 hPa 0,0 mm 9,6 km/h (2 Bft) W 267 ° 0 min 0,000 mm 0,0 UV-I 0 W/m² 1,7 °C 0,2 °C 14,5 km/h (3 Bft)
23.01.2018 01:10 2,9 °C 92 % 1020,0 hPa 0,0 mm 3,2 km/h (1 Bft) W 275 ° 0 min 0,000 mm 0,0 UV-I 0 W/m² 1,7 °C 2,9 °C 9,7 km/h (2 Bft)
23.01.2018 01:11 2,9 °C 92 % 1019,9 hPa 0,0 mm 4,3 km/h (1 Bft) W-NW 299 ° 0 min 0,000 mm 0,0 UV-I 0 W/m² 1,7 °C 2,9 °C 11,3 km/h (2 Bft)
23.01.2018 01:12 2,9 °C 92 % 1020,0 hPa 0,2 mm 7,5 km/h (2 Bft) W 281 ° 0 min 0,000 mm 0,0 UV-I 0 W/m² 1,7 °C 0,8 °C 14,5 km/h (3 Bft)
23.01.2018 01:13 2,8 °C 92 % 1019,9 hPa 0,0 mm 8,2 km/h (2 Bft) NW 304 ° 0 min 0,000 mm 0,0 UV-I 0 W/m² 1,6 °C 0,5 °C 14,5 km/h (3 Bft)
23.01.2018 01:14 2,8 °C 92 % 1019,9 hPa 0,0 mm 2,8 km/h (1 Bft) NW 304 ° 0 min 0,000 mm 0,0 UV-I 0 W/m² 1,6 °C 2,8 °C 4,8 km/h (1 Bft)
23.01.2018 01:15 2,7 °C 92 % 1019,9 hPa 0,0 mm 3,5 km/h (1 Bft) W-NW 284 ° 0 min 0,000 mm 0,0 UV-I 0 W/m² 1,5 °C 2,7 °C 9,7 km/h (2 Bft)
23.01.2018 01:16 2,7 °C 92 % 1019,8 hPa 0,0 mm 2,1 km/h (1 Bft) W-NW 288 ° 0 min 0,000 mm 0,0 UV-I 0 W/m² 1,5 °C 2,7 °C 3,2 km/h (1 Bft)
23.01.2018 01:17 2,7 °C 92 % 1019,8 hPa 0,0 mm 3,8 km/h (1 Bft) W-NW 302 ° 0 min 0,000 mm 0,0 UV-I 0 W/m² 1,5 °C 2,7 °C 8,0 km/h (2 Bft)
23.01.2018 01:18 2,7 °C 92 % 1019,8 hPa 0,0 mm 1,4 km/h (1 Bft) W-NW 302 ° 0 min 0,000 mm 0,0 UV-I 0 W/m² 1,5 °C 2,7 °C 3,2 km/h (1 Bft)
23.01.2018 01:19 2,7 °C 92 % 1019,7 hPa 0,0 mm 0,0 km/h (0 Bft) W-NW 302 ° 0 min 0,000 mm 0,0 UV-I 0 W/m² 1,5 °C 2,7 °C 0,0 km/h (0 Bft)
23.01.2018 01:20 2,7 °C 92 % 1019,7 hPa 0,0 mm 0,0 km/h (0 Bft) W-NW 302 ° 0 min 0,000 mm 0,0 UV-I 0 W/m² 1,5 °C 2,7 °C 0,0 km/h (0 Bft)
23.01.2018 01:21 2,7 °C 92 % 1019,7 hPa 0,0 mm 0,0 km/h (0 Bft) W-NW 302 ° 0 min 0,000 mm 0,0 UV-I 0 W/m² 1,5 °C 2,7 °C 0,0 km/h (0 Bft)
23.01.2018 01:22 2,7 °C 92 % 1019,6 hPa 0,0 mm 0,0 km/h (0 Bft) W-NW 302 ° 0 min 0,000 mm 0,0 UV-I 0 W/m² 1,5 °C 2,7 °C 0,0 km/h (0 Bft)
23.01.2018 01:23 2,6 °C 92 % 1019,7 hPa 0,0 mm 0,0 km/h (0 Bft) W-NW 302 ° 0 min 0,000 mm 0,0 UV-I 0 W/m² 1,4 °C 2,6 °C 0,0 km/h (0 Bft)
23.01.2018 01:24 2,6 °C 92 % 1019,6 hPa 0,0 mm 0,0 km/h (0 Bft) W-NW 302 ° 0 min 0,000 mm 0,0 UV-I 0 W/m² 1,4 °C 2,6 °C 0,0 km/h (0 Bft)
23.01.2018 01:25 2,6 °C 92 % 1019,6 hPa 0,0 mm 0,0 km/h (0 Bft) W-NW 302 ° 0 min 0,000 mm 0,0 UV-I 0 W/m² 1,4 °C 2,6 °C 0,0 km/h (0 Bft)
23.01.2018 01:26 2,6 °C 92 % 1019,6 hPa 0,0 mm 0,0 km/h (0 Bft) W-NW 302 ° 0 min 0,000 mm 0,0 UV-I 0 W/m² 1,4 °C 2,6 °C 0,0 km/h (0 Bft)
23.01.2018 01:27 2,6 °C 92 % 1019,6 hPa 0,0 mm 0,0 km/h (0 Bft) W-NW 302 ° 0 min 0,000 mm 0,0 UV-I 0 W/m² 1,4 °C 2,6 °C 0,0 km/h (0 Bft)
23.01.2018 01:28 2,6 °C 92 % 1019,6 hPa 0,0 mm 0,0 km/h (0 Bft) W-NW 302 ° 0 min 0,000 mm 0,0 UV-I 0 W/m² 1,4 °C 2,6 °C 0,0 km/h (0 Bft)
23.01.2018 01:29 2,6 °C 92 % 1019,6 hPa 0,0 mm 0,0 km/h (0 Bft) W-NW 302 ° 0 min 0,000 mm 0,0 UV-I 0 W/m² 1,4 °C 2,6 °C 0,0 km/h (0 Bft)
23.01.2018 01:30 2,6 °C 92 % 1019,6 hPa 0,0 mm 0,0 km/h (0 Bft) W-NW 302 ° 0 min 0,000 mm 0,0 UV-I 0 W/m² 1,4 °C 2,6 °C 0,0 km/h (0 Bft)
23.01.2018 01:31 2,5 °C 92 % 1019,7 hPa 0,0 mm 0,0 km/h (0 Bft) W-NW 302 ° 0 min 0,000 mm 0,0 UV-I 0 W/m² 1,3 °C 2,5 °C 0,0 km/h (0 Bft)
23.01.2018 01:32 2,5 °C 92 % 1019,7 hPa 0,0 mm 0,0 km/h (0 Bft) W-NW 302 ° 0 min 0,000 mm 0,0 UV-I 0 W/m² 1,3 °C 2,5 °C 0,0 km/h (0 Bft)
23.01.2018 01:33 2,5 °C 92 % 1019,7 hPa 0,0 mm 0,0 km/h (0 Bft) W-NW 302 ° 0 min 0,000 mm 0,0 UV-I 0 W/m² 1,3 °C 2,5 °C 0,0 km/h (0 Bft)
23.01.2018 01:34 2,5 °C 92 % 1019,6 hPa 0,0 mm 0,0 km/h (0 Bft) W-NW 302 ° 0 min 0,000 mm 0,0 UV-I 0 W/m² 1,3 °C 2,5 °C 0,0 km/h (0 Bft)
23.01.2018 01:35 2,4 °C 92 % 1019,7 hPa 0,0 mm 0,0 km/h (0 Bft) W-NW 302 ° 0 min 0,000 mm 0,0 UV-I 0 W/m² 1,2 °C 2,4 °C 0,0 km/h (0 Bft)
23.01.2018 01:36 2,4 °C 92 % 1020,0 hPa 0,0 mm 1,3 km/h (1 Bft) W-NW 302 ° 0 min 0,000 mm 0,0 UV-I 0 W/m² 1,2 °C 2,4 °C 3,2 km/h (1 Bft)
23.01.2018 01:37 2,4 °C 92 % 1020,0 hPa 0,0 mm 4,5 km/h (1 Bft) NW 307 ° 0 min 0,000 mm 0,0 UV-I 0 W/m² 1,2 °C 2,4 °C 6,4 km/h (2 Bft)
23.01.2018 01:38 2,4 °C 92 % 1020,3 hPa 0,0 mm 5,5 km/h (1 Bft) NW 315 ° 0 min 0,000 mm 0,0 UV-I 0 W/m² 1,2 °C 0,9 °C 8,0 km/h (2 Bft)
23.01.2018 01:39 2,4 °C 92 % 1020,3 hPa 0,0 mm 6,2 km/h (2 Bft) NW 325 ° 0 min 0,000 mm 0,0 UV-I 0 W/m² 1,2 °C 0,7 °C 9,7 km/h (2 Bft)
23.01.2018 01:40 2,4 °C 92 % 1020,4 hPa 0,0 mm 6,3 km/h (2 Bft) NW 323 ° 0 min 0,000 mm 0,0 UV-I 0 W/m² 1,2 °C 0,6 °C 8,0 km/h (2 Bft)
23.01.2018 01:41 2,4 °C 92 % 1020,4 hPa 0,0 mm 7,3 km/h (2 Bft) NW 326 ° 0 min 0,000 mm 0,0 UV-I 0 W/m² 1,2 °C 0,3 °C 16,1 km/h (3 Bft)
23.01.2018 01:42 2,4 °C 92 % 1020,4 hPa 0,0 mm 7,3 km/h (2 Bft) W-NW 294 ° 0 min 0,000 mm 0,0 UV-I 0 W/m² 1,2 °C 0,3 °C 12,9 km/h (3 Bft)
23.01.2018 01:43 2,4 °C 92 % 1020,4 hPa 0,0 mm 1,4 km/h (1 Bft) W 267 ° 0 min 0,000 mm 0,0 UV-I 0 W/m² 1,2 °C 2,4 °C 6,4 km/h (2 Bft)
23.01.2018 01:44 2,4 °C 92 % 1020,5 hPa 0,0 mm 4,9 km/h (1 Bft) NW 321 ° 0 min 0,000 mm 0,0 UV-I 0 W/m² 1,2 °C 1,2 °C 8,0 km/h (2 Bft)
23.01.2018 01:45 2,3 °C 92 % 1020,5 hPa 0,0 mm 4,2 km/h (1 Bft) W-NW 294 ° 0 min 0,000 mm 0,0 UV-I 0 W/m² 1,1 °C 2,3 °C 8,0 km/h (2 Bft)
23.01.2018 01:46 2,3 °C 93 % 1020,3 hPa 0,0 mm 2,1 km/h (1 Bft) W 273 ° 0 min 0,000 mm 0,0 UV-I 0 W/m² 1,3 °C 2,3 °C 4,8 km/h (1 Bft)
23.01.2018 01:47 2,3 °C 93 % 1020,3 hPa 0,0 mm 6,8 km/h (2 Bft) W 279 ° 0 min 0,000 mm 0,0 UV-I 0 W/m² 1,3 °C 0,3 °C 9,7 km/h (2 Bft)
23.01.2018 01:48 2,4 °C 93 % 1020,3 hPa 0,0 mm 4,7 km/h (1 Bft) W-NW 290 ° 0 min 0,000 mm 0,0 UV-I 0 W/m² 1,4 °C 1,3 °C 8,0 km/h (2 Bft)
23.01.2018 01:49 2,3 °C 93 % 1020,2 hPa 0,0 mm 3,6 km/h (1 Bft) W 269 ° 0 min 0,000 mm 0,0 UV-I 0 W/m² 1,3 °C 2,3 °C 4,8 km/h (1 Bft)
23.01.2018 01:50 2,3 °C 93 % 1020,3 hPa 0,0 mm 3,8 km/h (1 Bft) W 279 ° 0 min 0,000 mm 0,0 UV-I 0 W/m² 1,3 °C 2,3 °C 4,8 km/h (1 Bft)
23.01.2018 01:51 2,3 °C 93 % 1020,3 hPa 0,0 mm 1,0 km/h (0 Bft) W 279 ° 0 min 0,000 mm 0,0 UV-I 0 W/m² 1,3 °C 2,3 °C 4,8 km/h (1 Bft)
23.01.2018 01:52 2,4 °C 93 % 1020,4 hPa 0,0 mm 3,2 km/h (1 Bft) W-NW 295 ° 0 min 0,000 mm 0,0 UV-I 0 W/m² 1,4 °C 2,4 °C 4,8 km/h (1 Bft)
23.01.2018 01:53 2,3 °C 93 % 1020,4 hPa 0,0 mm 6,6 km/h (2 Bft) W-NW 295 ° 0 min 0,000 mm 0,0 UV-I 0 W/m² 1,3 °C 0,4 °C 11,3 km/h (2 Bft)
23.01.2018 01:54 2,4 °C 93 % 1020,4 hPa 0,0 mm 2,7 km/h (1 Bft) NW 309 ° 0 min 0,000 mm 0,0 UV-I 0 W/m² 1,4 °C 2,4 °C 4,8 km/h (1 Bft)
23.01.2018 01:55 2,3 °C 93 % 1020,4 hPa 0,0 mm 4,3 km/h (1 Bft) NW 306 ° 0 min 0,000 mm 0,0 UV-I 0 W/m² 1,3 °C 2,3 °C 6,4 km/h (2 Bft)
23.01.2018 01:56 2,4 °C 93 % 1020,4 hPa 0,0 mm 5,0 km/h (1 Bft) W-NW 296 ° 0 min 0,000 mm 0,0 UV-I 0 W/m² 1,4 °C 1,1 °C 8,0 km/h (2 Bft)
23.01.2018 01:57 2,4 °C 93 % 1020,3 hPa 0,2 mm 3,7 km/h (1 Bft) NW 312 ° 0 min 0,000 mm 0,0 UV-I 0 W/m² 1,4 °C 2,4 °C 6,4 km/h (2 Bft)
23.01.2018 01:58 2,3 °C 93 % 1020,3 hPa 0,0 mm 2,8 km/h (1 Bft) W-NW 292 ° 0 min 0,000 mm 0,0 UV-I 0 W/m² 1,3 °C 2,3 °C 4,8 km/h (1 Bft)
23.01.2018 01:59 2,3 °C 93 % 1020,4 hPa 0,0 mm 3,2 km/h (1 Bft) NW 304 ° 0 min 0,000 mm 0,0 UV-I 0 W/m² 1,3 °C 2,3 °C 6,4 km/h (2 Bft)
23.01.2018 02:00 2,3 °C 93 % 1020,4 hPa 0,0 mm 0,5 km/h (0 Bft) NW 304 ° 0 min 0,000 mm 0,0 UV-I 0 W/m² 1,3 °C 2,3 °C 3,2 km/h (1 Bft)
23.01.2018 02:01 2,4 °C 93 % 1020,3 hPa 0,0 mm 2,0 km/h (1 Bft) W-NW 301 ° 0 min 0,000 mm 0,0 UV-I 0 W/m² 1,4 °C 2,4 °C 3,2 km/h (1 Bft)
23.01.2018 02:02 2,3 °C 93 % 1020,3 hPa 0,0 mm 2,4 km/h (1 Bft) NW 307 ° 0 min 0,000 mm 0,0 UV-I 0 W/m² 1,3 °C 2,3 °C 6,4 km/h (2 Bft)
23.01.2018 02:03 2,3 °C 93 % 1020,1 hPa 0,2 mm 1,5 km/h (1 Bft) NW 307 ° 0 min 0,000 mm 0,0 UV-I 0 W/m² 1,3 °C 2,3 °C 6,4 km/h (2 Bft)
23.01.2018 02:04 2,3 °C 93 % 1020,1 hPa 0,0 mm 0,0 km/h (0 Bft) NW 307 ° 0 min 0,000 mm 0,0 UV-I 0 W/m² 1,3 °C 2,3 °C 0,0 km/h (0 Bft)
23.01.2018 02:05 2,3 °C 93 % 1020,1 hPa 0,0 mm 0,2 km/h (0 Bft) NW 307 ° 0 min 0,000 mm 0,0 UV-I 0 W/m² 1,3 °C 2,3 °C 1,6 km/h (1 Bft)
23.01.2018 02:06 2,3 °C 93 % 1020,0 hPa 0,0 mm 0,3 km/h (0 Bft) NW 307 ° 0 min 0,000 mm 0,0 UV-I 0 W/m² 1,3 °C 2,3 °C 1,6 km/h (1 Bft)
23.01.2018 02:07 2,3 °C 93 % 1020,1 hPa 0,0 mm 0,0 km/h (0 Bft) NW 307 ° 0 min 0,000 mm 0,0 UV-I 0 W/m² 1,3 °C 2,3 °C 0,0 km/h (0 Bft)
23.01.2018 02:08 2,3 °C 93 % 1020,1 hPa 0,2 mm 3,2 km/h (1 Bft) NW 309 ° 0 min 0,000 mm 0,0 UV-I 0 W/m² 1,3 °C 2,3 °C 6,4 km/h (2 Bft)
23.01.2018 02:09 2,3 °C 93 % 1020,1 hPa 0,0 mm 3,1 km/h (1 Bft) W-NW 293 ° 0 min 0,000 mm 0,0 UV-I 0 W/m² 1,3 °C 2,3 °C 4,8 km/h (1 Bft)
23.01.2018 02:10 2,3 °C 93 % 1020,0 hPa 0,0 mm 2,1 km/h (1 Bft) W-NW 293 ° 0 min 0,000 mm 0,0 UV-I 0 W/m² 1,3 °C 2,3 °C 3,2 km/h (1 Bft)
23.01.2018 02:11 2,3 °C 93 % 1020,0 hPa 0,0 mm 1,4 km/h (1 Bft) W-NW 293 ° 0 min 0,000 mm 0,0 UV-I 0 W/m² 1,3 °C 2,3 °C 3,2 km/h (1 Bft)
23.01.2018 02:12 2,3 °C 93 % 1020,0 hPa 0,0 mm 0,7 km/h (0 Bft) W-NW 293 ° 0 min 0,000 mm 0,0 UV-I 0 W/m² 1,3 °C 2,3 °C 1,6 km/h (1 Bft)
23.01.2018 02:13 2,3 °C 93 % 1020,0 hPa 0,0 mm 1,3 km/h (1 Bft) W-SW 252 ° 0 min 0,000 mm 0,0 UV-I 0 W/m² 1,3 °C 2,3 °C 3,2 km/h (1 Bft)
23.01.2018 02:14 2,3 °C 93 % 1020,0 hPa 0,0 mm 0,8 km/h (0 Bft) W-SW 252 ° 0 min 0,000 mm 0,0 UV-I 0 W/m² 1,3 °C 2,3 °C 3,2 km/h (1 Bft)
23.01.2018 02:15 2,3 °C 93 % 1020,1 hPa 0,0 mm 0,0 km/h (0 Bft) W-SW 252 ° 0 min 0,000 mm 0,0 UV-I 0 W/m² 1,3 °C 2,3 °C 0,0 km/h (0 Bft)
23.01.2018 02:16 2,3 °C 93 % 1020,3 hPa 0,2 mm 0,2 km/h (0 Bft) W-SW 252 ° 0 min 0,000 mm 0,0 UV-I 0 W/m² 1,3 °C 2,3 °C 1,6 km/h (1 Bft)
23.01.2018 02:17 2,3 °C 93 % 1020,3 hPa 0,0 mm 0,1 km/h (0 Bft) W-SW 252 ° 0 min 0,000 mm 0,0 UV-I 0 W/m² 1,3 °C 2,3 °C 1,6 km/h (1 Bft)
23.01.2018 02:18 2,3 °C 93 % 1020,3 hPa 0,0 mm 1,7 km/h (1 Bft) W-SW 252 ° 0 min 0,000 mm 0,0 UV-I 0 W/m² 1,3 °C 2,3 °C 3,2 km/h (1 Bft)
23.01.2018 02:19 2,3 °C 93 % 1020,4 hPa 0,0 mm 0,1 km/h (0 Bft) W-SW 252 ° 0 min 0,000 mm 0,0 UV-I 0 W/m² 1,3 °C 2,3 °C 1,6 km/h (1 Bft)
23.01.2018 02:20 2,3 °C 93 % 1020,4 hPa 0,0 mm 0,4 km/h (0 Bft) W-SW 252 ° 0 min 0,000 mm 0,0 UV-I 0 W/m² 1,3 °C 2,3 °C 1,6 km/h (1 Bft)
23.01.2018 02:21 2,3 °C 93 % 1020,4 hPa 0,0 mm 2,1 km/h (1 Bft) W 259 ° 0 min 0,000 mm 0,0 UV-I 0 W/m² 1,3 °C 2,3 °C 3,2 km/h (1 Bft)
23.01.2018 02:22 2,3 °C 93 % 1020,5 hPa 0,2 mm 0,5 km/h (0 Bft) W 259 ° 0 min 0,000 mm 0,0 UV-I 0 W/m² 1,3 °C 2,3 °C 1,6 km/h (1 Bft)
23.01.2018 02:23 2,2 °C 93 % 1020,5 hPa 0,0 mm 0,5 km/h (0 Bft) W 259 ° 0 min 0,000 mm 0,0 UV-I 0 W/m² 1,2 °C 2,2 °C 1,6 km/h (1 Bft)
23.01.2018 02:24 2,2 °C 93 % 1020,5 hPa 0,0 mm 1,4 km/h (1 Bft) W 266 ° 0 min 0,000 mm 0,0 UV-I 0 W/m² 1,2 °C 2,2 °C 3,2 km/h (1 Bft)
23.01.2018 02:25 2,2 °C 93 % 1020,6 hPa 0,0 mm 1,2 km/h (1 Bft) W 266 ° 0 min 0,000 mm 0,0 UV-I 0 W/m² 1,2 °C 2,2 °C 3,2 km/h (1 Bft)
23.01.2018 02:26 2,2 °C 93 % 1020,6 hPa 0,0 mm 1,1 km/h (1 Bft) W 266 ° 0 min 0,000 mm 0,0 UV-I 0 W/m² 1,2 °C 2,2 °C 3,2 km/h (1 Bft)
23.01.2018 02:27 2,2 °C 93 % 1020,7 hPa 0,0 mm 0,4 km/h (0 Bft) W 266 ° 0 min 0,000 mm 0,0 UV-I 0 W/m² 1,2 °C 2,2 °C 1,6 km/h (1 Bft)
23.01.2018 02:28 2,2 °C 93 % 1020,7 hPa 0,0 mm 0,7 km/h (0 Bft) W 266 ° 0 min 0,000 mm 0,0 UV-I 0 W/m² 1,2 °C 2,2 °C 1,6 km/h (1 Bft)
23.01.2018 02:29 2,2 °C 93 % 1020,7 hPa 0,2 mm 1,1 km/h (1 Bft) W 266 ° 0 min 0,000 mm 0,0 UV-I 0 W/m² 1,2 °C 2,2 °C 3,2 km/h (1 Bft)
23.01.2018 02:30 2,2 °C 93 % 1020,8 hPa 0,0 mm 1,9 km/h (1 Bft) W 267 ° 0 min 0,000 mm 0,0 UV-I 0 W/m² 1,2 °C 2,2 °C 3,2 km/h (1 Bft)
23.01.2018 02:31 2,2 °C 93 % 1020,8 hPa 0,0 mm 3,0 km/h (1 Bft) W 268 ° 0 min 0,000 mm 0,0 UV-I 0 W/m² 1,2 °C 2,2 °C 4,8 km/h (1 Bft)
23.01.2018 02:32 2,2 °C 93 % 1020,9 hPa 0,0 mm 0,2 km/h (0 Bft) W 268 ° 0 min 0,000 mm 0,0 UV-I 0 W/m² 1,2 °C 2,2 °C 1,6 km/h (1 Bft)
23.01.2018 02:33 2,2 °C 93 % 1020,9 hPa 0,0 mm 0,0 km/h (0 Bft) W 268 ° 0 min 0,000 mm 0,0 UV-I 0 W/m² 1,2 °C 2,2 °C 0,0 km/h (0 Bft)
23.01.2018 02:34 2,2 °C 93 % 1020,9 hPa 0,0 mm 1,1 km/h (1 Bft) W 268 ° 0 min 0,000 mm 0,0 UV-I 0 W/m² 1,2 °C 2,2 °C 1,6 km/h (1 Bft)
23.01.2018 02:35 2,1 °C 93 % 1020,9 hPa 0,2 mm 0,1 km/h (0 Bft) W 268 ° 0 min 0,000 mm 0,0 UV-I 0 W/m² 1,1 °C 2,1 °C 1,6 km/h (1 Bft)
23.01.2018 02:36 2,2 °C 93 % 1020,9 hPa 0,0 mm 0,0 km/h (0 Bft) W 268 ° 0 min 0,000 mm 0,0 UV-I 0 W/m² 1,2 °C 2,2 °C 0,0 km/h (0 Bft)
23.01.2018 02:37 2,1 °C 93 % 1020,9 hPa 0,0 mm 0,0 km/h (0 Bft) W 268 ° 0 min 0,000 mm 0,0 UV-I 0 W/m² 1,1 °C 2,1 °C 0,0 km/h (0 Bft)
23.01.2018 02:38 2,1 °C 93 % 1020,9 hPa 0,0 mm 0,5 km/h (0 Bft) W 268 ° 0 min 0,000 mm 0,0 UV-I 0 W/m² 1,1 °C 2,1 °C 1,6 km/h (1 Bft)
23.01.2018 02:39 2,1 °C 93 % 1020,8 hPa 0,0 mm 1,1 km/h (1 Bft) W 268 ° 0 min 0,000 mm 0,0 UV-I 0 W/m² 1,1 °C 2,1 °C 3,2 km/h (1 Bft)
23.01.2018 02:40 2,1 °C 93 % 1020,8 hPa 0,2 mm 2,7 km/h (1 Bft) W-SW 246 ° 0 min 0,000 mm 0,0 UV-I 0 W/m² 1,1 °C 2,1 °C 3,2 km/h (1 Bft)
23.01.2018 02:41 2,1 °C 93 % 1020,8 hPa 0,0 mm 1,1 km/h (1 Bft) W-SW 246 ° 0 min 0,000 mm 0,0 UV-I 0 W/m² 1,1 °C 2,1 °C 3,2 km/h (1 Bft)
23.01.2018 02:42 2,1 °C 93 % 1020,8 hPa 0,0 mm 3,1 km/h (1 Bft) W-SW 246 ° 0 min 0,000 mm 0,0 UV-I 0 W/m² 1,1 °C 2,1 °C 4,8 km/h (1 Bft)
23.01.2018 02:43 2,1 °C 93 % 1020,8 hPa 0,0 mm 0,5 km/h (0 Bft) W-SW 246 ° 0 min 0,000 mm 0,0 UV-I 0 W/m² 1,1 °C 2,1 °C 1,6 km/h (1 Bft)
23.01.2018 02:44 2,1 °C 93 % 1020,8 hPa 0,0 mm 2,6 km/h (1 Bft) W-SW 242 ° 0 min 0,000 mm 0,0 UV-I 0 W/m² 1,1 °C 2,1 °C 4,8 km/h (1 Bft)
23.01.2018 02:45 2,1 °C 93 % 1020,8 hPa 0,2 mm 3,6 km/h (1 Bft) W-SW 242 ° 0 min 0,000 mm 0,0 UV-I 0 W/m² 1,1 °C 2,1 °C 4,8 km/h (1 Bft)
23.01.2018 02:46 2,1 °C 93 % 1020,8 hPa 0,0 mm 1,0 km/h (0 Bft) W-SW 242 ° 0 min 0,000 mm 0,0 UV-I 0 W/m² 1,1 °C 2,1 °C 3,2 km/h (1 Bft)
23.01.2018 02:47 2,1 °C 93 % 1020,8 hPa 0,0 mm 3,6 km/h (1 Bft) W 263 ° 0 min 0,000 mm 0,0 UV-I 0 W/m² 1,1 °C 2,1 °C 4,8 km/h (1 Bft)
23.01.2018 02:48 2,0 °C 93 % 1020,9 hPa 0,0 mm 2,9 km/h (1 Bft) W-SW 250 ° 0 min 0,000 mm 0,0 UV-I 0 W/m² 1,0 °C 2,0 °C 4,8 km/h (1 Bft)
23.01.2018 02:49 2,0 °C 93 % 1020,9 hPa 0,0 mm 2,0 km/h (1 Bft) W-SW 250 ° 0 min 0,000 mm 0,0 UV-I 0 W/m² 1,0 °C 2,0 °C 3,2 km/h (1 Bft)
23.01.2018 02:50 2,0 °C 93 % 1020,9 hPa 0,0 mm 0,8 km/h (0 Bft) W-SW 250 ° 0 min 0,000 mm 0,0 UV-I 0 W/m² 1,0 °C 2,0 °C 3,2 km/h (1 Bft)
23.01.2018 02:51 2,0 °C 93 % 1021,0 hPa 0,0 mm 1,3 km/h (1 Bft) W-SW 238 ° 0 min 0,000 mm 0,0 UV-I 0 W/m² 1,0 °C 2,0 °C 4,8 km/h (1 Bft)
23.01.2018 02:52 2,0 °C 93 % 1021,0 hPa 0,0 mm 2,6 km/h (1 Bft) W-SW 238 ° 0 min 0,000 mm 0,0 UV-I 0 W/m² 1,0 °C 2,0 °C 4,8 km/h (1 Bft)
23.01.2018 02:53 2,0 °C 93 % 1021,0 hPa 0,0 mm 3,1 km/h (1 Bft) SW 233 ° 0 min 0,000 mm 0,0 UV-I 0 W/m² 1,0 °C 2,0 °C 4,8 km/h (1 Bft)
23.01.2018 02:54 1,9 °C 93 % 1021,1 hPa 0,2 mm 2,3 km/h (1 Bft) SW 233 ° 0 min 0,000 mm 0,0 UV-I 0 W/m² 0,9 °C 1,9 °C 4,8 km/h (1 Bft)
23.01.2018 02:55 1,9 °C 93 % 1021,1 hPa 0,0 mm 3,1 km/h (1 Bft) W 269 ° 0 min 0,000 mm 0,0 UV-I 0 W/m² 0,9 °C 1,9 °C 4,8 km/h (1 Bft)
23.01.2018 02:56 1,9 °C 93 % 1021,0 hPa 0,0 mm 0,4 km/h (0 Bft) W 267 ° 0 min 0,000 mm 0,0 UV-I 0 W/m² 0,9 °C 1,9 °C 1,6 km/h (1 Bft)
23.01.2018 02:57 1,9 °C 93 % 1021,1 hPa 0,0 mm 2,5 km/h (1 Bft) W-SW 250 ° 0 min 0,000 mm 0,0 UV-I 0 W/m² 0,9 °C 1,9 °C 4,8 km/h (1 Bft)
23.01.2018 02:58 1,9 °C 93 % 1021,1 hPa 0,0 mm 1,3 km/h (1 Bft) W-SW 250 ° 0 min 0,000 mm 0,0 UV-I 0 W/m² 0,9 °C 1,9 °C 3,2 km/h (1 Bft)
23.01.2018 02:59 1,9 °C 93 % 1021,1 hPa 0,0 mm 1,1 km/h (1 Bft) W-SW 250 ° 0 min 0,000 mm 0,0 UV-I 0 W/m² 0,9 °C 1,9 °C 3,2 km/h (1 Bft)
23.01.2018 03:00 1,9 °C 94 % 1021,1 hPa 0,0 mm 0,0 km/h (0 Bft) W-SW 250 ° 0 min 0,000 mm 0,0 UV-I 0 W/m² 1,0 °C 1,9 °C 0,0 km/h (0 Bft)
23.01.2018 03:01 1,9 °C 94 % 1021,2 hPa 0,0 mm 0,6 km/h (0 Bft) W-SW 256 ° 0 min 0,000 mm 0,0 UV-I 0 W/m² 1,0 °C 1,9 °C 6,4 km/h (2 Bft)
23.01.2018 03:02 1,9 °C 94 % 1021,2 hPa 0,0 mm 4,5 km/h (1 Bft) W-SW 248 ° 0 min 0,000 mm 0,0 UV-I 0 W/m² 1,0 °C 1,9 °C 6,4 km/h (2 Bft)
23.01.2018 03:03 1,9 °C 94 % 1021,2 hPa 0,2 mm 3,8 km/h (1 Bft) W-SW 254 ° 0 min 0,000 mm 0,0 UV-I 0 W/m² 1,0 °C 1,9 °C 4,8 km/h (1 Bft)
23.01.2018 03:04 1,9 °C 94 % 1021,2 hPa 0,0 mm 2,7 km/h (1 Bft) W-SW 254 ° 0 min 0,000 mm 0,0 UV-I 0 W/m² 1,0 °C 1,9 °C 4,8 km/h (1 Bft)
23.01.2018 03:05 1,9 °C 94 % 1021,2 hPa 0,0 mm 1,2 km/h (1 Bft) W-SW 254 ° 0 min 0,000 mm 0,0 UV-I 0 W/m² 1,0 °C 1,9 °C 3,2 km/h (1 Bft)
23.01.2018 03:06 1,9 °C 94 % 1021,2 hPa 0,0 mm 0,0 km/h (0 Bft) W-SW 254 ° 0 min 0,000 mm 0,0 UV-I 0 W/m² 1,0 °C 1,9 °C 0,0 km/h (0 Bft)
23.01.2018 03:07 1,9 °C 94 % 1021,2 hPa 0,0 mm 0,1 km/h (0 Bft) W 266 ° 0 min 0,000 mm 0,0 UV-I 0 W/m² 1,0 °C 1,9 °C 1,6 km/h (1 Bft)
23.01.2018 03:08 1,9 °C 94 % 1021,2 hPa 0,0 mm 1,2 km/h (1 Bft) W 269 ° 0 min 0,000 mm 0,0 UV-I 0 W/m² 1,0 °C 1,9 °C 4,8 km/h (1 Bft)
23.01.2018 03:09 1,9 °C 94 % 1021,1 hPa 0,0 mm 0,2 km/h (0 Bft) W 269 ° 0 min 0,000 mm 0,0 UV-I 0 W/m² 1,0 °C 1,9 °C 1,6 km/h (1 Bft)
23.01.2018 03:10 1,9 °C 94 % 1021,1 hPa 0,2 mm 0,0 km/h (0 Bft) W 269 ° 0 min 0,000 mm 0,0 UV-I 0 W/m² 1,0 °C 1,9 °C 0,0 km/h (0 Bft)
23.01.2018 03:11 1,8 °C 94 % 1021,2 hPa 0,0 mm 0,0 km/h (0 Bft) W 269 ° 0 min 0,000 mm 0,0 UV-I 0 W/m² 0,9 °C 1,8 °C 0,0 km/h (0 Bft)
23.01.2018 03:12 1,8 °C 94 % 1021,2 hPa 0,0 mm 0,0 km/h (0 Bft) W 269 ° 0 min 0,000 mm 0,0 UV-I 0 W/m² 0,9 °C 1,8 °C 0,0 km/h (0 Bft)
23.01.2018 03:13 1,8 °C 94 % 1021,2 hPa 0,0 mm 0,0 km/h (0 Bft) W 269 ° 0 min 0,000 mm 0,0 UV-I 0 W/m² 0,9 °C 1,8 °C 0,0 km/h (0 Bft)
23.01.2018 03:14 1,8 °C 94 % 1021,2 hPa 0,0 mm 0,0 km/h (0 Bft) W 269 ° 0 min 0,000 mm 0,0 UV-I 0 W/m² 0,9 °C 1,8 °C 0,0 km/h (0 Bft)
23.01.2018 03:15 1,8 °C 94 % 1021,2 hPa 0,0 mm 0,0 km/h (0 Bft) W 269 ° 0 min 0,000 mm 0,0 UV-I 0 W/m² 0,9 °C 1,8 °C 0,0 km/h (0 Bft)
23.01.2018 03:16 1,8 °C 94 % 1021,1 hPa 0,0 mm 0,0 km/h (0 Bft) W 269 ° 0 min 0,000 mm 0,0 UV-I 0 W/m² 0,9 °C 1,8 °C 0,0 km/h (0 Bft)
23.01.2018 03:17 1,8 °C 94 % 1021,1 hPa 0,2 mm 0,1 km/h (0 Bft) W 269 ° 0 min 0,000 mm 0,0 UV-I 0 W/m² 0,9 °C 1,8 °C 1,6 km/h (1 Bft)
23.01.2018 03:18 1,8 °C 93 % 1021,1 hPa 0,0 mm 1,9 km/h (1 Bft) W 269 ° 0 min 0,000 mm 0,0 UV-I 0 W/m² 0,8 °C 1,8 °C 3,2 km/h (1 Bft)
23.01.2018 03:19 1,8 °C 94 % 1021,1 hPa 0,0 mm 3,1 km/h (1 Bft) SW 233 ° 0 min 0,000 mm 0,0 UV-I 0 W/m² 0,9 °C 1,8 °C 4,8 km/h (1 Bft)
23.01.2018 03:20 1,8 °C 93 % 1021,1 hPa 0,0 mm 0,4 km/h (0 Bft) SW 233 ° 0 min 0,000 mm 0,0 UV-I 0 W/m² 0,8 °C 1,8 °C 3,2 km/h (1 Bft)
23.01.2018 03:21 1,8 °C 93 % 1021,1 hPa 0,0 mm 1,0 km/h (0 Bft) SW 233 ° 0 min 0,000 mm 0,0 UV-I 0 W/m² 0,8 °C 1,8 °C 3,2 km/h (1 Bft)
23.01.2018 03:22 1,8 °C 94 % 1021,2 hPa 0,0 mm 1,1 km/h (1 Bft) SW 233 ° 0 min 0,000 mm 0,0 UV-I 0 W/m² 0,9 °C 1,8 °C 1,6 km/h (1 Bft)
23.01.2018 03:23 1,8 °C 93 % 1021,2 hPa 0,0 mm 5,6 km/h (1 Bft) W 261 ° 0 min 0,000 mm 0,0 UV-I 0 W/m² 0,8 °C 0,2 °C 9,7 km/h (2 Bft)
23.01.2018 03:24 1,8 °C 93 % 1021,3 hPa 0,2 mm 3,4 km/h (1 Bft) W 270 ° 0 min 0,000 mm 0,0 UV-I 0 W/m² 0,8 °C 1,8 °C 6,4 km/h (2 Bft)
23.01.2018 03:25 1,8 °C 94 % 1021,4 hPa 0,0 mm 3,4 km/h (1 Bft) W 263 ° 0 min 0,000 mm 0,0 UV-I 0 W/m² 0,9 °C 1,8 °C 6,4 km/h (2 Bft)
23.01.2018 03:26 1,8 °C 93 % 1021,4 hPa 0,0 mm 3,2 km/h (1 Bft) W-SW 246 ° 0 min 0,000 mm 0,0 UV-I 0 W/m² 0,8 °C 1,8 °C 4,8 km/h (1 Bft)
23.01.2018 03:27 1,8 °C 94 % 1021,4 hPa 0,0 mm 1,9 km/h (1 Bft) W-SW 246 ° 0 min 0,000 mm 0,0 UV-I 0 W/m² 0,9 °C 1,8 °C 4,8 km/h (1 Bft)
23.01.2018 03:28 1,8 °C 94 % 1021,4 hPa 0,0 mm 1,5 km/h (1 Bft) W-SW 246 ° 0 min 0,000 mm 0,0 UV-I 0 W/m² 0,9 °C 1,8 °C 3,2 km/h (1 Bft)
23.01.2018 03:29 1,8 °C 94 % 1021,4 hPa 0,0 mm 2,1 km/h (1 Bft) W 269 ° 0 min 0,000 mm 0,0 UV-I 0 W/m² 0,9 °C 1,8 °C 4,8 km/h (1 Bft)
23.01.2018 03:30 1,8 °C 94 % 1021,5 hPa 0,0 mm 2,5 km/h (1 Bft) W 263 ° 0 min 0,000 mm 0,0 UV-I 0 W/m² 0,9 °C 1,8 °C 4,8 km/h (1 Bft)
23.01.2018 03:31 1,8 °C 94 % 1021,5 hPa 0,0 mm 2,6 km/h (1 Bft) W 263 ° 0 min 0,000 mm 0,0 UV-I 0 W/m² 0,9 °C 1,8 °C 4,8 km/h (1 Bft)
23.01.2018 03:32 1,7 °C 94 % 1021,6 hPa 0,0 mm 3,0 km/h (1 Bft) W 271 ° 0 min 0,000 mm 0,0 UV-I 0 W/m² 0,8 °C 1,7 °C 4,8 km/h (1 Bft)
23.01.2018 03:33 1,7 °C 94 % 1021,6 hPa 0,0 mm 3,1 km/h (1 Bft) W 271 ° 0 min 0,000 mm 0,0 UV-I 0 W/m² 0,8 °C 1,7 °C 4,8 km/h (1 Bft)
23.01.2018 03:34 1,7 °C 94 % 1021,8 hPa 0,2 mm 2,6 km/h (1 Bft) W 271 ° 0 min 0,000 mm 0,0 UV-I 0 W/m² 0,8 °C 1,7 °C 4,8 km/h (1 Bft)
23.01.2018 03:35 1,8 °C 94 % 1021,8 hPa 0,0 mm 3,4 km/h (1 Bft) W 263 ° 0 min 0,000 mm 0,0 UV-I 0 W/m² 0,9 °C 1,8 °C 4,8 km/h (1 Bft)
23.01.2018 03:36 1,7 °C 94 % 1021,8 hPa 0,0 mm 3,7 km/h (1 Bft) W 261 ° 0 min 0,000 mm 0,0 UV-I 0 W/m² 0,8 °C 1,7 °C 4,8 km/h (1 Bft)
23.01.2018 03:37 1,7 °C 94 % 1021,8 hPa 0,0 mm 1,8 km/h (1 Bft) W 261 ° 0 min 0,000 mm 0,0 UV-I 0 W/m² 0,8 °C 1,7 °C 3,2 km/h (1 Bft)
23.01.2018 03:38 1,7 °C 94 % 1021,8 hPa 0,0 mm 2,2 km/h (1 Bft) W 261 ° 0 min 0,000 mm 0,0 UV-I 0 W/m² 0,8 °C 1,7 °C 4,8 km/h (1 Bft)
23.01.2018 03:39 1,7 °C 94 % 1021,7 hPa 0,0 mm 3,1 km/h (1 Bft) W-SW 246 ° 0 min 0,000 mm 0,0 UV-I 0 W/m² 0,8 °C 1,7 °C 4,8 km/h (1 Bft)
23.01.2018 03:40 1,7 °C 94 % 1021,7 hPa 0,0 mm 6,9 km/h (2 Bft) S-SW 207 ° 0 min 0,000 mm 0,0 UV-I 0 W/m² 0,8 °C -0,4 °C 11,3 km/h (2 Bft)
23.01.2018 03:41 1,7 °C 94 % 1021,7 hPa 0,0 mm 3,6 km/h (1 Bft) S-SW 208 ° 0 min 0,000 mm 0,0 UV-I 0 W/m² 0,8 °C 1,7 °C 6,4 km/h (2 Bft)
23.01.2018 03:42 1,7 °C 94 % 1021,8 hPa 0,0 mm 4,4 km/h (1 Bft) W-NW 294 ° 0 min 0,000 mm 0,0 UV-I 0 W/m² 0,8 °C 1,7 °C 6,4 km/h (2 Bft)
23.01.2018 03:43 1,7 °C 94 % 1021,7 hPa 0,0 mm 4,6 km/h (1 Bft) W-NW 282 ° 0 min 0,000 mm 0,0 UV-I 0 W/m² 0,8 °C 0,5 °C 6,4 km/h (2 Bft)
23.01.2018 03:44 1,7 °C 94 % 1021,7 hPa 0,0 mm 7,0 km/h (2 Bft) W-SW 240 ° 0 min 0,000 mm 0,0 UV-I 0 W/m² 0,8 °C -0,4 °C 9,7 km/h (2 Bft)
23.01.2018 03:45 1,7 °C 94 % 1021,7 hPa 0,0 mm 8,0 km/h (2 Bft) W-SW 244 ° 0 min 0,000 mm 0,0 UV-I 0 W/m² 0,8 °C -0,7 °C 14,5 km/h (3 Bft)
23.01.2018 03:46 1,7 °C 94 % 1021,8 hPa 0,0 mm 5,9 km/h (2 Bft) W-SW 256 ° 0 min 0,000 mm 0,0 UV-I 0 W/m² 0,8 °C -0,0 °C 11,3 km/h (2 Bft)
23.01.2018 03:47 1,7 °C 94 % 1021,7 hPa 0,0 mm 4,1 km/h (1 Bft) W-SW 244 ° 0 min 0,000 mm 0,0 UV-I 0 W/m² 0,8 °C 1,7 °C 8,0 km/h (2 Bft)
23.01.2018 03:48 1,7 °C 94 % 1021,7 hPa 0,0 mm 11,6 km/h (2 Bft) W 260 ° 0 min 0,000 mm 0,0 UV-I 0 W/m² 0,8 °C -1,7 °C 17,7 km/h (3 Bft)
23.01.2018 03:49 1,7 °C 94 % 1021,7 hPa 0,0 mm 5,2 km/h (1 Bft) SW 217 ° 0 min 0,000 mm 0,0 UV-I 0 W/m² 0,8 °C 0,3 °C 9,7 km/h (2 Bft)
23.01.2018 03:50 1,7 °C 94 % 1021,8 hPa 0,0 mm 5,1 km/h (1 Bft) W-SW 255 ° 0 min 0,000 mm 0,0 UV-I 0 W/m² 0,8 °C 0,3 °C 8,0 km/h (2 Bft)
23.01.2018 03:51 1,7 °C 94 % 1021,8 hPa 0,0 mm 5,2 km/h (1 Bft) SW 230 ° 0 min 0,000 mm 0,0 UV-I 0 W/m² 0,8 °C 0,3 °C 8,0 km/h (2 Bft)
23.01.2018 03:52 1,7 °C 94 % 1021,7 hPa 0,0 mm 4,8 km/h (1 Bft) SW 227 ° 0 min 0,000 mm 0,0 UV-I 0 W/m² 0,8 °C 0,4 °C 8,0 km/h (2 Bft)
23.01.2018 03:53 1,7 °C 94 % 1021,7 hPa 0,0 mm 5,9 km/h (2 Bft) SW 232 ° 0 min 0,000 mm 0,0 UV-I 0 W/m² 0,8 °C -0,0 °C 9,7 km/h (2 Bft)
23.01.2018 03:54 1,7 °C 94 % 1021,7 hPa 0,0 mm 7,9 km/h (2 Bft) SW 223 ° 0 min 0,000 mm 0,0 UV-I 0 W/m² 0,8 °C -0,7 °C 12,9 km/h (3 Bft)
23.01.2018 03:55 1,7 °C 94 % 1021,7 hPa 0,0 mm 7,4 km/h (2 Bft) W 271 ° 0 min 0,000 mm 0,0 UV-I 0 W/m² 0,8 °C -0,6 °C 11,3 km/h (2 Bft)
23.01.2018 03:56 1,7 °C 94 % 1021,8 hPa 0,0 mm 4,8 km/h (1 Bft) S-SW 194 ° 0 min 0,000 mm 0,0 UV-I 0 W/m² 0,8 °C 0,4 °C 8,0 km/h (2 Bft)
23.01.2018 03:57 1,7 °C 94 % 1021,7 hPa 0,0 mm 8,4 km/h (2 Bft) S-SW 211 ° 0 min 0,000 mm 0,0 UV-I 0 W/m² 0,8 °C -0,9 °C 11,3 km/h (2 Bft)
23.01.2018 03:58 1,8 °C 94 % 1021,8 hPa 0,0 mm 8,2 km/h (2 Bft) W-SW 251 ° 0 min 0,000 mm 0,0 UV-I 0 W/m² 0,9 °C -0,7 °C 14,5 km/h (3 Bft)
23.01.2018 03:59 1,8 °C 94 % 1021,9 hPa 0,0 mm 4,7 km/h (1 Bft) W-SW 241 ° 0 min 0,000 mm 0,0 UV-I 0 W/m² 0,9 °C 0,6 °C 8,0 km/h (2 Bft)
23.01.2018 04:00 1,8 °C 94 % 1021,9 hPa 0,0 mm 5,6 km/h (1 Bft) S-SW 205 ° 0 min 0,000 mm 0,0 UV-I 0 W/m² 0,9 °C 0,2 °C 8,0 km/h (2 Bft)
23.01.2018 04:01 1,8 °C 94 % 1021,9 hPa 0,0 mm 7,3 km/h (2 Bft) W-SW 248 ° 0 min 0,000 mm 0,0 UV-I 0 W/m² 0,9 °C -0,4 °C 9,7 km/h (2 Bft)
23.01.2018 04:02 1,8 °C 94 % 1021,9 hPa 0,0 mm 6,1 km/h (2 Bft) S-SW 198 ° 0 min 0,000 mm 0,0 UV-I 0 W/m² 0,9 °C 0,0 °C 9,7 km/h (2 Bft)
23.01.2018 04:03 1,8 °C 94 % 1021,8 hPa 0,0 mm 4,6 km/h (1 Bft) S-SW 197 ° 0 min 0,000 mm 0,0 UV-I 0 W/m² 0,9 °C 0,6 °C 8,0 km/h (2 Bft)
23.01.2018 04:04 1,8 °C 94 % 1021,9 hPa 0,0 mm 5,6 km/h (1 Bft) SW 215 ° 0 min 0,000 mm 0,0 UV-I 0 W/m² 0,9 °C 0,2 °C 11,3 km/h (2 Bft)
23.01.2018 04:05 1,8 °C 94 % 1021,9 hPa 0,0 mm 6,2 km/h (2 Bft) S-SW 207 ° 0 min 0,000 mm 0,0 UV-I 0 W/m² 0,9 °C -0,0 °C 9,7 km/h (2 Bft)
23.01.2018 04:06 1,8 °C 94 % 1021,8 hPa 0,0 mm 6,2 km/h (2 Bft) S-SW 206 ° 0 min 0,000 mm 0,0 UV-I 0 W/m² 0,9 °C -0,0 °C 8,0 km/h (2 Bft)
23.01.2018 04:07 1,8 °C 94 % 1021,9 hPa 0,0 mm 7,3 km/h (2 Bft) S-SW 212 ° 0 min 0,000 mm 0,0 UV-I 0 W/m² 0,9 °C -0,4 °C 9,7 km/h (2 Bft)
23.01.2018 04:08 1,8 °C 94 % 1021,9 hPa 0,0 mm 7,4 km/h (2 Bft) W-SW 242 ° 0 min 0,000 mm 0,0 UV-I 0 W/m² 0,9 °C -0,4 °C 9,7 km/h (2 Bft)
23.01.2018 04:09 1,8 °C 94 % 1021,9 hPa 0,0 mm 4,8 km/h (1 Bft) S-SW 205 ° 0 min 0,000 mm 0,0 UV-I 0 W/m² 0,9 °C 0,5 °C 8,0 km/h (2 Bft)
23.01.2018 04:10 1,8 °C 94 % 1021,9 hPa 0,0 mm 7,1 km/h (2 Bft) S-SW 202 ° 0 min 0,000 mm 0,0 UV-I 0 W/m² 0,9 °C -0,3 °C 9,7 km/h (2 Bft)
23.01.2018 04:11 1,8 °C 94 % 1021,9 hPa 0,0 mm 8,0 km/h (2 Bft) SW 219 ° 0 min 0,000 mm 0,0 UV-I 0 W/m² 0,9 °C -0,6 °C 12,9 km/h (3 Bft)
23.01.2018 04:12 1,8 °C 94 % 1021,9 hPa 0,0 mm 7,1 km/h (2 Bft) W-SW 242 ° 0 min 0,000 mm 0,0 UV-I 0 W/m² 0,9 °C -0,3 °C 11,3 km/h (2 Bft)
23.01.2018 04:13 1,8 °C 94 % 1022,0 hPa 0,0 mm 5,8 km/h (2 Bft) SW 236 ° 0 min 0,000 mm 0,0 UV-I 0 W/m² 0,9 °C 0,1 °C 9,7 km/h (2 Bft)
23.01.2018 04:14 1,8 °C 94 % 1022,0 hPa 0,0 mm 6,5 km/h (2 Bft) S-SW 207 ° 0 min 0,000 mm 0,0 UV-I 0 W/m² 0,9 °C -0,1 °C 9,7 km/h (2 Bft)
23.01.2018 04:15 1,8 °C 94 % 1022,0 hPa 0,0 mm 5,7 km/h (1 Bft) SW 229 ° 0 min 0,000 mm 0,0 UV-I 0 W/m² 0,9 °C 0,2 °C 9,7 km/h (2 Bft)
23.01.2018 04:16 1,8 °C 94 % 1022,1 hPa 0,0 mm 4,8 km/h (1 Bft) S-SW 210 ° 0 min 0,000 mm 0,0 UV-I 0 W/m² 0,9 °C 0,5 °C 8,0 km/h (2 Bft)
23.01.2018 04:17 1,8 °C 94 % 1022,1 hPa 0,0 mm 6,9 km/h (2 Bft) W-SW 240 ° 0 min 0,000 mm 0,0 UV-I 0 W/m² 0,9 °C -0,3 °C 11,3 km/h (2 Bft)
23.01.2018 04:18 1,8 °C 94 % 1022,1 hPa 0,0 mm 7,6 km/h (2 Bft) S-SW 192 ° 0 min 0,000 mm 0,0 UV-I 0 W/m² 0,9 °C -0,5 °C 16,1 km/h (3 Bft)
23.01.2018 04:19 1,8 °C 94 % 1022,1 hPa 0,0 mm 5,8 km/h (2 Bft) W 261 ° 0 min 0,000 mm 0,0 UV-I 0 W/m² 0,9 °C 0,1 °C 11,3 km/h (2 Bft)
23.01.2018 04:20 1,8 °C 94 % 1022,1 hPa 0,0 mm 5,2 km/h (1 Bft) SW 227 ° 0 min 0,000 mm 0,0 UV-I 0 W/m² 0,9 °C 0,4 °C 11,3 km/h (2 Bft)
23.01.2018 04:21 1,8 °C 94 % 1022,1 hPa 0,0 mm 6,4 km/h (2 Bft) SW 232 ° 0 min 0,000 mm 0,0 UV-I 0 W/m² 0,9 °C -0,1 °C 12,9 km/h (3 Bft)
23.01.2018 04:22 1,8 °C 94 % 1022,1 hPa 0,0 mm 6,3 km/h (2 Bft) SW 233 ° 0 min 0,000 mm 0,0 UV-I 0 W/m² 0,9 °C -0,1 °C 11,3 km/h (2 Bft)
23.01.2018 04:23 1,8 °C 94 % 1022,2 hPa 0,0 mm 3,8 km/h (1 Bft) SW 229 ° 0 min 0,000 mm 0,0 UV-I 0 W/m² 0,9 °C 1,8 °C 8,0 km/h (2 Bft)
23.01.2018 04:24 1,9 °C 94 % 1022,1 hPa 0,0 mm 4,2 km/h (1 Bft) SW 229 ° 0 min 0,000 mm 0,0 UV-I 0 W/m² 1,0 °C 1,9 °C 8,0 km/h (2 Bft)
23.01.2018 04:25 1,9 °C 94 % 1022,2 hPa 0,0 mm 6,6 km/h (2 Bft) S-SW 204 ° 0 min 0,000 mm 0,0 UV-I 0 W/m² 1,0 °C -0,1 °C 11,3 km/h (2 Bft)
23.01.2018 04:26 1,9 °C 94 % 1022,2 hPa 0,0 mm 7,8 km/h (2 Bft) SW 234 ° 0 min 0,000 mm 0,0 UV-I 0 W/m² 1,0 °C -0,4 °C 11,3 km/h (2 Bft)
23.01.2018 04:27 1,9 °C 94 % 1022,2 hPa 0,0 mm 7,5 km/h (2 Bft) W-SW 244 ° 0 min 0,000 mm 0,0 UV-I 0 W/m² 1,0 °C -0,4 °C 11,3 km/h (2 Bft)
23.01.2018 04:28 1,9 °C 94 % 1022,2 hPa 0,0 mm 6,2 km/h (2 Bft) SW 229 ° 0 min 0,000 mm 0,0 UV-I 0 W/m² 1,0 °C 0,1 °C 11,3 km/h (2 Bft)
23.01.2018 04:29 1,9 °C 94 % 1022,2 hPa 0,0 mm 7,1 km/h (2 Bft) W-SW 241 ° 0 min 0,000 mm 0,0 UV-I 0 W/m² 1,0 °C -0,2 °C 11,3 km/h (2 Bft)
23.01.2018 04:30 1,9 °C 94 % 1022,3 hPa 0,0 mm 6,2 km/h (2 Bft) W 264 ° 0 min 0,000 mm 0,0 UV-I 0 W/m² 1,0 °C 0,1 °C 9,7 km/h (2 Bft)
23.01.2018 04:31 1,9 °C 94 % 1022,4 hPa 0,0 mm 6,6 km/h (2 Bft) SW 221 ° 0 min 0,000 mm 0,0 UV-I 0 W/m² 1,0 °C -0,1 °C 14,5 km/h (3 Bft)
23.01.2018 04:32 1,9 °C 94 % 1022,4 hPa 0,0 mm 2,3 km/h (1 Bft) W 260 ° 0 min 0,000 mm 0,0 UV-I 0 W/m² 1,0 °C 1,9 °C 4,8 km/h (1 Bft)
23.01.2018 04:33 1,9 °C 94 % 1022,4 hPa 0,0 mm 4,4 km/h (1 Bft) SW 221 ° 0 min 0,000 mm 0,0 UV-I 0 W/m² 1,0 °C 1,9 °C 6,4 km/h (2 Bft)
23.01.2018 04:34 1,9 °C 94 % 1022,4 hPa 0,0 mm 5,7 km/h (1 Bft) SW 223 ° 0 min 0,000 mm 0,0 UV-I 0 W/m² 1,0 °C 0,3 °C 11,3 km/h (2 Bft)
23.01.2018 04:35 1,9 °C 94 % 1022,4 hPa 0,0 mm 4,4 km/h (1 Bft) W-SW 257 ° 0 min 0,000 mm 0,0 UV-I 0 W/m² 1,0 °C 1,9 °C 6,4 km/h (2 Bft)
23.01.2018 04:36 1,9 °C 94 % 1022,4 hPa 0,0 mm 6,6 km/h (2 Bft) W 267 ° 0 min 0,000 mm 0,0 UV-I 0 W/m² 1,0 °C -0,1 °C 11,3 km/h (2 Bft)
23.01.2018 04:37 1,9 °C 94 % 1022,5 hPa 0,0 mm 4,1 km/h (1 Bft) W-SW 257 ° 0 min 0,000 mm 0,0 UV-I 0 W/m² 1,0 °C 1,9 °C 6,4 km/h (2 Bft)
23.01.2018 04:38 1,9 °C 94 % 1022,5 hPa 0,0 mm 4,4 km/h (1 Bft) W-NW 288 ° 0 min 0,000 mm 0,0 UV-I 0 W/m² 1,0 °C 1,9 °C 6,4 km/h (2 Bft)
23.01.2018 04:39 1,9 °C 94 % 1022,6 hPa 0,0 mm 4,3 km/h (1 Bft) W-NW 284 ° 0 min 0,000 mm 0,0 UV-I 0 W/m² 1,0 °C 1,9 °C 6,4 km/h (2 Bft)
23.01.2018 04:40 1,9 °C 94 % 1022,6 hPa 0,0 mm 5,9 km/h (2 Bft) W-NW 294 ° 0 min 0,000 mm 0,0 UV-I 0 W/m² 1,0 °C 0,2 °C 11,3 km/h (2 Bft)
23.01.2018 04:41 1,9 °C 94 % 1022,6 hPa 0,2 mm 2,0 km/h (1 Bft) W-NW 294 ° 0 min 0,000 mm 0,0 UV-I 0 W/m² 1,0 °C 1,9 °C 4,8 km/h (1 Bft)
23.01.2018 04:42 1,9 °C 94 % 1022,6 hPa 0,0 mm 2,5 km/h (1 Bft) W-NW 298 ° 0 min 0,000 mm 0,0 UV-I 0 W/m² 1,0 °C 1,9 °C 3,2 km/h (1 Bft)
23.01.2018 04:43 1,9 °C 94 % 1022,7 hPa 0,0 mm 0,9 km/h (0 Bft) W-NW 298 ° 0 min 0,000 mm 0,0 UV-I 0 W/m² 1,0 °C 1,9 °C 1,6 km/h (1 Bft)
23.01.2018 04:44 1,9 °C 94 % 1022,7 hPa 0,0 mm 3,0 km/h (1 Bft) W-NW 297 ° 0 min 0,000 mm 0,0 UV-I 0 W/m² 1,0 °C 1,9 °C 4,8 km/h (1 Bft)
23.01.2018 04:45 1,9 °C 94 % 1022,7 hPa 0,0 mm 1,9 km/h (1 Bft) W-NW 298 ° 0 min 0,000 mm 0,0 UV-I 0 W/m² 1,0 °C 1,9 °C 3,2 km/h (1 Bft)
23.01.2018 04:46 1,9 °C 94 % 1022,7 hPa 0,0 mm 3,2 km/h (1 Bft) W-NW 286 ° 0 min 0,000 mm 0,0 UV-I 0 W/m² 1,0 °C 1,9 °C 4,8 km/h (1 Bft)
23.01.2018 04:47 1,9 °C 94 % 1022,7 hPa 0,0 mm 3,0 km/h (1 Bft) W 261 ° 0 min 0,000 mm 0,0 UV-I 0 W/m² 1,0 °C 1,9 °C 4,8 km/h (1 Bft)
23.01.2018 04:48 1,9 °C 94 % 1022,7 hPa 0,0 mm 3,6 km/h (1 Bft) SW 218 ° 0 min 0,000 mm 0,0 UV-I 0 W/m² 1,0 °C 1,9 °C 6,4 km/h (2 Bft)
23.01.2018 04:49 1,9 °C 94 % 1022,7 hPa 0,0 mm 2,3 km/h (1 Bft) W-NW 291 ° 0 min 0,000 mm 0,0 UV-I 0 W/m² 1,0 °C 1,9 °C 3,2 km/h (1 Bft)
23.01.2018 04:50 1,9 °C 94 % 1022,8 hPa 0,0 mm 4,4 km/h (1 Bft) W 263 ° 0 min 0,000 mm 0,0 UV-I 0 W/m² 1,0 °C 1,9 °C 4,8 km/h (1 Bft)
23.01.2018 04:51 1,9 °C 94 % 1022,8 hPa 0,0 mm 4,2 km/h (1 Bft) W 270 ° 0 min 0,000 mm 0,0 UV-I 0 W/m² 1,0 °C 1,9 °C 6,4 km/h (2 Bft)
23.01.2018 04:52 1,9 °C 94 % 1022,8 hPa 0,2 mm 4,6 km/h (1 Bft) W 277 ° 0 min 0,000 mm 0,0 UV-I 0 W/m² 1,0 °C 0,7 °C 6,4 km/h (2 Bft)
23.01.2018 04:53 1,9 °C 94 % 1022,8 hPa 0,0 mm 3,7 km/h (1 Bft) W-SW 248 ° 0 min 0,000 mm 0,0 UV-I 0 W/m² 1,0 °C 1,9 °C 4,8 km/h (1 Bft)
23.01.2018 04:54 1,9 °C 94 % 1022,9 hPa 0,0 mm 3,2 km/h (1 Bft) W 277 ° 0 min 0,000 mm 0,0 UV-I 0 W/m² 1,0 °C 1,9 °C 4,8 km/h (1 Bft)
23.01.2018 04:55 1,8 °C 94 % 1023,0 hPa 0,0 mm 5,0 km/h (1 Bft) NW 325 ° 0 min 0,000 mm 0,0 UV-I 0 W/m² 0,9 °C 0,5 °C 8,0 km/h (2 Bft)
23.01.2018 04:56 1,8 °C 94 % 1023,0 hPa 0,0 mm 3,0 km/h (1 Bft) W 277 ° 0 min 0,000 mm 0,0 UV-I 0 W/m² 0,9 °C 1,8 °C 4,8 km/h (1 Bft)
23.01.2018 04:57 1,8 °C 94 % 1023,0 hPa 0,0 mm 5,4 km/h (1 Bft) W 259 ° 0 min 0,000 mm 0,0 UV-I 0 W/m² 0,9 °C 0,3 °C 9,7 km/h (2 Bft)
23.01.2018 04:58 1,8 °C 94 % 1023,0 hPa 0,0 mm 5,3 km/h (1 Bft) W-NW 288 ° 0 min 0,000 mm 0,0 UV-I 0 W/m² 0,9 °C 0,3 °C 6,4 km/h (2 Bft)
23.01.2018 04:59 1,8 °C 93 % 1023,1 hPa 0,2 mm 4,1 km/h (1 Bft) W-NW 294 ° 0 min 0,000 mm 0,0 UV-I 0 W/m² 0,8 °C 1,8 °C 6,4 km/h (2 Bft)
23.01.2018 05:00 1,8 °C 93 % 1023,1 hPa 0,0 mm 2,3 km/h (1 Bft) W 263 ° 0 min 0,000 mm 0,0 UV-I 0 W/m² 0,8 °C 1,8 °C 4,8 km/h (1 Bft)
23.01.2018 05:01 1,8 °C 93 % 1023,1 hPa 0,0 mm 5,6 km/h (1 Bft) W-NW 290 ° 0 min 0,000 mm 0,0 UV-I 0 W/m² 0,8 °C 0,2 °C 9,7 km/h (2 Bft)
23.01.2018 05:02 1,8 °C 93 % 1023,1 hPa 0,0 mm 3,4 km/h (1 Bft) W-NW 290 ° 0 min 0,000 mm 0,0 UV-I 0 W/m² 0,8 °C 1,8 °C 6,4 km/h (2 Bft)
23.01.2018 05:03 1,8 °C 93 % 1023,1 hPa 0,0 mm 1,5 km/h (1 Bft) W-NW 290 ° 0 min 0,000 mm 0,0 UV-I 0 W/m² 0,8 °C 1,8 °C 1,6 km/h (1 Bft)
23.01.2018 05:04 1,8 °C 93 % 1023,1 hPa 0,0 mm 0,0 km/h (0 Bft) W-NW 290 ° 0 min 0,000 mm 0,0 UV-I 0 W/m² 0,8 °C 1,8 °C 0,0 km/h (0 Bft)
23.01.2018 05:05 1,8 °C 93 % 1023,1 hPa 0,0 mm 2,7 km/h (1 Bft) W-NW 290 ° 0 min 0,000 mm 0,0 UV-I 0 W/m² 0,8 °C 1,8 °C 4,8 km/h (1 Bft)
23.01.2018 05:06 1,8 °C 93 % 1023,2 hPa 0,2 mm 1,2 km/h (1 Bft) W-NW 290 ° 0 min 0,000 mm 0,0 UV-I 0 W/m² 0,8 °C 1,8 °C 1,6 km/h (1 Bft)
23.01.2018 05:07 1,8 °C 93 % 1023,2 hPa 0,0 mm 1,3 km/h (1 Bft) W-NW 290 ° 0 min 0,000 mm 0,0 UV-I 0 W/m² 0,8 °C 1,8 °C 3,2 km/h (1 Bft)
23.01.2018 05:08 1,8 °C 93 % 1023,3 hPa 0,0 mm 1,3 km/h (1 Bft) W-NW 290 ° 0 min 0,000 mm 0,0 UV-I 0 W/m² 0,8 °C 1,8 °C 3,2 km/h (1 Bft)
23.01.2018 05:09 1,7 °C 93 % 1023,2 hPa 0,0 mm 1,9 km/h (1 Bft) W-NW 292 ° 0 min 0,000 mm 0,0 UV-I 0 W/m² 0,7 °C 1,7 °C 4,8 km/h (1 Bft)
23.01.2018 05:10 1,7 °C 93 % 1023,3 hPa 0,0 mm 0,9 km/h (0 Bft) W-NW 291 ° 0 min 0,000 mm 0,0 UV-I 0 W/m² 0,7 °C 1,7 °C 3,2 km/h (1 Bft)
23.01.2018 05:11 1,7 °C 93 % 1023,3 hPa 0,0 mm 1,2 km/h (1 Bft) W-NW 291 ° 0 min 0,000 mm 0,0 UV-I 0 W/m² 0,7 °C 1,7 °C 3,2 km/h (1 Bft)
23.01.2018 05:12 1,7 °C 93 % 1023,3 hPa 0,0 mm 0,0 km/h (0 Bft) W-NW 291 ° 0 min 0,000 mm 0,0 UV-I 0 W/m² 0,7 °C 1,7 °C 0,0 km/h (0 Bft)
23.01.2018 05:13 1,7 °C 93 % 1023,3 hPa 0,0 mm 0,0 km/h (0 Bft) W-NW 292 ° 0 min 0,000 mm 0,0 UV-I 0 W/m² 0,7 °C 1,7 °C 0,0 km/h (0 Bft)
23.01.2018 05:14 1,7 °C 93 % 1023,3 hPa 0,0 mm 0,6 km/h (0 Bft) W-NW 292 ° 0 min 0,000 mm 0,0 UV-I 0 W/m² 0,7 °C 1,7 °C 1,6 km/h (1 Bft)
23.01.2018 05:15 1,7 °C 93 % 1023,3 hPa 0,0 mm 0,8 km/h (0 Bft) W-NW 291 ° 0 min 0,000 mm 0,0 UV-I 0 W/m² 0,7 °C 1,7 °C 3,2 km/h (1 Bft)
23.01.2018 05:16 1,7 °C 93 % 1023,3 hPa 0,0 mm 0,1 km/h (0 Bft) W-NW 292 ° 0 min 0,000 mm 0,0 UV-I 0 W/m² 0,7 °C 1,7 °C 1,6 km/h (1 Bft)
23.01.2018 05:17 1,7 °C 93 % 1023,2 hPa 0,0 mm 0,0 km/h (0 Bft) W-NW 292 ° 0 min 0,000 mm 0,0 UV-I 0 W/m² 0,7 °C 1,7 °C 0,0 km/h (0 Bft)
23.01.2018 05:18 1,7 °C 93 % 1023,3 hPa 0,0 mm 0,0 km/h (0 Bft) W-NW 292 ° 0 min 0,000 mm 0,0 UV-I 0 W/m² 0,7 °C 1,7 °C 0,0 km/h (0 Bft)
23.01.2018 05:19 1,7 °C 93 % 1023,2 hPa 0,0 mm 0,0 km/h (0 Bft) W-NW 292 ° 0 min 0,000 mm 0,0 UV-I 0 W/m² 0,7 °C 1,7 °C 0,0 km/h (0 Bft)
23.01.2018 05:20 1,6 °C 93 % 1023,2 hPa 0,0 mm 0,0 km/h (0 Bft) W-NW 291 ° 0 min 0,000 mm 0,0 UV-I 0 W/m² 0,6 °C 1,6 °C 0,0 km/h (0 Bft)
23.01.2018 05:21 1,6 °C 93 % 1023,1 hPa 0,0 mm 0,0 km/h (0 Bft) W-NW 292 ° 0 min 0,000 mm 0,0 UV-I 0 W/m² 0,6 °C 1,6 °C 0,0 km/h (0 Bft)
23.01.2018 05:22 1,7 °C 93 % 1023,1 hPa 0,0 mm 0,0 km/h (0 Bft) W-NW 292 ° 0 min 0,000 mm 0,0 UV-I 0 W/m² 0,7 °C 1,7 °C 0,0 km/h (0 Bft)
23.01.2018 05:23 1,6 °C 93 % 1023,2 hPa 0,0 mm 0,0 km/h (0 Bft) W-NW 292 ° 0 min 0,000 mm 0,0 UV-I 0 W/m² 0,6 °C 1,6 °C 0,0 km/h (0 Bft)
23.01.2018 05:24 1,6 °C 93 % 1023,2 hPa 0,2 mm 0,0 km/h (0 Bft) W-NW 292 ° 0 min 0,000 mm 0,0 UV-I 0 W/m² 0,6 °C 1,6 °C 0,0 km/h (0 Bft)
23.01.2018 05:25 1,6 °C 93 % 1023,1 hPa 0,0 mm 0,0 km/h (0 Bft) W-NW 291 ° 0 min 0,000 mm 0,0 UV-I 0 W/m² 0,6 °C 1,6 °C 0,0 km/h (0 Bft)
23.01.2018 05:26 1,6 °C 93 % 1023,1 hPa 0,0 mm 0,8 km/h (0 Bft) W-SW 243 ° 0 min 0,000 mm 0,0 UV-I 0 W/m² 0,6 °C 1,6 °C 3,2 km/h (1 Bft)
23.01.2018 05:27 1,6 °C 93 % 1023,1 hPa 0,0 mm 0,9 km/h (0 Bft) W-SW 243 ° 0 min 0,000 mm 0,0 UV-I 0 W/m² 0,6 °C 1,6 °C 3,2 km/h (1 Bft)
23.01.2018 05:28 1,6 °C 93 % 1023,1 hPa 0,0 mm 0,6 km/h (0 Bft) W-SW 243 ° 0 min 0,000 mm 0,0 UV-I 0 W/m² 0,6 °C 1,6 °C 1,6 km/h (1 Bft)
23.01.2018 05:29 1,6 °C 93 % 1023,1 hPa 0,0 mm 2,7 km/h (1 Bft) W-SW 243 ° 0 min 0,000 mm 0,0 UV-I 0 W/m² 0,6 °C 1,6 °C 4,8 km/h (1 Bft)
23.01.2018 05:30 1,6 °C 93 % 1023,1 hPa 0,0 mm 0,6 km/h (0 Bft) W-SW 243 ° 0 min 0,000 mm 0,0 UV-I 0 W/m² 0,6 °C 1,6 °C 3,2 km/h (1 Bft)
23.01.2018 05:31 1,6 °C 93 % 1023,1 hPa 0,0 mm 2,3 km/h (1 Bft) W-SW 243 ° 0 min 0,000 mm 0,0 UV-I 0 W/m² 0,6 °C 1,6 °C 3,2 km/h (1 Bft)
23.01.2018 05:32 1,6 °C 93 % 1023,1 hPa 0,0 mm 4,2 km/h (1 Bft) W-SW 248 ° 0 min 0,000 mm 0,0 UV-I 0 W/m² 0,6 °C 1,6 °C 8,0 km/h (2 Bft)
23.01.2018 05:33 1,6 °C 93 % 1023,1 hPa 0,0 mm 3,8 km/h (1 Bft) SW 234 ° 0 min 0,000 mm 0,0 UV-I 0 W/m² 0,6 °C 1,6 °C 4,8 km/h (1 Bft)
23.01.2018 05:34 1,5 °C 93 % 1023,1 hPa 0,0 mm 4,1 km/h (1 Bft) W-SW 249 ° 0 min 0,000 mm 0,0 UV-I 0 W/m² 0,5 °C 1,5 °C 6,4 km/h (2 Bft)
23.01.2018 05:35 1,5 °C 94 % 1023,1 hPa 0,0 mm 5,6 km/h (1 Bft) SW 234 ° 0 min 0,000 mm 0,0 UV-I 0 W/m² 0,6 °C -0,1 °C 16,1 km/h (3 Bft)
23.01.2018 05:36 1,6 °C 94 % 1023,0 hPa 0,0 mm 3,5 km/h (1 Bft) SW 226 ° 0 min 0,000 mm 0,0 UV-I 0 W/m² 0,7 °C 1,6 °C 8,0 km/h (2 Bft)
23.01.2018 05:37 1,5 °C 94 % 1023,0 hPa 0,0 mm 4,8 km/h (1 Bft) W-SW 248 ° 0 min 0,000 mm 0,0 UV-I 0 W/m² 0,6 °C 0,2 °C 6,4 km/h (2 Bft)
23.01.2018 05:38 1,5 °C 94 % 1023,0 hPa 0,0 mm 3,9 km/h (1 Bft) W 262 ° 0 min 0,000 mm 0,0 UV-I 0 W/m² 0,6 °C 1,5 °C 8,0 km/h (2 Bft)
23.01.2018 05:39 1,5 °C 94 % 1023,0 hPa 0,2 mm 5,5 km/h (1 Bft) W 261 ° 0 min 0,000 mm 0,0 UV-I 0 W/m² 0,6 °C -0,1 °C 8,0 km/h (2 Bft)
23.01.2018 05:40 1,5 °C 94 % 1023,0 hPa 0,0 mm 5,5 km/h (1 Bft) SW 225 ° 0 min 0,000 mm 0,0 UV-I 0 W/m² 0,6 °C -0,1 °C 11,3 km/h (2 Bft)
23.01.2018 05:41 1,5 °C 94 % 1023,1 hPa 0,0 mm 5,2 km/h (1 Bft) W-SW 258 ° 0 min 0,000 mm 0,0 UV-I 0 W/m² 0,6 °C 0,0 °C 9,7 km/h (2 Bft)
23.01.2018 05:42 1,5 °C 94 % 1023,2 hPa 0,0 mm 6,0 km/h (2 Bft) W-SW 243 ° 0 min 0,000 mm 0,0 UV-I 0 W/m² 0,6 °C -0,3 °C 9,7 km/h (2 Bft)
23.01.2018 05:43 1,5 °C 94 % 1023,2 hPa 0,0 mm 6,5 km/h (2 Bft) W 260 ° 0 min 0,000 mm 0,0 UV-I 0 W/m² 0,6 °C -0,5 °C 11,3 km/h (2 Bft)
23.01.2018 05:44 1,5 °C 94 % 1023,2 hPa 0,0 mm 3,1 km/h (1 Bft) W-SW 238 ° 0 min 0,000 mm 0,0 UV-I 0 W/m² 0,6 °C 1,5 °C 4,8 km/h (1 Bft)
23.01.2018 05:45 1,4 °C 94 % 1023,3 hPa 0,0 mm 4,6 km/h (1 Bft) SW 224 ° 0 min 0,000 mm 0,0 UV-I 0 W/m² 0,5 °C 0,2 °C 8,0 km/h (2 Bft)
23.01.2018 05:46 1,5 °C 94 % 1023,3 hPa 0,0 mm 8,2 km/h (2 Bft) W-SW 246 ° 0 min 0,000 mm 0,0 UV-I 0 W/m² 0,6 °C -1,0 °C 12,9 km/h (3 Bft)
23.01.2018 05:47 1,5 °C 94 % 1023,3 hPa 0,0 mm 5,5 km/h (1 Bft) W-SW 254 ° 0 min 0,000 mm 0,0 UV-I 0 W/m² 0,6 °C -0,1 °C 8,0 km/h (2 Bft)
23.01.2018 05:48 1,4 °C 93 % 1023,3 hPa 0,0 mm 4,7 km/h (1 Bft) W-SW 247 ° 0 min 0,000 mm 0,0 UV-I 0 W/m² 0,4 °C 0,1 °C 8,0 km/h (2 Bft)
23.01.2018 05:49 1,5 °C 94 % 1023,3 hPa 0,0 mm 5,2 km/h (1 Bft) W-SW 240 ° 0 min 0,000 mm 0,0 UV-I 0 W/m² 0,6 °C 0,0 °C 9,7 km/h (2 Bft)
23.01.2018 05:50 1,5 °C 93 % 1023,4 hPa 0,0 mm 5,2 km/h (1 Bft) SW 225 ° 0 min 0,000 mm 0,0 UV-I 0 W/m² 0,5 °C 0,0 °C 8,0 km/h (2 Bft)
23.01.2018 05:51 1,5 °C 93 % 1023,4 hPa 0,0 mm 8,2 km/h (2 Bft) S-SW 209 ° 0 min 0,000 mm 0,0 UV-I 0 W/m² 0,5 °C -1,0 °C 11,3 km/h (2 Bft)
23.01.2018 05:52 1,5 °C 93 % 1023,3 hPa 0,0 mm 7,6 km/h (2 Bft) W-SW 245 ° 0 min 0,000 mm 0,0 UV-I 0 W/m² 0,5 °C -0,9 °C 9,7 km/h (2 Bft)
23.01.2018 05:53 1,4 °C 93 % 1023,4 hPa 0,0 mm 8,9 km/h (2 Bft) W-SW 251 ° 0 min 0,000 mm 0,0 UV-I 0 W/m² 0,4 °C -1,4 °C 14,5 km/h (3 Bft)
23.01.2018 05:54 1,6 °C 93 % 1023,3 hPa 0,0 mm 9,7 km/h (2 Bft) S-SW 197 ° 0 min 0,000 mm 0,0 UV-I 0 W/m² 0,6 °C -1,3 °C 14,5 km/h (3 Bft)
23.01.2018 05:55 1,5 °C 93 % 1023,4 hPa 0,0 mm 9,5 km/h (2 Bft) W-SW 246 ° 0 min 0,000 mm 0,0 UV-I 0 W/m² 0,5 °C -1,4 °C 16,1 km/h (3 Bft)
23.01.2018 05:56 1,5 °C 93 % 1023,4 hPa 0,0 mm 5,0 km/h (1 Bft) W-SW 254 ° 0 min 0,000 mm 0,0 UV-I 0 W/m² 0,5 °C 0,1 °C 8,0 km/h (2 Bft)
23.01.2018 05:57 1,5 °C 93 % 1023,3 hPa 0,0 mm 5,5 km/h (1 Bft) W 277 ° 0 min 0,000 mm 0,0 UV-I 0 W/m² 0,5 °C -0,1 °C 11,3 km/h (2 Bft)
23.01.2018 05:58 1,6 °C 93 % 1023,4 hPa 0,0 mm 8,0 km/h (2 Bft) W 275 ° 0 min 0,000 mm 0,0 UV-I 0 W/m² 0,6 °C -0,9 °C 12,9 km/h (3 Bft)
23.01.2018 05:59 1,6 °C 93 % 1023,3 hPa 0,0 mm 3,1 km/h (1 Bft) SW 231 ° 0 min 0,000 mm 0,0 UV-I 0 W/m² 0,6 °C 1,6 °C 4,8 km/h (1 Bft)
23.01.2018 06:00 1,6 °C 94 % 1023,4 hPa 0,0 mm 5,0 km/h (1 Bft) W 262 ° 0 min 0,000 mm 0,0 UV-I 0 W/m² 0,7 °C 0,2 °C 6,4 km/h (2 Bft)
23.01.2018 06:01 1,6 °C 93 % 1023,4 hPa 0,0 mm 8,0 km/h (2 Bft) W 265 ° 0 min 0,000 mm 0,0 UV-I 0 W/m² 0,6 °C -0,9 °C 12,9 km/h (3 Bft)
23.01.2018 06:02 1,5 °C 93 % 1023,4 hPa 0,0 mm 4,2 km/h (1 Bft) W-SW 251 ° 0 min 0,000 mm 0,0 UV-I 0 W/m² 0,5 °C 1,5 °C 8,0 km/h (2 Bft)
23.01.2018 06:03 1,5 °C 94 % 1023,4 hPa 0,0 mm 3,5 km/h (1 Bft) S-SW 209 ° 0 min 0,000 mm 0,0 UV-I 0 W/m² 0,6 °C 1,5 °C 8,0 km/h (2 Bft)
23.01.2018 06:04 1,5 °C 94 % 1023,4 hPa 0,0 mm 5,0 km/h (1 Bft) W-SW 250 ° 0 min 0,000 mm 0,0 UV-I 0 W/m² 0,6 °C 0,1 °C 9,7 km/h (2 Bft)
23.01.2018 06:05 1,5 °C 94 % 1023,4 hPa 0,0 mm 4,2 km/h (1 Bft) SW 234 ° 0 min 0,000 mm 0,0 UV-I 0 W/m² 0,6 °C 1,5 °C 6,4 km/h (2 Bft)
23.01.2018 06:06 1,6 °C 94 % 1023,5 hPa 0,0 mm 4,9 km/h (1 Bft) SW 226 ° 0 min 0,000 mm 0,0 UV-I 0 W/m² 0,7 °C 0,3 °C 8,0 km/h (2 Bft)
23.01.2018 06:07 1,5 °C 94 % 1023,4 hPa 0,0 mm 3,0 km/h (1 Bft) SW 221 ° 0 min 0,000 mm 0,0 UV-I 0 W/m² 0,6 °C 1,5 °C 6,4 km/h (2 Bft)
23.01.2018 06:08 1,6 °C 93 % 1023,4 hPa 0,0 mm 6,1 km/h (2 Bft) SW 235 ° 0 min 0,000 mm 0,0 UV-I 0 W/m² 0,6 °C -0,2 °C 11,3 km/h (2 Bft)
23.01.2018 06:09 1,5 °C 94 % 1023,4 hPa 0,0 mm 7,2 km/h (2 Bft) W 273 ° 0 min 0,000 mm 0,0 UV-I 0 W/m² 0,6 °C -0,7 °C 12,9 km/h (3 Bft)
23.01.2018 06:10 1,6 °C 94 % 1023,5 hPa 0,0 mm 4,8 km/h (1 Bft) S-SW 212 ° 0 min 0,000 mm 0,0 UV-I 0 W/m² 0,7 °C 0,3 °C 6,4 km/h (2 Bft)
23.01.2018 06:11 1,6 °C 94 % 1023,5 hPa 0,0 mm 4,7 km/h (1 Bft) S-SW 205 ° 0 min 0,000 mm 0,0 UV-I 0 W/m² 0,7 °C 0,4 °C 8,0 km/h (2 Bft)
23.01.2018 06:12 1,6 °C 94 % 1023,5 hPa 0,0 mm 8,3 km/h (2 Bft) W-SW 246 ° 0 min 0,000 mm 0,0 UV-I 0 W/m² 0,7 °C -0,9 °C 16,1 km/h (3 Bft)
23.01.2018 06:13 1,6 °C 94 % 1023,4 hPa 0,0 mm 10,0 km/h (2 Bft) W-SW 240 ° 0 min 0,000 mm 0,0 UV-I 0 W/m² 0,7 °C -1,4 °C 16,1 km/h (3 Bft)
23.01.2018 06:14 1,6 °C 94 % 1023,4 hPa 0,0 mm 7,8 km/h (2 Bft) W 275 ° 0 min 0,000 mm 0,0 UV-I 0 W/m² 0,7 °C -0,8 °C 12,9 km/h (3 Bft)
23.01.2018 06:15 1,6 °C 94 % 1023,4 hPa 0,0 mm 7,2 km/h (2 Bft) W-SW 250 ° 0 min 0,000 mm 0,0 UV-I 0 W/m² 0,7 °C -0,6 °C 11,3 km/h (2 Bft)
23.01.2018 06:16 1,6 °C 94 % 1023,6 hPa 0,0 mm 8,1 km/h (2 Bft) W 260 ° 0 min 0,000 mm 0,0 UV-I 0 W/m² 0,7 °C -0,9 °C 11,3 km/h (2 Bft)
23.01.2018 06:17 1,6 °C 94 % 1023,6 hPa 0,0 mm 7,8 km/h (2 Bft) W-SW 242 ° 0 min 0,000 mm 0,0 UV-I 0 W/m² 0,7 °C -0,8 °C 9,7 km/h (2 Bft)
23.01.2018 06:18 1,6 °C 93 % 1023,6 hPa 0,0 mm 6,4 km/h (2 Bft) W-SW 248 ° 0 min 0,000 mm 0,0 UV-I 0 W/m² 0,6 °C -0,3 °C 9,7 km/h (2 Bft)
23.01.2018 06:19 1,6 °C 93 % 1023,6 hPa 0,0 mm 6,1 km/h (2 Bft) SW 227 ° 0 min 0,000 mm 0,0 UV-I 0 W/m² 0,6 °C -0,2 °C 9,7 km/h (2 Bft)
23.01.2018 06:20 1,6 °C 93 % 1023,6 hPa 0,0 mm 9,2 km/h (2 Bft) W-SW 240 ° 0 min 0,000 mm 0,0 UV-I 0 W/m² 0,6 °C -1,2 °C 14,5 km/h (3 Bft)
23.01.2018 06:21 1,6 °C 93 % 1023,6 hPa 0,0 mm 6,1 km/h (2 Bft) W 263 ° 0 min 0,000 mm 0,0 UV-I 0 W/m² 0,6 °C -0,2 °C 11,3 km/h (2 Bft)
23.01.2018 06:22 1,6 °C 93 % 1023,6 hPa 0,0 mm 5,4 km/h (1 Bft) S-SW 210 ° 0 min 0,000 mm 0,0 UV-I 0 W/m² 0,6 °C 0,1 °C 11,3 km/h (2 Bft)
23.01.2018 06:23 1,6 °C 93 % 1023,7 hPa 0,0 mm 3,6 km/h (1 Bft) S-SW 201 ° 0 min 0,000 mm 0,0 UV-I 0 W/m² 0,6 °C 1,6 °C 6,4 km/h (2 Bft)
23.01.2018 06:24 1,6 °C 93 % 1023,7 hPa 0,0 mm 3,7 km/h (1 Bft) W 261 ° 0 min 0,000 mm 0,0 UV-I 0 W/m² 0,6 °C 1,6 °C 6,4 km/h (2 Bft)
23.01.2018 06:25 1,6 °C 93 % 1023,7 hPa 0,2 mm 5,4 km/h (1 Bft) W-SW 246 ° 0 min 0,000 mm 0,0 UV-I 0 W/m² 0,6 °C 0,1 °C 8,0 km/h (2 Bft)
23.01.2018 06:26 1,6 °C 93 % 1023,7 hPa 0,0 mm 4,9 km/h (1 Bft) SW 230 ° 0 min 0,000 mm 0,0 UV-I 0 W/m² 0,6 °C 0,3 °C 8,0 km/h (2 Bft)
23.01.2018 06:27 1,6 °C 93 % 1023,7 hPa 0,0 mm 7,7 km/h (2 Bft) W-NW 286 ° 0 min 0,000 mm 0,0 UV-I 0 W/m² 0,6 °C -0,8 °C 12,9 km/h (3 Bft)
23.01.2018 06:28 1,6 °C 93 % 1023,7 hPa 0,0 mm 5,1 km/h (1 Bft) SW 235 ° 0 min 0,000 mm 0,0 UV-I 0 W/m² 0,6 °C 0,2 °C 9,7 km/h (2 Bft)
23.01.2018 06:29 1,6 °C 93 % 1023,7 hPa 0,0 mm 6,4 km/h (2 Bft) W 272 ° 0 min 0,000 mm 0,0 UV-I 0 W/m² 0,6 °C -0,3 °C 12,9 km/h (3 Bft)
23.01.2018 06:30 1,6 °C 93 % 1023,8 hPa 0,0 mm 5,4 km/h (1 Bft) SW 219 ° 0 min 0,000 mm 0,0 UV-I 0 W/m² 0,6 °C 0,1 °C 8,0 km/h (2 Bft)
23.01.2018 06:31 1,7 °C 93 % 1023,8 hPa 0,0 mm 4,4 km/h (1 Bft) SW 226 ° 0 min 0,000 mm 0,0 UV-I 0 W/m² 0,7 °C 1,7 °C 6,4 km/h (2 Bft)
23.01.2018 06:32 1,6 °C 93 % 1023,8 hPa 0,0 mm 2,5 km/h (1 Bft) W-SW 247 ° 0 min 0,000 mm 0,0 UV-I 0 W/m² 0,6 °C 1,6 °C 4,8 km/h (1 Bft)
23.01.2018 06:33 1,6 °C 93 % 1023,8 hPa 0,0 mm 6,8 km/h (2 Bft) W-SW 241 ° 0 min 0,000 mm 0,0 UV-I 0 W/m² 0,6 °C -0,5 °C 12,9 km/h (3 Bft)
23.01.2018 06:34 1,6 °C 93 % 1023,8 hPa 0,0 mm 7,4 km/h (2 Bft) W 261 ° 0 min 0,000 mm 0,0 UV-I 0 W/m² 0,6 °C -0,7 °C 11,3 km/h (2 Bft)
23.01.2018 06:35 1,6 °C 93 % 1023,8 hPa 0,0 mm 4,9 km/h (1 Bft) SW 235 ° 0 min 0,000 mm 0,0 UV-I 0 W/m² 0,6 °C 0,3 °C 8,0 km/h (2 Bft)
23.01.2018 06:36 1,6 °C 93 % 1023,9 hPa 0,0 mm 7,1 km/h (2 Bft) W-NW 284 ° 0 min 0,000 mm 0,0 UV-I 0 W/m² 0,6 °C -0,6 °C 12,9 km/h (3 Bft)
23.01.2018 06:37 1,6 °C 93 % 1023,9 hPa 0,0 mm 9,7 km/h (2 Bft) W-SW 247 ° 0 min 0,000 mm 0,0 UV-I 0 W/m² 0,6 °C -1,3 °C 17,7 km/h (3 Bft)
23.01.2018 06:38 1,6 °C 93 % 1024,0 hPa 0,0 mm 8,6 km/h (2 Bft) W 261 ° 0 min 0,000 mm 0,0 UV-I 0 W/m² 0,6 °C -1,0 °C 14,5 km/h (3 Bft)
23.01.2018 06:39 1,6 °C 93 % 1024,0 hPa 0,0 mm 6,0 km/h (2 Bft) W-SW 248 ° 0 min 0,000 mm 0,0 UV-I 0 W/m² 0,6 °C -0,2 °C 11,3 km/h (2 Bft)
23.01.2018 06:40 1,6 °C 93 % 1024,0 hPa 0,2 mm 8,0 km/h (2 Bft) W-NW 283 ° 0 min 0,000 mm 0,0 UV-I 0 W/m² 0,6 °C -0,9 °C 12,9 km/h (3 Bft)
23.01.2018 06:41 1,6 °C 93 % 1024,0 hPa 0,0 mm 12,5 km/h (3 Bft) SW 236 ° 0 min 0,000 mm 0,0 UV-I 0 W/m² 0,6 °C -2,0 °C 17,7 km/h (3 Bft)
23.01.2018 06:42 1,6 °C 93 % 1024,1 hPa 0,0 mm 10,8 km/h (2 Bft) W-SW 237 ° 0 min 0,000 mm 0,0 UV-I 0 W/m² 0,6 °C -1,6 °C 16,1 km/h (3 Bft)
23.01.2018 06:43 1,6 °C 93 % 1024,1 hPa 0,0 mm 8,3 km/h (2 Bft) W-SW 250 ° 0 min 0,000 mm 0,0 UV-I 0 W/m² 0,6 °C -0,9 °C 11,3 km/h (2 Bft)
23.01.2018 06:44 1,6 °C 93 % 1024,1 hPa 0,0 mm 5,6 km/h (1 Bft) W-SW 256 ° 0 min 0,000 mm 0,0 UV-I 0 W/m² 0,6 °C -0,0 °C 11,3 km/h (2 Bft)
23.01.2018 06:45 1,6 °C 93 % 1024,1 hPa 0,0 mm 8,9 km/h (2 Bft) W 263 ° 0 min 0,000 mm 0,0 UV-I 0 W/m² 0,6 °C -1,1 °C 12,9 km/h (3 Bft)
23.01.2018 06:46 1,6 °C 93 % 1024,1 hPa 0,0 mm 5,2 km/h (1 Bft) W-SW 240 ° 0 min 0,000 mm 0,0 UV-I 0 W/m² 0,6 °C 0,1 °C 8,0 km/h (2 Bft)
23.01.2018 06:47 1,6 °C 93 % 1024,1 hPa 0,0 mm 9,5 km/h (2 Bft) W-SW 242 ° 0 min 0,000 mm 0,0 UV-I 0 W/m² 0,6 °C -1,3 °C 16,1 km/h (3 Bft)
23.01.2018 06:48 1,6 °C 93 % 1024,1 hPa 0,0 mm 7,7 km/h (2 Bft) W-SW 253 ° 0 min 0,000 mm 0,0 UV-I 0 W/m² 0,6 °C -0,8 °C 12,9 km/h (3 Bft)
23.01.2018 06:49 1,6 °C 93 % 1024,2 hPa 0,0 mm 4,6 km/h (1 Bft) W-SW 257 ° 0 min 0,000 mm 0,0 UV-I 0 W/m² 0,6 °C 0,4 °C 11,3 km/h (2 Bft)
23.01.2018 06:50 1,5 °C 93 % 1024,2 hPa 0,0 mm 8,1 km/h (2 Bft) SW 226 ° 0 min 0,000 mm 0,0 UV-I 0 W/m² 0,5 °C -1,0 °C 12,9 km/h (3 Bft)
23.01.2018 06:51 1,5 °C 93 % 1024,2 hPa 0,0 mm 5,3 km/h (1 Bft) W 261 ° 0 min 0,000 mm 0,0 UV-I 0 W/m² 0,5 °C -0,0 °C 12,9 km/h (3 Bft)
23.01.2018 06:52 1,4 °C 93 % 1024,2 hPa 0,0 mm 8,4 km/h (2 Bft) W-SW 258 ° 0 min 0,000 mm 0,0 UV-I 0 W/m² 0,4 °C -1,2 °C 12,9 km/h (3 Bft)
23.01.2018 06:53 1,5 °C 93 % 1024,2 hPa 0,0 mm 8,9 km/h (2 Bft) W 269 ° 0 min 0,000 mm 0,0 UV-I 0 W/m² 0,5 °C -1,2 °C 12,9 km/h (3 Bft)
23.01.2018 06:54 1,5 °C 93 % 1024,3 hPa 0,0 mm 5,8 km/h (2 Bft) W-SW 245 ° 0 min 0,000 mm 0,0 UV-I 0 W/m² 0,5 °C -0,2 °C 12,9 km/h (3 Bft)
23.01.2018 06:55 1,4 °C 93 % 1024,3 hPa 0,0 mm 7,6 km/h (2 Bft) W-SW 246 ° 0 min 0,000 mm 0,0 UV-I 0 W/m² 0,4 °C -1,0 °C 12,9 km/h (3 Bft)
23.01.2018 06:56 1,4 °C 93 % 1024,3 hPa 0,0 mm 11,0 km/h (2 Bft) W 266 ° 0 min 0,000 mm 0,0 UV-I 0 W/m² 0,4 °C -1,9 °C 14,5 km/h (3 Bft)
23.01.2018 06:57 1,4 °C 93 % 1024,4 hPa 0,0 mm 8,9 km/h (2 Bft) W-SW 257 ° 0 min 0,000 mm 0,0 UV-I 0 W/m² 0,4 °C -1,4 °C 12,9 km/h (3 Bft)
23.01.2018 06:58 1,4 °C 93 % 1024,4 hPa 0,0 mm 8,3 km/h (2 Bft) W 259 ° 0 min 0,000 mm 0,0 UV-I 0 W/m² 0,4 °C -1,2 °C 16,1 km/h (3 Bft)
23.01.2018 06:59 1,4 °C 93 % 1024,4 hPa 0,2 mm 9,2 km/h (2 Bft) W 270 ° 0 min 0,000 mm 0,0 UV-I 0 W/m² 0,4 °C -1,4 °C 14,5 km/h (3 Bft)
23.01.2018 07:00 1,4 °C 93 % 1024,4 hPa 0,0 mm 6,2 km/h (2 Bft) W-SW 246 ° 0 min 0,000 mm 0,0 UV-I 0 W/m² 0,4 °C -0,5 °C 9,7 km/h (2 Bft)
23.01.2018 07:01 1,4 °C 93 % 1024,4 hPa 0,0 mm 5,3 km/h (1 Bft) W 269 ° 0 min 0,000 mm 0,0 UV-I 0 W/m² 0,4 °C -0,1 °C 6,4 km/h (2 Bft)
23.01.2018 07:02 1,4 °C 93 % 1024,4 hPa 0,0 mm 8,6 km/h (2 Bft) W-SW 251 ° 0 min 0,000 mm 0,0 UV-I 0 W/m² 0,4 °C -1,3 °C 11,3 km/h (2 Bft)
23.01.2018 07:03 1,4 °C 93 % 1024,4 hPa 0,0 mm 5,4 km/h (1 Bft) W-SW 247 ° 0 min 0,000 mm 0,0 UV-I 0 W/m² 0,4 °C -0,2 °C 6,4 km/h (2 Bft)
23.01.2018 07:04 1,4 °C 93 % 1024,4 hPa 0,0 mm 8,0 km/h (2 Bft) W-SW 246 ° 0 min 0,000 mm 0,0 UV-I 0 W/m² 0,4 °C -1,1 °C 11,3 km/h (2 Bft)
23.01.2018 07:05 1,4 °C 93 % 1024,4 hPa 0,0 mm 6,0 km/h (2 Bft) W-SW 256 ° 0 min 0,000 mm 0,0 UV-I 0 W/m² 0,4 °C -0,4 °C 8,0 km/h (2 Bft)
23.01.2018 07:06 1,4 °C 93 % 1024,4 hPa 0,0 mm 6,2 km/h (2 Bft) SW 236 ° 0 min 0,000 mm 0,0 UV-I 0 W/m² 0,4 °C -0,5 °C 9,7 km/h (2 Bft)
23.01.2018 07:07 1,4 °C 93 % 1024,4 hPa 0,0 mm 7,2 km/h (2 Bft) W 263 ° 0 min 0,000 mm 0,0 UV-I 0 W/m² 0,4 °C -0,8 °C 11,3 km/h (2 Bft)
23.01.2018 07:08 1,4 °C 93 % 1024,5 hPa 0,0 mm 7,0 km/h (2 Bft) W 281 ° 0 min 0,000 mm 0,0 UV-I 0 W/m² 0,4 °C -0,8 °C 11,3 km/h (2 Bft)
23.01.2018 07:09 1,4 °C 93 % 1024,5 hPa 0,0 mm 7,8 km/h (2 Bft) W-SW 255 ° 0 min 0,000 mm 0,0 UV-I 0 W/m² 0,4 °C -1,0 °C 11,3 km/h (2 Bft)
23.01.2018 07:10 1,4 °C 93 % 1024,6 hPa 0,0 mm 8,3 km/h (2 Bft) W-SW 253 ° 0 min 0,000 mm 0,0 UV-I 0 W/m² 0,4 °C -1,2 °C 12,9 km/h (3 Bft)
23.01.2018 07:11 1,4 °C 93 % 1024,6 hPa 0,0 mm 8,2 km/h (2 Bft) W 262 ° 0 min 0,000 mm 0,0 UV-I 0 W/m² 0,4 °C -1,2 °C 14,5 km/h (3 Bft)
23.01.2018 07:12 1,4 °C 93 % 1024,6 hPa 0,0 mm 5,5 km/h (1 Bft) W-SW 250 ° 0 min 0,000 mm 0,0 UV-I 0 W/m² 0,4 °C -0,2 °C 9,7 km/h (2 Bft)
23.01.2018 07:13 1,4 °C 93 % 1024,6 hPa 0,0 mm 6,4 km/h (2 Bft) W-SW 248 ° 0 min 0,000 mm 0,0 UV-I 0 W/m² 0,4 °C -0,6 °C 9,7 km/h (2 Bft)
23.01.2018 07:14 1,4 °C 93 % 1024,6 hPa 0,0 mm 7,0 km/h (2 Bft) W 265 ° 0 min 0,000 mm 0,0 UV-I 0 W/m² 0,4 °C -0,8 °C 12,9 km/h (3 Bft)
23.01.2018 07:15 1,4 °C 93 % 1024,5 hPa 0,0 mm 9,9 km/h (2 Bft) W 260 ° 0 min 0,000 mm 0,0 UV-I 0 W/m² 0,4 °C -1,6 °C 14,5 km/h (3 Bft)
23.01.2018 07:16 1,4 °C 93 % 1024,6 hPa 0,0 mm 5,8 km/h (2 Bft) SW 236 ° 0 min 0,000 mm 0,0 UV-I 0 W/m² 0,4 °C -0,3 °C 8,0 km/h (2 Bft)
23.01.2018 07:17 1,4 °C 93 % 1024,5 hPa 0,0 mm 3,7 km/h (1 Bft) SW 230 ° 0 min 0,000 mm 0,0 UV-I 0 W/m² 0,4 °C 1,4 °C 6,4 km/h (2 Bft)
23.01.2018 07:18 1,4 °C 93 % 1024,6 hPa 0,0 mm 4,2 km/h (1 Bft) W-SW 248 ° 0 min 0,000 mm 0,0 UV-I 0 W/m² 0,4 °C 1,4 °C 6,4 km/h (2 Bft)
23.01.2018 07:19 1,3 °C 93 % 1024,6 hPa 0,0 mm 8,0 km/h (2 Bft) SW 235 ° 0 min 0,000 mm 0,0 UV-I 0 W/m² 0,3 °C -1,2 °C 12,9 km/h (3 Bft)
23.01.2018 07:20 1,4 °C 93 % 1024,5 hPa 0,0 mm 7,2 km/h (2 Bft) W-SW 251 ° 0 min 0,000 mm 0,0 UV-I 0 W/m² 0,4 °C -0,8 °C 12,9 km/h (3 Bft)
23.01.2018 07:21 1,3 °C 93 % 1024,5 hPa 0,0 mm 5,4 km/h (1 Bft) W-SW 246 ° 0 min 0,000 mm 0,0 UV-I 0 W/m² 0,3 °C -0,3 °C 8,0 km/h (2 Bft)
23.01.2018 07:22 1,3 °C 93 % 1024,5 hPa 0,0 mm 3,8 km/h (1 Bft) W-SW 253 ° 0 min 0,000 mm 0,0 UV-I 0 W/m² 0,3 °C 1,3 °C 8,0 km/h (2 Bft)
23.01.2018 07:23 1,3 °C 93 % 1024,5 hPa 0,0 mm 9,6 km/h (2 Bft) S 171 ° 0 min 0,000 mm 0,0 UV-I 0 W/m² 0,3 °C -1,7 °C 16,1 km/h (3 Bft)
23.01.2018 07:24 1,3 °C 93 % 1024,5 hPa 0,0 mm 9,5 km/h (2 Bft) SW 227 ° 0 min 0,000 mm 0,0 UV-I 0 W/m² 0,3 °C -1,6 °C 12,9 km/h (3 Bft)
23.01.2018 07:25 1,3 °C 93 % 1024,5 hPa 0,0 mm 9,7 km/h (2 Bft) W 259 ° 0 min 0,000 mm 0,0 UV-I 0 W/m² 0,3 °C -1,7 °C 14,5 km/h (3 Bft)
23.01.2018 07:26 1,4 °C 93 % 1024,6 hPa 0,0 mm 9,9 km/h (2 Bft) SW 235 ° 0 min 0,000 mm 0,0 UV-I 0 W/m² 0,4 °C -1,6 °C 14,5 km/h (3 Bft)
23.01.2018 07:27 1,3 °C 93 % 1024,6 hPa 0,0 mm 8,0 km/h (2 Bft) W 269 ° 0 min 0,000 mm 0,0 UV-I 0 W/m² 0,3 °C -1,2 °C 11,3 km/h (2 Bft)
23.01.2018 07:28 1,3 °C 93 % 1024,6 hPa 0,0 mm 9,2 km/h (2 Bft) W-SW 256 ° 0 min 0,000 mm 0,0 UV-I 0 W/m² 0,3 °C -1,6 °C 14,5 km/h (3 Bft)
23.01.2018 07:29 1,3 °C 93 % 1024,7 hPa 0,0 mm 11,9 km/h (2 Bft) W 259 ° 0 min 0,000 mm 0,0 UV-I 0 W/m² 0,3 °C -2,2 °C 16,1 km/h (3 Bft)
23.01.2018 07:30 1,3 °C 93 % 1024,7 hPa 0,0 mm 10,0 km/h (2 Bft) W-SW 253 ° 0 min 0,000 mm 0,0 UV-I 0 W/m² 0,3 °C -1,8 °C 14,5 km/h (3 Bft)
23.01.2018 07:31 1,3 °C 93 % 1024,7 hPa 0,0 mm 10,8 km/h (2 Bft) W 279 ° 0 min 0,000 mm 0,0 UV-I 0 W/m² 0,3 °C -2,0 °C 16,1 km/h (3 Bft)
23.01.2018 07:32 1,3 °C 93 % 1024,8 hPa 0,0 mm 10,7 km/h (2 Bft) W 263 ° 0 min 0,000 mm 0,0 UV-I 0 W/m² 0,3 °C -1,9 °C 12,9 km/h (3 Bft)
23.01.2018 07:33 1,3 °C 93 % 1024,7 hPa 0,0 mm 5,4 km/h (1 Bft) SW 229 ° 0 min 0,000 mm 0,0 UV-I 0 W/m² 0,3 °C -0,3 °C 8,0 km/h (2 Bft)
23.01.2018 07:34 1,3 °C 93 % 1024,8 hPa 0,0 mm 9,7 km/h (2 Bft) W 263 ° 0 min 0,000 mm 0,0 UV-I 0 W/m² 0,3 °C -1,7 °C 14,5 km/h (3 Bft)
23.01.2018 07:35 1,3 °C 93 % 1024,8 hPa 0,0 mm 11,6 km/h (2 Bft) W 273 ° 0 min 0,000 mm 0,0 UV-I 0 W/m² 0,3 °C -2,1 °C 14,5 km/h (3 Bft)
23.01.2018 07:36 1,3 °C 93 % 1024,8 hPa 0,0 mm 10,4 km/h (2 Bft) W 264 ° 0 min 0,000 mm 0,0 UV-I 0 W/m² 0,3 °C -1,9 °C 16,1 km/h (3 Bft)
23.01.2018 07:37 1,3 °C 93 % 1024,8 hPa 0,0 mm 11,7 km/h (2 Bft) W 260 ° 0 min 0,000 mm 0,0 UV-I 0 W/m² 0,3 °C -2,2 °C 12,9 km/h (3 Bft)
23.01.2018 07:38 1,3 °C 93 % 1024,8 hPa 0,0 mm 7,6 km/h (2 Bft) W-SW 257 ° 0 min 0,000 mm 0,0 UV-I 0 W/m² 0,3 °C -1,1 °C 12,9 km/h (3 Bft)
23.01.2018 07:39 1,3 °C 93 % 1024,9 hPa 0,0 mm 9,9 km/h (2 Bft) W 262 ° 0 min 0,000 mm 0,0 UV-I 0 W/m² 0,3 °C -1,7 °C 12,9 km/h (3 Bft)
23.01.2018 07:40 1,3 °C 93 % 1024,9 hPa 0,0 mm 7,1 km/h (2 Bft) W-SW 239 ° 0 min 0,000 mm 0,0 UV-I 0 W/m² 0,3 °C -0,9 °C 11,3 km/h (2 Bft)
23.01.2018 07:41 1,3 °C 93 % 1024,9 hPa 0,2 mm 5,0 km/h (1 Bft) W-SW 251 ° 0 min 0,000 mm 0,0 UV-I 0 W/m² 0,3 °C -0,1 °C 6,4 km/h (2 Bft)
23.01.2018 07:42 1,3 °C 93 % 1024,9 hPa 0,0 mm 6,6 km/h (2 Bft) W-SW 238 ° 0 min 0,000 mm 0,0 UV-I 0 W/m² 0,3 °C -0,8 °C 11,3 km/h (2 Bft)
23.01.2018 07:43 1,3 °C 93 % 1024,9 hPa 0,0 mm 4,0 km/h (1 Bft) W 268 ° 0 min 0,000 mm 0,0 UV-I 0 W/m² 0,3 °C 1,3 °C 6,4 km/h (2 Bft)
23.01.2018 07:44 1,3 °C 93 % 1024,9 hPa 0,0 mm 4,9 km/h (1 Bft) W 263 ° 0 min 0,000 mm 0,0 UV-I 0 W/m² 0,3 °C -0,1 °C 11,3 km/h (2 Bft)
23.01.2018 07:45 1,3 °C 93 % 1024,9 hPa 0,0 mm 5,6 km/h (1 Bft) W 279 ° 0 min 0,000 mm 0,0 UV-I 0 W/m² 0,3 °C -0,4 °C 11,3 km/h (2 Bft)
23.01.2018 07:46 1,3 °C 93 % 1024,9 hPa 0,0 mm 4,6 km/h (1 Bft) W-SW 255 ° 0 min 0,000 mm 0,0 UV-I 0 W/m² 0,3 °C 0,1 °C 6,4 km/h (2 Bft)
23.01.2018 07:47 1,3 °C 93 % 1024,9 hPa 0,0 mm 3,7 km/h (1 Bft) W-SW 237 ° 0 min 0,000 mm 0,0 UV-I 0 W/m² 0,3 °C 1,3 °C 4,8 km/h (1 Bft)
23.01.2018 07:48 1,3 °C 93 % 1024,9 hPa 0,0 mm 5,5 km/h (1 Bft) W-SW 252 ° 0 min 0,000 mm 0,0 UV-I 0 W/m² 0,3 °C -0,3 °C 8,0 km/h (2 Bft)
23.01.2018 07:49 1,3 °C 93 % 1024,9 hPa 0,0 mm 8,3 km/h (2 Bft) W-SW 254 ° 0 min 0,000 mm 0,0 UV-I 0 W/m² 0,3 °C -1,3 °C 11,3 km/h (2 Bft)
23.01.2018 07:50 1,3 °C 93 % 1024,9 hPa 0,0 mm 8,2 km/h (2 Bft) W-SW 244 ° 0 min 0,000 mm 0,0 UV-I 0 W/m² 0,3 °C -1,3 °C 12,9 km/h (3 Bft)
23.01.2018 07:51 1,3 °C 93 % 1024,9 hPa 0,0 mm 6,9 km/h (2 Bft) W 265 ° 0 min 0,000 mm 0,0 UV-I 0 W/m² 0,3 °C -0,9 °C 12,9 km/h (3 Bft)
23.01.2018 07:52 1,3 °C 93 % 1025,0 hPa 0,0 mm 9,4 km/h (2 Bft) W-SW 257 ° 0 min 0,000 mm 0,0 UV-I 0 W/m² 0,3 °C -1,6 °C 14,5 km/h (3 Bft)
23.01.2018 07:53 1,3 °C 93 % 1025,0 hPa 0,0 mm 5,9 km/h (2 Bft) W 263 ° 0 min 0,000 mm 0,0 UV-I 0 W/m² 0,3 °C -0,5 °C 9,7 km/h (2 Bft)
23.01.2018 07:54 1,3 °C 93 % 1025,0 hPa 0,0 mm 6,8 km/h (2 Bft) W 260 ° 0 min 0,000 mm 0,0 UV-I 0 W/m² 0,3 °C -0,8 °C 11,3 km/h (2 Bft)
23.01.2018 07:55 1,3 °C 93 % 1025,1 hPa 0,0 mm 4,8 km/h (1 Bft) W 261 ° 0 min 0,000 mm 0,0 UV-I 0 W/m² 0,3 °C -0,0 °C 6,4 km/h (2 Bft)
23.01.2018 07:56 1,3 °C 93 % 1025,1 hPa 0,0 mm 7,5 km/h (2 Bft) W 259 ° 0 min 0,000 mm 0,0 UV-I 0 W/m² 0,3 °C -1,1 °C 11,3 km/h (2 Bft)
23.01.2018 07:57 1,3 °C 93 % 1025,1 hPa 0,0 mm 6,6 km/h (2 Bft) W-SW 237 ° 0 min 0,000 mm 0,0 UV-I 0 W/m² 0,3 °C -0,8 °C 11,3 km/h (2 Bft)
23.01.2018 07:58 1,3 °C 93 % 1025,1 hPa 0,0 mm 7,6 km/h (2 Bft) W 263 ° 0 min 0,000 mm 0,0 UV-I 0 W/m² 0,3 °C -1,1 °C 11,3 km/h (2 Bft)
23.01.2018 07:59 1,3 °C 93 % 1025,2 hPa 0,0 mm 5,4 km/h (1 Bft) W 263 ° 0 min 0,000 mm 0,0 UV-I 0 W/m² 0,3 °C -0,3 °C 9,7 km/h (2 Bft)
23.01.2018 08:00 1,3 °C 93 % 1025,2 hPa 0,0 mm 5,6 km/h (1 Bft) W-SW 257 ° 0 min 0,000 mm 0,0 UV-I 0 W/m² 0,3 °C -0,4 °C 11,3 km/h (2 Bft)
23.01.2018 08:01 1,3 °C 93 % 1025,2 hPa 0,0 mm 8,0 km/h (2 Bft) W 273 ° 0 min 0,000 mm 0,0 UV-I 0 W/m² 0,3 °C -1,2 °C 12,9 km/h (3 Bft)
23.01.2018 08:02 1,3 °C 93 % 1025,2 hPa 0,0 mm 8,0 km/h (2 Bft) W-SW 249 ° 0 min 0,000 mm 0,0 UV-I 0 W/m² 0,3 °C -1,2 °C 14,5 km/h (3 Bft)
23.01.2018 08:03 1,3 °C 93 % 1025,2 hPa 0,0 mm 7,5 km/h (2 Bft) W 269 ° 0 min 0,000 mm 0,0 UV-I 0 W/m² 0,3 °C -1,1 °C 12,9 km/h (3 Bft)
23.01.2018 08:04 1,3 °C 93 % 1025,3 hPa 0,0 mm 7,0 km/h (2 Bft) W-SW 257 ° 0 min 0,000 mm 0,0 UV-I 0 W/m² 0,3 °C -0,9 °C 14,5 km/h (3 Bft)
23.01.2018 08:05 1,3 °C 93 % 1025,3 hPa 0,0 mm 13,2 km/h (3 Bft) W 273 ° 0 min 0,000 mm 0,0 UV-I 0 W/m² 0,3 °C -2,5 °C 16,1 km/h (3 Bft)
23.01.2018 08:06 1,3 °C 93 % 1025,2 hPa 0,0 mm 7,6 km/h (2 Bft) W 271 ° 0 min 0,000 mm 0,0 UV-I 0 W/m² 0,3 °C -1,1 °C 11,3 km/h (2 Bft)
23.01.2018 08:07 1,3 °C 93 % 1025,3 hPa 0,0 mm 9,0 km/h (2 Bft) W 269 ° 0 min 0,000 mm 0,0 UV-I 0 W/m² 0,3 °C -1,5 °C 14,5 km/h (3 Bft)
23.01.2018 08:08 1,3 °C 93 % 1025,3 hPa 0,2 mm 10,9 km/h (2 Bft) W 263 ° 0 min 0,000 mm 0,0 UV-I 0 W/m² 0,3 °C -2,0 °C 16,1 km/h (3 Bft)
23.01.2018 08:09 1,3 °C 93 % 1025,3 hPa 0,0 mm 9,1 km/h (2 Bft) SW 220 ° 0 min 0,000 mm 0,0 UV-I 0 W/m² 0,3 °C -1,5 °C 16,1 km/h (3 Bft)
23.01.2018 08:10 1,3 °C 93 % 1025,3 hPa 0,0 mm 5,2 km/h (1 Bft) W-SW 258 ° 0 min 0,000 mm 0,0 UV-I 0 W/m² 0,3 °C -0,2 °C 9,7 km/h (2 Bft)
23.01.2018 08:11 1,3 °C 93 % 1025,3 hPa 0,0 mm 6,2 km/h (2 Bft) W 273 ° 0 min 0,000 mm 0,0 UV-I 0 W/m² 0,3 °C -0,6 °C 9,7 km/h (2 Bft)
23.01.2018 08:12 1,3 °C 93 % 1025,3 hPa 0,0 mm 7,6 km/h (2 Bft) SW 229 ° 0 min 0,000 mm 0,0 UV-I 0 W/m² 0,3 °C -1,1 °C 11,3 km/h (2 Bft)
23.01.2018 08:13 1,3 °C 93 % 1025,3 hPa 0,0 mm 8,9 km/h (2 Bft) SW 235 ° 0 min 0,000 mm 0,0 UV-I 0 W/m² 0,3 °C -1,5 °C 14,5 km/h (3 Bft)
23.01.2018 08:14 1,3 °C 93 % 1025,4 hPa 0,0 mm 8,2 km/h (2 Bft) W 268 ° 0 min 0,000 mm 0,0 UV-I 0 W/m² 0,3 °C -1,3 °C 12,9 km/h (3 Bft)
23.01.2018 08:15 1,3 °C 93 % 1025,4 hPa 0,0 mm 9,1 km/h (2 Bft) W 262 ° 0 min 0,000 mm 0,0 UV-I 0 W/m² 0,3 °C -1,5 °C 16,1 km/h (3 Bft)
23.01.2018 08:16 1,3 °C 93 % 1025,4 hPa 0,0 mm 8,6 km/h (2 Bft) W-SW 253 ° 0 min 0,000 mm 0,0 UV-I 0 W/m² 0,3 °C -1,4 °C 14,5 km/h (3 Bft)
23.01.2018 08:17 1,3 °C 93 % 1025,4 hPa 0,0 mm 7,8 km/h (2 Bft) SW 234 ° 0 min 0,000 mm 0,0 UV-I 0 W/m² 0,3 °C -1,2 °C 14,5 km/h (3 Bft)
23.01.2018 08:18 1,3 °C 93 % 1025,4 hPa 0,0 mm 10,4 km/h (2 Bft) W 261 ° 0 min 0,000 mm 0,0 UV-I 0 W/m² 0,3 °C -1,9 °C 14,5 km/h (3 Bft)
23.01.2018 08:19 1,2 °C 93 % 1025,4 hPa 0,0 mm 7,6 km/h (2 Bft) W-SW 240 ° 0 min 0,000 mm 0,0 UV-I 0 W/m² 0,2 °C -1,2 °C 14,5 km/h (3 Bft)
23.01.2018 08:20 1,2 °C 93 % 1025,5 hPa 0,0 mm 13,0 km/h (3 Bft) W 265 ° 0 min 0,000 mm 0,0 UV-I 0 W/m² 0,2 °C -2,6 °C 17,7 km/h (3 Bft)
23.01.2018 08:21 1,2 °C 93 % 1025,5 hPa 0,0 mm 9,8 km/h (2 Bft) SW 224 ° 0 min 0,000 mm 0,0 UV-I 0 W/m² 0,2 °C -1,8 °C 14,5 km/h (3 Bft)
23.01.2018 08:22 1,2 °C 93 % 1025,5 hPa 0,0 mm 8,5 km/h (2 Bft) W 279 ° 0 min 0,000 mm 0,0 UV-I 5 W/m² 0,2 °C -1,5 °C 12,9 km/h (3 Bft)
23.01.2018 08:23 1,2 °C 93 % 1025,5 hPa 0,0 mm 8,3 km/h (2 Bft) SW 233 ° 0 min 0,000 mm 0,0 UV-I 5 W/m² 0,2 °C -1,4 °C 12,9 km/h (3 Bft)
23.01.2018 08:24 1,2 °C 93 % 1025,5 hPa 0,0 mm 4,5 km/h (1 Bft) W-SW 254 ° 0 min 0,000 mm 0,0 UV-I 5 W/m² 0,2 °C 1,2 °C 6,4 km/h (2 Bft)
23.01.2018 08:25 1,2 °C 93 % 1025,6 hPa 0,0 mm 9,9 km/h (2 Bft) W 261 ° 0 min 0,000 mm 0,0 UV-I 5 W/m² 0,2 °C -1,9 °C 14,5 km/h (3 Bft)
23.01.2018 08:26 1,2 °C 93 % 1025,6 hPa 0,2 mm 5,1 km/h (1 Bft) W 262 ° 0 min 0,000 mm 0,0 UV-I 5 W/m² 0,2 °C -0,3 °C 8,0 km/h (2 Bft)
23.01.2018 08:27 1,2 °C 93 % 1025,6 hPa 0,0 mm 4,9 km/h (1 Bft) W 280 ° 0 min 0,000 mm 0,0 UV-I 5 W/m² 0,2 °C -0,2 °C 9,7 km/h (2 Bft)
23.01.2018 08:28 1,2 °C 93 % 1025,6 hPa 0,0 mm 7,4 km/h (2 Bft) W-SW 246 ° 0 min 0,000 mm 0,0 UV-I 5 W/m² 0,2 °C -1,1 °C 11,3 km/h (2 Bft)
23.01.2018 08:29 1,2 °C 93 % 1025,6 hPa 0,0 mm 4,6 km/h (1 Bft) W 266 ° 0 min 0,000 mm 0,0 UV-I 7 W/m² 0,2 °C -0,0 °C 6,4 km/h (2 Bft)
23.01.2018 08:30 1,2 °C 93 % 1025,7 hPa 0,0 mm 3,1 km/h (1 Bft) SW 233 ° 0 min 0,000 mm 0,0 UV-I 7 W/m² 0,2 °C 1,2 °C 8,0 km/h (2 Bft)
23.01.2018 08:31 1,2 °C 93 % 1025,7 hPa 0,0 mm 5,3 km/h (1 Bft) W 267 ° 0 min 0,000 mm 0,0 UV-I 7 W/m² 0,2 °C -0,4 °C 11,3 km/h (2 Bft)
23.01.2018 08:32 1,2 °C 93 % 1025,7 hPa 0,0 mm 4,7 km/h (1 Bft) W 277 ° 0 min 0,000 mm 0,0 UV-I 9 W/m² 0,2 °C -0,1 °C 12,9 km/h (3 Bft)
23.01.2018 08:33 1,2 °C 93 % 1025,6 hPa 0,0 mm 6,0 km/h (2 Bft) W-SW 252 ° 0 min 0,000 mm 0,0 UV-I 9 W/m² 0,2 °C -0,6 °C 11,3 km/h (2 Bft)
23.01.2018 08:34 1,2 °C 93 % 1025,7 hPa 0,0 mm 9,5 km/h (2 Bft) W-NW 290 ° 0 min 0,000 mm 0,0 UV-I 9 W/m² 0,2 °C -1,8 °C 12,9 km/h (3 Bft)
23.01.2018 08:35 1,2 °C 93 % 1025,7 hPa 0,0 mm 5,2 km/h (1 Bft) SW 235 ° 0 min 0,000 mm 0,0 UV-I 11 W/m² 0,2 °C -0,3 °C 6,4 km/h (2 Bft)
23.01.2018 08:36 1,2 °C 93 % 1025,7 hPa 0,0 mm 4,2 km/h (1 Bft) W-SW 254 ° 0 min 0,000 mm 0,0 UV-I 11 W/m² 0,2 °C 1,2 °C 6,4 km/h (2 Bft)
23.01.2018 08:37 1,2 °C 93 % 1025,7 hPa 0,0 mm 3,8 km/h (1 Bft) W-SW 254 ° 0 min 0,000 mm 0,0 UV-I 11 W/m² 0,2 °C 1,2 °C 6,4 km/h (2 Bft)
23.01.2018 08:38 1,2 °C 93 % 1025,8 hPa 0,0 mm 4,4 km/h (1 Bft) W 269 ° 0 min 0,000 mm 0,0 UV-I 12 W/m² 0,2 °C 1,2 °C 6,4 km/h (2 Bft)
23.01.2018 08:39 1,2 °C 93 % 1025,7 hPa 0,0 mm 10,8 km/h (2 Bft) SW 236 ° 0 min 0,000 mm 0,0 UV-I 12 W/m² 0,2 °C -2,1 °C 16,1 km/h (3 Bft)
23.01.2018 08:40 1,2 °C 94 % 1025,7 hPa 0,0 mm 6,8 km/h (2 Bft) W-SW 248 ° 0 min 0,000 mm 0,0 UV-I 12 W/m² 0,3 °C -0,9 °C 14,5 km/h (3 Bft)
23.01.2018 08:41 1,2 °C 93 % 1025,8 hPa 0,0 mm 11,0 km/h (2 Bft) W 268 ° 0 min 0,000 mm 0,0 UV-I 12 W/m² 0,2 °C -2,1 °C 14,5 km/h (3 Bft)
23.01.2018 08:42 1,2 °C 93 % 1025,8 hPa 0,0 mm 6,4 km/h (2 Bft) W-NW 286 ° 0 min 0,000 mm 0,0 UV-I 12 W/m² 0,2 °C -0,8 °C 11,3 km/h (2 Bft)
23.01.2018 08:43 1,2 °C 94 % 1025,8 hPa 0,0 mm 5,4 km/h (1 Bft) W 273 ° 0 min 0,000 mm 0,0 UV-I 12 W/m² 0,3 °C -0,4 °C 9,7 km/h (2 Bft)
23.01.2018 08:44 1,3 °C 94 % 1025,8 hPa 0,0 mm 6,8 km/h (2 Bft) W 276 ° 0 min 0,000 mm 0,0 UV-I 12 W/m² 0,4 °C -0,8 °C 9,7 km/h (2 Bft)
23.01.2018 08:45 1,3 °C 94 % 1025,9 hPa 0,0 mm 10,3 km/h (2 Bft) W-NW 287 ° 0 min 0,000 mm 0,0 UV-I 12 W/m² 0,4 °C -1,8 °C 16,1 km/h (3 Bft)
23.01.2018 08:46 1,3 °C 94 % 1025,9 hPa 0,0 mm 11,8 km/h (2 Bft) W-SW 255 ° 0 min 0,000 mm 0,0 UV-I 12 W/m² 0,4 °C -2,2 °C 16,1 km/h (3 Bft)
23.01.2018 08:47 1,3 °C 94 % 1026,0 hPa 0,0 mm 7,9 km/h (2 Bft) W 264 ° 0 min 0,000 mm 0,0 UV-I 14 W/m² 0,4 °C -1,2 °C 11,3 km/h (2 Bft)
23.01.2018 08:48 1,3 °C 94 % 1025,9 hPa 0,0 mm 12,8 km/h (3 Bft) W-SW 252 ° 0 min 0,000 mm 0,0 UV-I 14 W/m² 0,4 °C -2,4 °C 19,3 km/h (3 Bft)
23.01.2018 08:49 1,3 °C 94 % 1025,9 hPa 0,0 mm 8,3 km/h (2 Bft) W-NW 284 ° 0 min 0,000 mm 0,0 UV-I 16 W/m² 0,4 °C -1,3 °C 12,9 km/h (3 Bft)
23.01.2018 08:50 1,3 °C 94 % 1026,0 hPa 0,0 mm 9,9 km/h (2 Bft) W-SW 256 ° 0 min 0,000 mm 0,0 UV-I 16 W/m² 0,4 °C -1,7 °C 17,7 km/h (3 Bft)
23.01.2018 08:51 1,3 °C 94 % 1026,0 hPa 0,0 mm 11,5 km/h (2 Bft) S-SW 206 ° 0 min 0,000 mm 0,0 UV-I 16 W/m² 0,4 °C -2,1 °C 14,5 km/h (3 Bft)
23.01.2018 08:52 1,3 °C 94 % 1026,0 hPa 0,0 mm 13,2 km/h (3 Bft) W 268 ° 0 min 0,000 mm 0,0 UV-I 18 W/m² 0,4 °C -2,5 °C 17,7 km/h (3 Bft)
23.01.2018 08:53 1,3 °C 94 % 1026,0 hPa 0,0 mm 16,2 km/h (3 Bft) W-SW 245 ° 0 min 0,000 mm 0,0 UV-I 16 W/m² 0,4 °C -3,0 °C 25,7 km/h (4 Bft)
23.01.2018 08:54 1,3 °C 94 % 1026,0 hPa 0,0 mm 8,4 km/h (2 Bft) W 275 ° 0 min 0,000 mm 0,0 UV-I 18 W/m² 0,4 °C -1,3 °C 11,3 km/h (2 Bft)
23.01.2018 08:55 1,4 °C 94 % 1026,0 hPa 0,0 mm 9,8 km/h (2 Bft) W-SW 252 ° 0 min 0,000 mm 0,0 UV-I 16 W/m² 0,5 °C -1,6 °C 12,9 km/h (3 Bft)
23.01.2018 08:56 1,4 °C 94 % 1026,0 hPa 0,0 mm 12,6 km/h (3 Bft) W-SW 254 ° 0 min 0,000 mm 0,0 UV-I 19 W/m² 0,5 °C -2,2 °C 17,7 km/h (3 Bft)
23.01.2018 08:57 1,4 °C 94 % 1026,0 hPa 0,0 mm 10,7 km/h (2 Bft) W 263 ° 0 min 0,000 mm 0,0 UV-I 18 W/m² 0,5 °C -1,8 °C 14,5 km/h (3 Bft)
23.01.2018 08:58 1,4 °C 94 % 1026,0 hPa 0,0 mm 6,1 km/h (2 Bft) W-SW 253 ° 0 min 0,000 mm 0,0 UV-I 18 W/m² 0,5 °C -0,5 °C 11,3 km/h (2 Bft)
23.01.2018 08:59 1,4 °C 94 % 1026,0 hPa 0,0 mm 11,3 km/h (2 Bft) W 263 ° 0 min 0,000 mm 0,0 UV-I 19 W/m² 0,5 °C -2,0 °C 19,3 km/h (3 Bft)
23.01.2018 09:00 1,4 °C 94 % 1026,1 hPa 0,0 mm 8,6 km/h (2 Bft) W-NW 284 ° 0 min 0,000 mm 0,0 UV-I 21 W/m² 0,5 °C -1,3 °C 17,7 km/h (3 Bft)
23.01.2018 09:01 1,4 °C 94 % 1026,1 hPa 0,0 mm 12,5 km/h (3 Bft) W-SW 249 ° 0 min 0,000 mm 0,0 UV-I 23 W/m² 0,5 °C -2,2 °C 19,3 km/h (3 Bft)
23.01.2018 09:02 1,4 °C 94 % 1026,1 hPa 0,0 mm 13,1 km/h (3 Bft) W 272 ° 0 min 0,000 mm 0,0 UV-I 21 W/m² 0,5 °C -2,3 °C 20,9 km/h (4 Bft)
23.01.2018 09:03 1,4 °C 94 % 1026,2 hPa 0,0 mm 10,8 km/h (2 Bft) W 272 ° 0 min 0,000 mm 0,0 UV-I 25 W/m² 0,5 °C -1,8 °C 12,9 km/h (3 Bft)
23.01.2018 09:04 1,4 °C 94 % 1026,2 hPa 0,0 mm 10,1 km/h (2 Bft) W-NW 288 ° 0 min 0,000 mm 0,0 UV-I 25 W/m² 0,5 °C -1,7 °C 12,9 km/h (3 Bft)
23.01.2018 09:05 1,4 °C 93 % 1026,2 hPa 0,0 mm 10,2 km/h (2 Bft) W-SW 251 ° 0 min 0,000 mm 0,0 UV-I 26 W/m² 0,4 °C -1,7 °C 14,5 km/h (3 Bft)
23.01.2018 09:06 1,4 °C 93 % 1026,2 hPa 0,0 mm 9,3 km/h (2 Bft) W 261 ° 0 min 0,000 mm 0,0 UV-I 30 W/m² 0,4 °C -1,5 °C 14,5 km/h (3 Bft)
23.01.2018 09:07 1,4 °C 93 % 1026,2 hPa 0,0 mm 8,6 km/h (2 Bft) W 263 ° 0 min 0,000 mm 0,0 UV-I 30 W/m² 0,4 °C -1,3 °C 12,9 km/h (3 Bft)
23.01.2018 09:08 1,5 °C 93 % 1026,3 hPa 0,0 mm 9,2 km/h (2 Bft) W-NW 300 ° 0 min 0,000 mm 0,0 UV-I 32 W/m² 0,5 °C -1,3 °C 12,9 km/h (3 Bft)
23.01.2018 09:09 1,5 °C 93 % 1026,3 hPa 0,0 mm 9,7 km/h (2 Bft) W-SW 250 ° 0 min 0,000 mm 0,0 UV-I 35 W/m² 0,5 °C -1,4 °C 14,5 km/h (3 Bft)
23.01.2018 09:10 1,5 °C 93 % 1026,3 hPa 0,0 mm 9,9 km/h (2 Bft) SW 236 ° 0 min 0,000 mm 0,0 UV-I 35 W/m² 0,5 °C -1,5 °C 12,9 km/h (3 Bft)
23.01.2018 09:11 1,6 °C 94 % 1026,3 hPa 0,0 mm 10,1 km/h (2 Bft) W-SW 257 ° 0 min 0,000 mm 0,0 UV-I 35 W/m² 0,7 °C -1,4 °C 19,3 km/h (3 Bft)
23.01.2018 09:12 1,6 °C 94 % 1026,3 hPa 0,0 mm 10,3 km/h (2 Bft) SW 228 ° 0 min 0,000 mm 0,0 UV-I 37 W/m² 0,7 °C -1,5 °C 19,3 km/h (3 Bft)
23.01.2018 09:13 1,6 °C 94 % 1026,3 hPa 0,0 mm 9,9 km/h (2 Bft) W-SW 258 ° 0 min 0,000 mm 0,0 UV-I 37 W/m² 0,7 °C -1,4 °C 16,1 km/h (3 Bft)
23.01.2018 09:14 1,6 °C 94 % 1026,4 hPa 0,0 mm 9,7 km/h (2 Bft) W 260 ° 0 min 0,000 mm 0,0 UV-I 37 W/m² 0,7 °C -1,3 °C 17,7 km/h (3 Bft)
23.01.2018 09:15 1,6 °C 94 % 1026,5 hPa 0,0 mm 13,1 km/h (3 Bft) W 277 ° 0 min 0,000 mm 0,0 UV-I 37 W/m² 0,7 °C -2,1 °C 19,3 km/h (3 Bft)
23.01.2018 09:16 1,6 °C 93 % 1026,4 hPa 0,0 mm 7,2 km/h (2 Bft) W-SW 245 ° 0 min 0,000 mm 0,0 UV-I 39 W/m² 0,6 °C -0,6 °C 12,9 km/h (3 Bft)
23.01.2018 09:17 1,6 °C 93 % 1026,5 hPa 0,0 mm 13,3 km/h (3 Bft) W 259 ° 0 min 0,000 mm 0,0 UV-I 40 W/m² 0,6 °C -2,1 °C 19,3 km/h (3 Bft)
23.01.2018 09:18 1,6 °C 93 % 1026,5 hPa 0,0 mm 12,1 km/h (2 Bft) W 267 ° 0 min 0,000 mm 0,0 UV-I 42 W/m² 0,6 °C -1,9 °C 17,7 km/h (3 Bft)
23.01.2018 09:19 1,6 °C 93 % 1026,4 hPa 0,0 mm 12,8 km/h (3 Bft) W-SW 254 ° 0 min 0,000 mm 0,0 UV-I 47 W/m² 0,6 °C -2,0 °C 20,9 km/h (4 Bft)
23.01.2018 09:20 1,6 °C 93 % 1026,4 hPa 0,0 mm 9,3 km/h (2 Bft) W-SW 257 ° 0 min 0,000 mm 0,0 UV-I 47 W/m² 0,6 °C -1,2 °C 24,1 km/h (4 Bft)
23.01.2018 09:21 1,7 °C 93 % 1026,4 hPa 0,0 mm 10,7 km/h (2 Bft) SW 233 ° 0 min 0,000 mm 0,0 UV-I 49 W/m² 0,7 °C -1,5 °C 24,1 km/h (4 Bft)
23.01.2018 09:22 1,7 °C 93 % 1026,4 hPa 0,0 mm 13,3 km/h (3 Bft) W 259 ° 0 min 0,000 mm 0,0 UV-I 49 W/m² 0,7 °C -2,0 °C 17,7 km/h (3 Bft)
23.01.2018 09:23 1,7 °C 93 % 1026,4 hPa 0,0 mm 11,8 km/h (2 Bft) W-SW 254 ° 0 min 0,000 mm 0,0 UV-I 49 W/m² 0,7 °C -1,7 °C 14,5 km/h (3 Bft)
23.01.2018 09:24 1,7 °C 93 % 1026,4 hPa 0,0 mm 11,1 km/h (2 Bft) W-SW 250 ° 0 min 0,000 mm 0,0 UV-I 49 W/m² 0,7 °C -1,5 °C 17,7 km/h (3 Bft)
23.01.2018 09:25 1,7 °C 93 % 1026,5 hPa 0,0 mm 15,5 km/h (3 Bft) W 260 ° 0 min 0,000 mm 0,0 UV-I 49 W/m² 0,7 °C -2,4 °C 17,7 km/h (3 Bft)
23.01.2018 09:26 1,7 °C 93 % 1026,4 hPa 0,0 mm 13,2 km/h (3 Bft) W 263 ° 0 min 0,000 mm 0,0 UV-I 49 W/m² 0,7 °C -2,0 °C 19,3 km/h (3 Bft)
23.01.2018 09:27 1,7 °C 93 % 1026,5 hPa 0,0 mm 9,1 km/h (2 Bft) W-SW 237 ° 0 min 0,000 mm 0,0 UV-I 51 W/m² 0,7 °C -1,1 °C 14,5 km/h (3 Bft)
23.01.2018 09:28 1,7 °C 93 % 1026,5 hPa 0,0 mm 7,8 km/h (2 Bft) W 262 ° 0 min 0,000 mm 0,0 UV-I 51 W/m² 0,7 °C -0,7 °C 16,1 km/h (3 Bft)
23.01.2018 09:29 1,7 °C 93 % 1026,5 hPa 0,0 mm 14,4 km/h (3 Bft) W 269 ° 0 min 0,000 mm 0,0 UV-I 51 W/m² 0,7 °C -2,2 °C 17,7 km/h (3 Bft)
23.01.2018 09:30 1,7 °C 93 % 1026,5 hPa 0,0 mm 7,4 km/h (2 Bft) W 265 ° 0 min 0,000 mm 0,0 UV-I 53 W/m² 0,7 °C -0,6 °C 14,5 km/h (3 Bft)
23.01.2018 09:31 1,7 °C 93 % 1026,5 hPa 0,0 mm 7,5 km/h (2 Bft) W-SW 241 ° 0 min 0,000 mm 0,0 UV-I 53 W/m² 0,7 °C -0,6 °C 14,5 km/h (3 Bft)
23.01.2018 09:32 1,7 °C 93 % 1026,6 hPa 0,0 mm 4,4 km/h (1 Bft) SW 230 ° 0 min 0,000 mm 0,0 UV-I 54 W/m² 0,7 °C 1,7 °C 6,4 km/h (2 Bft)
23.01.2018 09:33 1,8 °C 93 % 1026,6 hPa 0,0 mm 4,4 km/h (1 Bft) W 259 ° 0 min 0,000 mm 0,0 UV-I 56 W/m² 0,8 °C 1,8 °C 9,7 km/h (2 Bft)
23.01.2018 09:34 1,8 °C 93 % 1026,6 hPa 0,0 mm 7,1 km/h (2 Bft) SW 222 ° 0 min 0,000 mm 0,0 UV-I 58 W/m² 0,8 °C -0,3 °C 14,5 km/h (3 Bft)
23.01.2018 09:35 1,8 °C 93 % 1026,6 hPa 0,0 mm 7,5 km/h (2 Bft) SW 217 ° 0 min 0,000 mm 0,0 UV-I 58 W/m² 0,8 °C -0,5 °C 14,5 km/h (3 Bft)
23.01.2018 09:36 1,8 °C 92 % 1026,7 hPa 0,0 mm 8,7 km/h (2 Bft) W-SW 246 ° 0 min 0,000 mm 0,0 UV-I 58 W/m² 0,6 °C -0,8 °C 14,5 km/h (3 Bft)
23.01.2018 09:37 1,8 °C 92 % 1026,7 hPa 0,0 mm 6,7 km/h (2 Bft) W-SW 238 ° 0 min 0,000 mm 0,0 UV-I 56 W/m² 0,6 °C -0,2 °C 11,3 km/h (2 Bft)
23.01.2018 09:38 1,8 °C 92 % 1026,7 hPa 0,0 mm 7,4 km/h (2 Bft) W 259 ° 0 min 0,000 mm 0,0 UV-I 56 W/m² 0,6 °C -0,4 °C 14,5 km/h (3 Bft)
23.01.2018 09:39 1,8 °C 92 % 1026,7 hPa 0,0 mm 12,7 km/h (3 Bft) W 259 ° 0 min 0,000 mm 0,0 UV-I 56 W/m² 0,6 °C -1,8 °C 17,7 km/h (3 Bft)
23.01.2018 09:40 1,8 °C 92 % 1026,7 hPa 0,0 mm 7,9 km/h (2 Bft) W-SW 248 ° 0 min 0,000 mm 0,0 UV-I 56 W/m² 0,6 °C -0,6 °C 11,3 km/h (2 Bft)
23.01.2018 09:41 1,8 °C 92 % 1026,7 hPa 0,0 mm 6,4 km/h (2 Bft) S-SW 206 ° 0 min 0,000 mm 0,0 UV-I 56 W/m² 0,6 °C -0,1 °C 11,3 km/h (2 Bft)
23.01.2018 09:42 1,9 °C 92 % 1026,7 hPa 0,0 mm 3,8 km/h (1 Bft) S-SW 201 ° 0 min 0,000 mm 0,0 UV-I 58 W/m² 0,7 °C 1,9 °C 9,7 km/h (2 Bft)
23.01.2018 09:43 1,9 °C 92 % 1026,8 hPa 0,0 mm 4,9 km/h (1 Bft) W-SW 248 ° 0 min 0,000 mm 0,0 UV-I 60 W/m² 0,7 °C 0,6 °C 6,4 km/h (2 Bft)
23.01.2018 09:44 1,9 °C 92 % 1026,8 hPa 0,0 mm 5,2 km/h (1 Bft) W 271 ° 0 min 0,000 mm 0,5 UV-I 60 W/m² 0,7 °C 0,5 °C 8,0 km/h (2 Bft)
23.01.2018 09:45 1,9 °C 92 % 1026,8 hPa 0,0 mm 9,3 km/h (2 Bft) SW 223 ° 0 min 0,000 mm 0,5 UV-I 62 W/m² 0,7 °C -0,9 °C 12,9 km/h (3 Bft)
23.01.2018 09:46 1,9 °C 92 % 1026,8 hPa 0,0 mm 6,4 km/h (2 Bft) W 260 ° 0 min 0,000 mm 0,5 UV-I 63 W/m² 0,7 °C 0,0 °C 11,3 km/h (2 Bft)
23.01.2018 09:47 1,9 °C 92 % 1026,8 hPa 0,0 mm 5,9 km/h (2 Bft) W-SW 239 ° 0 min 0,000 mm 0,5 UV-I 63 W/m² 0,7 °C 0,2 °C 8,0 km/h (2 Bft)
23.01.2018 09:48 1,9 °C 92 % 1026,8 hPa 0,0 mm 6,3 km/h (2 Bft) W-SW 251 ° 0 min 0,000 mm 0,5 UV-I 65 W/m² 0,7 °C 0,0 °C 11,3 km/h (2 Bft)
23.01.2018 09:49 1,9 °C 92 % 1026,8 hPa 0,0 mm 7,0 km/h (2 Bft) SW 215 ° 0 min 0,000 mm 0,5 UV-I 67 W/m² 0,7 °C -0,2 °C 12,9 km/h (3 Bft)
23.01.2018 09:50 1,9 °C 92 % 1026,8 hPa 0,0 mm 5,2 km/h (1 Bft) S-SW 213 ° 0 min 0,000 mm 0,5 UV-I 69 W/m² 0,7 °C 0,5 °C 11,3 km/h (2 Bft)
23.01.2018 09:51 1,9 °C 92 % 1026,8 hPa 0,0 mm 6,7 km/h (2 Bft) SW 233 ° 0 min 0,000 mm 0,5 UV-I 70 W/m² 0,7 °C -0,1 °C 12,9 km/h (3 Bft)
23.01.2018 09:52 1,9 °C 92 % 1026,8 hPa 0,0 mm 5,0 km/h (1 Bft) W-SW 248 ° 0 min 0,000 mm 0,5 UV-I 69 W/m² 0,7 °C 0,6 °C 6,4 km/h (2 Bft)
23.01.2018 09:53 2,0 °C 92 % 1026,8 hPa 0,0 mm 3,7 km/h (1 Bft) S-SW 209 ° 0 min 0,000 mm 0,5 UV-I 69 W/m² 0,8 °C 2,0 °C 6,4 km/h (2 Bft)
23.01.2018 09:54 2,0 °C 91 % 1026,9 hPa 0,0 mm 6,0 km/h (2 Bft) SW 219 ° 0 min 0,000 mm 0,5 UV-I 74 W/m² 0,7 °C 0,3 °C 9,7 km/h (2 Bft)
23.01.2018 09:55 2,0 °C 91 % 1026,9 hPa 0,0 mm 6,1 km/h (2 Bft) SW 218 ° 0 min 0,000 mm 0,5 UV-I 74 W/m² 0,7 °C 0,2 °C 9,7 km/h (2 Bft)
23.01.2018 09:56 2,0 °C 91 % 1026,9 hPa 0,0 mm 5,8 km/h (2 Bft) W 263 ° 0 min 0,000 mm 0,5 UV-I 74 W/m² 0,7 °C 0,4 °C 11,3 km/h (2 Bft)
23.01.2018 09:57 2,0 °C 91 % 1026,9 hPa 0,0 mm 4,5 km/h (1 Bft) SW 222 ° 0 min 0,000 mm 0,5 UV-I 74 W/m² 0,7 °C 2,0 °C 6,4 km/h (2 Bft)
23.01.2018 09:58 2,0 °C 91 % 1026,9 hPa 0,0 mm 5,5 km/h (1 Bft) S-SW 211 ° 0 min 0,000 mm 0,5 UV-I 77 W/m² 0,7 °C 0,5 °C 8,0 km/h (2 Bft)
23.01.2018 09:59 2,1 °C 91 % 1026,9 hPa 0,0 mm 3,7 km/h (1 Bft) SW 228 ° 0 min 0,000 mm 0,6 UV-I 79 W/m² 0,8 °C 2,1 °C 6,4 km/h (2 Bft)
23.01.2018 10:00 2,1 °C 91 % 1026,9 hPa 0,0 mm 4,7 km/h (1 Bft) SW 223 ° 0 min 0,000 mm 0,6 UV-I 79 W/m² 0,8 °C 0,9 °C 9,7 km/h (2 Bft)
23.01.2018 10:01 2,1 °C 91 % 1026,9 hPa 0,0 mm 4,0 km/h (1 Bft) W-SW 244 ° 0 min 0,025 mm 0,6 UV-I 77 W/m² 0,8 °C 2,1 °C 8,0 km/h (2 Bft)
23.01.2018 10:02 2,1 °C 91 % 1027,0 hPa 0,0 mm 3,6 km/h (1 Bft) W-SW 244 ° 0 min 0,000 mm 0,6 UV-I 77 W/m² 0,8 °C 2,1 °C 4,8 km/h (1 Bft)
23.01.2018 10:03 2,1 °C 91 % 1026,9 hPa 0,0 mm 4,5 km/h (1 Bft) SW 218 ° 0 min 0,000 mm 0,6 UV-I 77 W/m² 0,8 °C 2,1 °C 8,0 km/h (2 Bft)
23.01.2018 10:04 2,1 °C 91 % 1027,0 hPa 0,0 mm 7,3 km/h (2 Bft) W-SW 258 ° 0 min 0,000 mm 0,6 UV-I 79 W/m² 0,8 °C -0,1 °C 11,3 km/h (2 Bft)
23.01.2018 10:05 2,1 °C 90 % 1027,0 hPa 0,0 mm 5,0 km/h (1 Bft) SW 220 ° 0 min 0,000 mm 0,6 UV-I 79 W/m² 0,6 °C 0,8 °C 8,0 km/h (2 Bft)
23.01.2018 10:06 2,2 °C 90 % 1027,0 hPa 0,0 mm 5,3 km/h (1 Bft) S-SW 208 ° 0 min 0,000 mm 0,6 UV-I 79 W/m² 0,7 °C 0,8 °C 9,7 km/h (2 Bft)
23.01.2018 10:07 2,1 °C 90 % 1027,0 hPa 0,0 mm 4,8 km/h (1 Bft) SW 229 ° 0 min 0,000 mm 0,6 UV-I 79 W/m² 0,6 °C 0,9 °C 11,3 km/h (2 Bft)
23.01.2018 10:08 2,2 °C 90 % 1027,0 hPa 0,0 mm 6,3 km/h (2 Bft) SW 224 ° 0 min 0,000 mm 0,6 UV-I 79 W/m² 0,7 °C 0,4 °C 9,7 km/h (2 Bft)
23.01.2018 10:09 2,2 °C 90 % 1027,0 hPa 0,0 mm 7,1 km/h (2 Bft) S-SW 211 ° 0 min 0,000 mm 0,6 UV-I 77 W/m² 0,7 °C 0,1 °C 12,9 km/h (3 Bft)
23.01.2018 10:10 2,2 °C 90 % 1027,0 hPa 0,0 mm 4,8 km/h (1 Bft) SW 228 ° 0 min 0,000 mm 0,6 UV-I 77 W/m² 0,7 °C 1,0 °C 8,0 km/h (2 Bft)
23.01.2018 10:11 2,2 °C 90 % 1027,0 hPa 0,0 mm 4,1 km/h (1 Bft) SW 218 ° 0 min 0,000 mm 0,6 UV-I 76 W/m² 0,7 °C 2,2 °C 6,4 km/h (2 Bft)
23.01.2018 10:12 2,2 °C 90 % 1027,0 hPa 0,0 mm 3,9 km/h (1 Bft) S-SW 211 ° 0 min 0,000 mm 0,6 UV-I 76 W/m² 0,7 °C 2,2 °C 6,4 km/h (2 Bft)
23.01.2018 10:13 2,2 °C 90 % 1027,0 hPa 0,0 mm 8,0 km/h (2 Bft) W-SW 247 ° 0 min 0,000 mm 0,6 UV-I 77 W/m² 0,7 °C -0,2 °C 9,7 km/h (2 Bft)
23.01.2018 10:14 2,2 °C 90 % 1027,0 hPa 0,0 mm 3,3 km/h (1 Bft) W-SW 239 ° 0 min 0,000 mm 0,6 UV-I 77 W/m² 0,7 °C 2,2 °C 6,4 km/h (2 Bft)
23.01.2018 10:15 2,3 °C 90 % 1027,0 hPa 0,0 mm 6,4 km/h (2 Bft) W 265 ° 0 min 0,000 mm 0,6 UV-I 77 W/m² 0,8 °C 0,5 °C 9,7 km/h (2 Bft)
23.01.2018 10:16 2,3 °C 90 % 1027,1 hPa 0,0 mm 3,2 km/h (1 Bft) S-SW 201 ° 0 min 0,000 mm 0,6 UV-I 79 W/m² 0,8 °C 2,3 °C 6,4 km/h (2 Bft)
23.01.2018 10:17 2,3 °C 90 % 1027,1 hPa 0,0 mm 5,5 km/h (1 Bft) S-SW 208 ° 0 min 0,000 mm 0,6 UV-I 77 W/m² 0,8 °C 0,8 °C 8,0 km/h (2 Bft)
23.01.2018 10:18 2,3 °C 89 % 1027,1 hPa 0,0 mm 3,6 km/h (1 Bft) SW 214 ° 0 min 0,000 mm 0,6 UV-I 76 W/m² 0,7 °C 2,3 °C 4,8 km/h (1 Bft)
23.01.2018 10:19 2,3 °C 89 % 1027,1 hPa 0,0 mm 5,5 km/h (1 Bft) S-SW 196 ° 0 min 0,000 mm 0,6 UV-I 76 W/m² 0,7 °C 0,8 °C 9,7 km/h (2 Bft)
23.01.2018 10:20 2,3 °C 89 % 1027,1 hPa 0,0 mm 3,5 km/h (1 Bft) S-SW 198 ° 0 min 0,000 mm 0,6 UV-I 76 W/m² 0,7 °C 2,3 °C 6,4 km/h (2 Bft)
23.01.2018 10:21 2,3 °C 89 % 1027,1 hPa 0,0 mm 5,1 km/h (1 Bft) W-SW 248 ° 0 min 0,000 mm 0,6 UV-I 74 W/m² 0,7 °C 1,0 °C 9,7 km/h (2 Bft)
23.01.2018 10:22 2,3 °C 89 % 1027,1 hPa 0,0 mm 4,4 km/h (1 Bft) S-SW 213 ° 0 min 0,000 mm 0,6 UV-I 74 W/m² 0,7 °C 2,3 °C 6,4 km/h (2 Bft)
23.01.2018 10:23 2,3 °C 89 % 1027,1 hPa 0,0 mm 7,5 km/h (2 Bft) SW 217 ° 0 min 0,000 mm 0,6 UV-I 74 W/m² 0,7 °C 0,1 °C 11,3 km/h (2 Bft)
23.01.2018 10:24 2,3 °C 89 % 1027,2 hPa 0,0 mm 7,7 km/h (2 Bft) SW 217 ° 0 min 0,000 mm 0,6 UV-I 72 W/m² 0,7 °C 0,1 °C 11,3 km/h (2 Bft)
23.01.2018 10:25 2,3 °C 89 % 1027,2 hPa 0,0 mm 7,0 km/h (2 Bft) S-SW 209 ° 0 min 0,000 mm 0,6 UV-I 74 W/m² 0,7 °C 0,3 °C 9,7 km/h (2 Bft)
23.01.2018 10:26 2,3 °C 89 % 1027,2 hPa 0,0 mm 6,4 km/h (2 Bft) S-SW 207 ° 0 min 0,000 mm 0,6 UV-I 74 W/m² 0,7 °C 0,5 °C 9,7 km/h (2 Bft)
23.01.2018 10:27 2,3 °C 89 % 1027,2 hPa 0,0 mm 7,7 km/h (2 Bft) S-SW 205 ° 0 min 0,000 mm 0,6 UV-I 76 W/m² 0,7 °C 0,1 °C 12,9 km/h (3 Bft)
23.01.2018 10:28 2,3 °C 89 % 1027,3 hPa 0,0 mm 7,0 km/h (2 Bft) S-SW 209 ° 0 min 0,000 mm 0,6 UV-I 76 W/m² 0,7 °C 0,3 °C 9,7 km/h (2 Bft)
23.01.2018 10:29 2,3 °C 89 % 1027,3 hPa 0,0 mm 5,9 km/h (2 Bft) S-SW 204 ° 0 min 0,000 mm 0,6 UV-I 79 W/m² 0,7 °C 0,7 °C 9,7 km/h (2 Bft)
23.01.2018 10:30 2,3 °C 89 % 1027,3 hPa 0,0 mm 7,0 km/h (2 Bft) S-SW 211 ° 0 min 0,000 mm 0,6 UV-I 83 W/m² 0,7 °C 0,3 °C 9,7 km/h (2 Bft)
23.01.2018 10:31 2,4 °C 89 % 1027,3 hPa 0,0 mm 8,0 km/h (2 Bft) S-SW 207 ° 0 min 0,000 mm 0,6 UV-I 84 W/m² 0,8 °C 0,1 °C 17,7 km/h (3 Bft)
23.01.2018 10:32 2,4 °C 89 % 1027,3 hPa 0,0 mm 5,6 km/h (1 Bft) S-SW 208 ° 0 min 0,000 mm 0,6 UV-I 88 W/m² 0,8 °C 0,9 °C 8,0 km/h (2 Bft)
23.01.2018 10:33 2,4 °C 89 % 1027,3 hPa 0,0 mm 5,6 km/h (1 Bft) SW 236 ° 0 min 0,000 mm 0,7 UV-I 91 W/m² 0,8 °C 0,9 °C 8,0 km/h (2 Bft)
23.01.2018 10:34 2,4 °C 89 % 1027,3 hPa 0,0 mm 4,6 km/h (1 Bft) SW 223 ° 0 min 0,000 mm 0,7 UV-I 93 W/m² 0,8 °C 1,3 °C 8,0 km/h (2 Bft)
23.01.2018 10:35 2,4 °C 89 % 1027,3 hPa 0,0 mm 5,6 km/h (1 Bft) W-SW 238 ° 0 min 0,000 mm 0,7 UV-I 93 W/m² 0,8 °C 0,9 °C 8,0 km/h (2 Bft)
23.01.2018 10:36 2,4 °C 89 % 1027,3 hPa 0,0 mm 5,0 km/h (1 Bft) S-SW 198 ° 0 min 0,000 mm 0,7 UV-I 93 W/m² 0,8 °C 1,1 °C 8,0 km/h (2 Bft)
23.01.2018 10:37 2,4 °C 88 % 1027,3 hPa 0,0 mm 5,3 km/h (1 Bft) W-SW 242 ° 0 min 0,000 mm 0,7 UV-I 97 W/m² 0,6 °C 1,0 °C 9,7 km/h (2 Bft)
23.01.2018 10:38 2,5 °C 88 % 1027,4 hPa 0,0 mm 5,2 km/h (1 Bft) SW 236 ° 0 min 0,000 mm 0,7 UV-I 98 W/m² 0,7 °C 1,2 °C 8,0 km/h (2 Bft)
23.01.2018 10:39 2,5 °C 88 % 1027,3 hPa 0,0 mm 5,5 km/h (1 Bft) S-SW 206 ° 0 min 0,000 mm 0,7 UV-I 102 W/m² 0,7 °C 1,0 °C 9,7 km/h (2 Bft)
23.01.2018 10:40 2,6 °C 87 % 1027,3 hPa 0,0 mm 5,4 km/h (1 Bft) S-SW 193 ° 0 min 0,000 mm 0,7 UV-I 105 W/m² 0,7 °C 1,2 °C 9,7 km/h (2 Bft)
23.01.2018 10:41 2,6 °C 87 % 1027,3 hPa 0,0 mm 3,6 km/h (1 Bft) S-SW 210 ° 0 min 0,000 mm 0,7 UV-I 111 W/m² 0,7 °C 2,6 °C 4,8 km/h (1 Bft)
23.01.2018 10:42 2,6 °C 87 % 1027,4 hPa 0,0 mm 5,6 km/h (1 Bft) S-SW 210 ° 0 min 0,000 mm 0,8 UV-I 113 W/m² 0,7 °C 1,1 °C 8,0 km/h (2 Bft)
23.01.2018 10:43 2,6 °C 87 % 1027,4 hPa 0,0 mm 4,4 km/h (1 Bft) S-SW 201 ° 0 min 0,000 mm 0,8 UV-I 116 W/m² 0,7 °C 2,6 °C 8,0 km/h (2 Bft)
23.01.2018 10:44 2,6 °C 87 % 1027,4 hPa 0,0 mm 6,5 km/h (2 Bft) SW 214 ° 0 min 0,000 mm 0,8 UV-I 116 W/m² 0,7 °C 0,8 °C 8,0 km/h (2 Bft)
23.01.2018 10:45 2,6 °C 87 % 1027,3 hPa 0,0 mm 5,0 km/h (1 Bft) SW 232 ° 0 min 0,000 mm 0,8 UV-I 118 W/m² 0,7 °C 1,4 °C 6,4 km/h (2 Bft)
23.01.2018 10:46 2,6 °C 87 % 1027,3 hPa 0,0 mm 6,2 km/h (2 Bft) S-SW 208 ° 0 min 0,000 mm 0,8 UV-I 121 W/m² 0,7 °C 0,9 °C 9,7 km/h (2 Bft)
23.01.2018 10:47 2,6 °C 87 % 1027,4 hPa 0,0 mm 4,0 km/h (1 Bft) S-SW 208 ° 0 min 0,000 mm 0,9 UV-I 121 W/m² 0,7 °C 2,6 °C 6,4 km/h (2 Bft)
23.01.2018 10:48 2,7 °C 87 % 1027,4 hPa 0,0 mm 4,2 km/h (1 Bft) S-SW 208 ° 0 min 0,000 mm 0,9 UV-I 121 W/m² 0,8 °C 2,7 °C 6,4 km/h (2 Bft)
23.01.2018 10:49 2,7 °C 87 % 1027,3 hPa 0,0 mm 6,6 km/h (2 Bft) S-SW 211 ° 0 min 0,000 mm 0,9 UV-I 127 W/m² 0,8 °C 0,9 °C 9,7 km/h (2 Bft)
23.01.2018 10:50 2,7 °C 86 % 1027,4 hPa 0,0 mm 4,0 km/h (1 Bft) S-SW 211 ° 0 min 0,000 mm 0,9 UV-I 134 W/m² 0,6 °C 2,7 °C 6,4 km/h (2 Bft)
23.01.2018 10:51 2,7 °C 86 % 1027,4 hPa 0,0 mm 4,1 km/h (1 Bft) S-SW 201 ° 0 min 0,000 mm 0,9 UV-I 134 W/m² 0,6 °C 2,7 °C 4,8 km/h (1 Bft)
23.01.2018 10:52 2,7 °C 86 % 1027,5 hPa 0,0 mm 6,1 km/h (2 Bft) S-SW 198 ° 0 min 0,000 mm 0,9 UV-I 130 W/m² 0,6 °C 1,0 °C 8,0 km/h (2 Bft)
23.01.2018 10:53 2,8 °C 86 % 1027,5 hPa 0,0 mm 5,0 km/h (1 Bft) S-SW 198 ° 0 min 0,000 mm 1,0 UV-I 134 W/m² 0,7 °C 1,6 °C 6,4 km/h (2 Bft)
23.01.2018 10:54 2,8 °C 86 % 1027,5 hPa 0,0 mm 3,5 km/h (1 Bft) S-SW 205 ° 0 min 0,000 mm 1,0 UV-I 139 W/m² 0,7 °C 2,8 °C 4,8 km/h (1 Bft)
23.01.2018 10:55 2,7 °C 86 % 1027,4 hPa 0,0 mm 4,6 km/h (1 Bft) S-SW 195 ° 0 min 0,000 mm 1,0 UV-I 132 W/m² 0,6 °C 1,7 °C 8,0 km/h (2 Bft)
23.01.2018 10:56 2,8 °C 87 % 1027,4 hPa 0,0 mm 6,6 km/h (2 Bft) S 186 ° 0 min 0,000 mm 1,0 UV-I 130 W/m² 0,9 °C 1,0 °C 9,7 km/h (2 Bft)
23.01.2018 10:57 2,8 °C 86 % 1027,5 hPa 0,0 mm 7,4 km/h (2 Bft) S-SW 193 ° 0 min 0,000 mm 1,0 UV-I 130 W/m² 0,7 °C 0,7 °C 12,9 km/h (3 Bft)
23.01.2018 10:58 2,8 °C 86 % 1027,5 hPa 0,0 mm 8,0 km/h (2 Bft) S-SW 210 ° 0 min 0,000 mm 1,0 UV-I 128 W/m² 0,7 °C 0,6 °C 11,3 km/h (2 Bft)
23.01.2018 10:59 2,8 °C 86 % 1027,5 hPa 0,0 mm 7,7 km/h (2 Bft) S 189 ° 0 min 0,000 mm 0,9 UV-I 125 W/m² 0,7 °C 0,6 °C 9,7 km/h (2 Bft)
23.01.2018 11:00 2,8 °C 86 % 1027,5 hPa 0,0 mm 7,1 km/h (2 Bft) S-SW 207 ° 0 min 0,000 mm 0,9 UV-I 123 W/m² 0,7 °C 0,8 °C 11,3 km/h (2 Bft)
23.01.2018 11:01 2,8 °C 86 % 1027,5 hPa 0,0 mm 7,0 km/h (2 Bft) S-SW 205 ° 0 min 0,051 mm 0,9 UV-I 121 W/m² 0,7 °C 0,9 °C 9,7 km/h (2 Bft)
23.01.2018 11:02 2,8 °C 86 % 1027,5 hPa 0,0 mm 6,2 km/h (2 Bft) S-SW 203 ° 0 min 0,000 mm 0,9 UV-I 123 W/m² 0,7 °C 1,1 °C 11,3 km/h (2 Bft)
23.01.2018 11:03 2,8 °C 86 % 1027,5 hPa 0,0 mm 4,6 km/h (1 Bft) S-SW 195 ° 0 min 0,000 mm 0,9 UV-I 123 W/m² 0,7 °C 1,8 °C 8,0 km/h (2 Bft)
23.01.2018 11:04 2,8 °C 86 % 1027,5 hPa 0,0 mm 4,3 km/h (1 Bft) S-SW 204 ° 0 min 0,000 mm 0,9 UV-I 125 W/m² 0,7 °C 2,8 °C 6,4 km/h (2 Bft)
23.01.2018 11:05 2,7 °C 86 % 1027,5 hPa 0,0 mm 6,4 km/h (2 Bft) S 181 ° 0 min 0,000 mm 1,0 UV-I 127 W/m² 0,6 °C 0,9 °C 11,3 km/h (2 Bft)
23.01.2018 11:06 2,7 °C 86 % 1027,5 hPa 0,0 mm 5,4 km/h (1 Bft) S-SW 205 ° 0 min 0,000 mm 1,0 UV-I 127 W/m² 0,6 °C 1,3 °C 9,7 km/h (2 Bft)
23.01.2018 11:07 2,7 °C 86 % 1027,6 hPa 0,0 mm 5,9 km/h (2 Bft) W-SW 239 ° 0 min 0,000 mm 1,0 UV-I 127 W/m² 0,6 °C 1,1 °C 8,0 km/h (2 Bft)
23.01.2018 11:08 2,7 °C 86 % 1027,5 hPa 0,0 mm 4,6 km/h (1 Bft) S-SW 207 ° 0 min 0,000 mm 1,0 UV-I 127 W/m² 0,6 °C 1,7 °C 6,4 km/h (2 Bft)
23.01.2018 11:09 2,8 °C 86 % 1027,5 hPa 0,0 mm 5,4 km/h (1 Bft) S-SW 207 ° 0 min 0,000 mm 1,0 UV-I 128 W/m² 0,7 °C 1,4 °C 8,0 km/h (2 Bft)
23.01.2018 11:10 2,8 °C 86 % 1027,5 hPa 0,0 mm 3,7 km/h (1 Bft) S-SW 199 ° 0 min 0,000 mm 1,0 UV-I 130 W/m² 0,7 °C 2,8 °C 6,4 km/h (2 Bft)
23.01.2018 11:11 2,8 °C 86 % 1027,5 hPa 0,0 mm 5,2 km/h (1 Bft) S-SW 205 ° 0 min 0,000 mm 1,0 UV-I 134 W/m² 0,7 °C 1,5 °C 8,0 km/h (2 Bft)
23.01.2018 11:12 2,8 °C 86 % 1027,5 hPa 0,0 mm 4,8 km/h (1 Bft) S-SW 200 ° 0 min 0,000 mm 1,0 UV-I 134 W/m² 0,7 °C 1,7 °C 8,0 km/h (2 Bft)
23.01.2018 11:13 2,8 °C 86 % 1027,5 hPa 0,0 mm 5,8 km/h (2 Bft) S-SW 200 ° 0 min 0,000 mm 1,0 UV-I 130 W/m² 0,7 °C 1,3 °C 8,0 km/h (2 Bft)
23.01.2018 11:14 2,8 °C 85 % 1027,4 hPa 0,0 mm 6,6 km/h (2 Bft) S-SW 199 ° 0 min 0,000 mm 1,1 UV-I 128 W/m² 0,5 °C 1,0 °C 11,3 km/h (2 Bft)
23.01.2018 11:15 2,9 °C 85 % 1027,4 hPa 0,0 mm 5,6 km/h (1 Bft) S-SW 206 ° 0 min 0,000 mm 1,1 UV-I 134 W/m² 0,6 °C 1,5 °C 8,0 km/h (2 Bft)
23.01.2018 11:16 2,9 °C 85 % 1027,4 hPa 0,0 mm 4,0 km/h (1 Bft) S-SW 205 ° 0 min 0,000 mm 1,1 UV-I 146 W/m² 0,6 °C 2,9 °C 6,4 km/h (2 Bft)
23.01.2018 11:17 2,9 °C 85 % 1027,4 hPa 0,0 mm 6,2 km/h (2 Bft) S-SW 203 ° 0 min 0,000 mm 1,1 UV-I 139 W/m² 0,6 °C 1,2 °C 9,7 km/h (2 Bft)
23.01.2018 11:18 2,9 °C 85 % 1027,4 hPa 0,0 mm 6,8 km/h (2 Bft) S-SW 197 ° 0 min 0,000 mm 1,0 UV-I 132 W/m² 0,6 °C 1,0 °C 12,9 km/h (3 Bft)
23.01.2018 11:19 2,9 °C 85 % 1027,4 hPa 0,0 mm 6,4 km/h (2 Bft) W-SW 244 ° 0 min 0,000 mm 1,0 UV-I 128 W/m² 0,6 °C 1,2 °C 9,7 km/h (2 Bft)
23.01.2018 11:20 2,9 °C 85 % 1027,4 hPa 0,0 mm 5,2 km/h (1 Bft) S-SW 197 ° 0 min 0,000 mm 1,0 UV-I 125 W/m² 0,6 °C 1,6 °C 6,4 km/h (2 Bft)
23.01.2018 11:21 2,9 °C 85 % 1027,4 hPa 0,0 mm 5,8 km/h (2 Bft) S-SW 200 ° 0 min 0,000 mm 1,0 UV-I 123 W/m² 0,6 °C 1,4 °C 8,0 km/h (2 Bft)
23.01.2018 11:22 3,0 °C 85 % 1027,4 hPa 0,0 mm 5,6 km/h (1 Bft) S-SW 194 ° 0 min 0,000 mm 1,0 UV-I 132 W/m² 0,7 °C 1,6 °C 8,0 km/h (2 Bft)
23.01.2018 11:23 3,0 °C 85 % 1027,4 hPa 0,0 mm 3,3 km/h (1 Bft) S-SW 205 ° 0 min 0,000 mm 1,0 UV-I 137 W/m² 0,7 °C 3,0 °C 4,8 km/h (1 Bft)
23.01.2018 11:24 3,0 °C 86 % 1027,4 hPa 0,0 mm 4,3 km/h (1 Bft) S-SW 209 ° 0 min 0,000 mm 1,0 UV-I 141 W/m² 0,9 °C 3,0 °C 6,4 km/h (2 Bft)
23.01.2018 11:25 2,9 °C 86 % 1027,4 hPa 0,0 mm 4,8 km/h (1 Bft) S-SW 207 ° 0 min 0,000 mm 1,0 UV-I 141 W/m² 0,8 °C 1,8 °C 8,0 km/h (2 Bft)
23.01.2018 11:26 3,0 °C 85 % 1027,4 hPa 0,0 mm 7,8 km/h (2 Bft) S 189 ° 0 min 0,000 mm 1,0 UV-I 135 W/m² 0,7 °C 0,8 °C 11,3 km/h (2 Bft)
23.01.2018 11:27 3,0 °C 85 % 1027,3 hPa 0,0 mm 7,0 km/h (2 Bft) S-SW 196 ° 0 min 0,000 mm 1,0 UV-I 134 W/m² 0,7 °C 1,1 °C 9,7 km/h (2 Bft)
23.01.2018 11:28 3,0 °C 85 % 1027,4 hPa 0,0 mm 6,0 km/h (2 Bft) SW 222 ° 0 min 0,000 mm 1,0 UV-I 142 W/m² 0,7 °C 1,4 °C 9,7 km/h (2 Bft)
23.01.2018 11:29 3,1 °C 85 % 1027,4 hPa 0,0 mm 4,8 km/h (1 Bft) S-SW 211 ° 0 min 0,000 mm 1,1 UV-I 148 W/m² 0,8 °C 2,0 °C 6,4 km/h (2 Bft)
23.01.2018 11:30 3,1 °C 85 % 1027,4 hPa 0,0 mm 5,5 km/h (1 Bft) S-SW 200 ° 0 min 0,000 mm 1,1 UV-I 146 W/m² 0,8 °C 1,7 °C 8,0 km/h (2 Bft)
23.01.2018 11:31 3,1 °C 85 % 1027,3 hPa 0,0 mm 7,5 km/h (2 Bft) S-SW 203 ° 0 min 0,000 mm 1,1 UV-I 148 W/m² 0,8 °C 1,0 °C 9,7 km/h (2 Bft)
23.01.2018 11:32 3,1 °C 85 % 1027,3 hPa 0,0 mm 3,8 km/h (1 Bft) W-SW 248 ° 0 min 0,000 mm 1,1 UV-I 148 W/m² 0,8 °C 3,1 °C 4,8 km/h (1 Bft)
23.01.2018 11:33 3,1 °C 85 % 1027,3 hPa 0,0 mm 4,8 km/h (1 Bft) SW 220 ° 0 min 0,000 mm 1,1 UV-I 146 W/m² 0,8 °C 2,0 °C 6,4 km/h (2 Bft)
23.01.2018 11:34 3,1 °C 84 % 1027,3 hPa 0,0 mm 6,1 km/h (2 Bft) S-SW 193 ° 0 min 0,000 mm 1,1 UV-I 144 W/m² 0,7 °C 1,5 °C 8,0 km/h (2 Bft)
23.01.2018 11:35 3,1 °C 84 % 1027,3 hPa 0,0 mm 5,5 km/h (1 Bft) S-SW 202 ° 0 min 0,000 mm 1,1 UV-I 148 W/m² 0,7 °C 1,7 °C 8,0 km/h (2 Bft)
23.01.2018 11:36 3,1 °C 85 % 1027,3 hPa 0,0 mm 5,6 km/h (1 Bft) S-SW 203 ° 0 min 0,000 mm 1,1 UV-I 155 W/m² 0,8 °C 1,7 °C 8,0 km/h (2 Bft)
23.01.2018 11:37 3,1 °C 85 % 1027,3 hPa 0,0 mm 5,2 km/h (1 Bft) S-SW 195 ° 0 min 0,000 mm 1,2 UV-I 162 W/m² 0,8 °C 1,8 °C 8,0 km/h (2 Bft)
23.01.2018 11:38 3,1 °C 86 % 1027,3 hPa 0,0 mm 5,9 km/h (2 Bft) S-SW 203 ° 0 min 0,000 mm 1,1 UV-I 160 W/m² 1,0 °C 1,6 °C 9,7 km/h (2 Bft)
23.01.2018 11:39 3,1 °C 85 % 1027,3 hPa 0,0 mm 4,6 km/h (1 Bft) S-SW 205 ° 0 min 0,000 mm 1,1 UV-I 160 W/m² 0,8 °C 2,1 °C 6,4 km/h (2 Bft)
23.01.2018 11:40 3,1 °C 85 % 1027,3 hPa 0,0 mm 4,2 km/h (1 Bft) S-SW 196 ° 0 min 0,000 mm 1,1 UV-I 162 W/m² 0,8 °C 3,1 °C 8,0 km/h (2 Bft)
23.01.2018 11:41 3,2 °C 84 % 1027,3 hPa 0,0 mm 6,3 km/h (2 Bft) S-SW 210 ° 0 min 0,000 mm 1,2 UV-I 167 W/m² 0,8 °C 1,5 °C 9,7 km/h (2 Bft)
23.01.2018 11:42 3,2 °C 84 % 1027,4 hPa 0,0 mm 5,5 km/h (1 Bft) S-SW 201 ° 0 min 0,000 mm 1,2 UV-I 171 W/m² 0,8 °C 1,8 °C 9,7 km/h (2 Bft)
23.01.2018 11:43 3,2 °C 84 % 1027,4 hPa 0,0 mm 4,4 km/h (1 Bft) S-SW 209 ° 0 min 0,000 mm 1,2 UV-I 176 W/m² 0,8 °C 3,2 °C 9,7 km/h (2 Bft)
23.01.2018 11:44 3,2 °C 85 % 1027,3 hPa 0,0 mm 2,1 km/h (1 Bft) S-SW 209 ° 0 min 0,000 mm 1,2 UV-I 178 W/m² 0,9 °C 3,2 °C 3,2 km/h (1 Bft)
23.01.2018 11:45 3,2 °C 84 % 1027,3 hPa 0,0 mm 2,8 km/h (1 Bft) S-SW 206 ° 0 min 0,000 mm 1,2 UV-I 178 W/m² 0,8 °C 3,2 °C 6,4 km/h (2 Bft)
23.01.2018 11:46 3,3 °C 84 % 1027,3 hPa 0,0 mm 3,0 km/h (1 Bft) S-SW 205 ° 0 min 0,000 mm 1,2 UV-I 176 W/m² 0,9 °C 3,3 °C 4,8 km/h (1 Bft)
23.01.2018 11:47 3,3 °C 84 % 1027,3 hPa 0,0 mm 4,6 km/h (1 Bft) S-SW 205 ° 0 min 0,000 mm 1,3 UV-I 178 W/m² 0,9 °C 2,3 °C 6,4 km/h (2 Bft)
23.01.2018 11:48 3,3 °C 84 % 1027,3 hPa 0,0 mm 4,0 km/h (1 Bft) S-SW 205 ° 0 min 0,000 mm 1,3 UV-I 179 W/m² 0,9 °C 3,3 °C 6,4 km/h (2 Bft)
23.01.2018 11:49 3,3 °C 84 % 1027,3 hPa 0,0 mm 4,6 km/h (1 Bft) S-SW 194 ° 0 min 0,000 mm 1,3 UV-I 179 W/m² 0,9 °C 2,3 °C 8,0 km/h (2 Bft)
23.01.2018 11:50 3,3 °C 84 % 1027,3 hPa 0,0 mm 6,5 km/h (2 Bft) S-SW 203 ° 0 min 0,000 mm 1,3 UV-I 181 W/m² 0,9 °C 1,6 °C 9,7 km/h (2 Bft)
23.01.2018 11:51 3,3 °C 84 % 1027,2 hPa 0,0 mm 3,1 km/h (1 Bft) S-SW 203 ° 0 min 0,000 mm 1,3 UV-I 183 W/m² 0,9 °C 3,3 °C 6,4 km/h (2 Bft)
23.01.2018 11:52 3,4 °C 84 % 1027,2 hPa 0,0 mm 3,6 km/h (1 Bft) S-SW 200 ° 0 min 0,000 mm 1,3 UV-I 188 W/m² 1,0 °C 3,4 °C 6,4 km/h (2 Bft)
23.01.2018 11:53 3,4 °C 84 % 1027,2 hPa 0,0 mm 4,5 km/h (1 Bft) S-SW 200 ° 0 min 0,000 mm 1,4 UV-I 195 W/m² 1,0 °C 3,4 °C 6,4 km/h (2 Bft)
23.01.2018 11:54 3,4 °C 84 % 1027,2 hPa 0,0 mm 5,3 km/h (1 Bft) S-SW 202 ° 0 min 0,000 mm 1,4 UV-I 199 W/m² 1,0 °C 2,1 °C 8,0 km/h (2 Bft)
23.01.2018 11:55 3,4 °C 84 % 1027,2 hPa 0,0 mm 4,8 km/h (1 Bft) S-SW 200 ° 0 min 0,000 mm 1,4 UV-I 202 W/m² 1,0 °C 2,4 °C 6,4 km/h (2 Bft)
23.01.2018 11:56 3,5 °C 84 % 1027,2 hPa 0,0 mm 5,0 km/h (1 Bft) W 259 ° 0 min 0,000 mm 1,4 UV-I 204 W/m² 1,1 °C 2,4 °C 6,4 km/h (2 Bft)
23.01.2018 11:57 3,5 °C 84 % 1027,2 hPa 0,0 mm 3,0 km/h (1 Bft) SW 229 ° 0 min 0,000 mm 1,4 UV-I 209 W/m² 1,1 °C 3,5 °C 4,8 km/h (1 Bft)
23.01.2018 11:58 3,5 °C 84 % 1027,1 hPa 0,0 mm 3,1 km/h (1 Bft) SW 217 ° 0 min 0,000 mm 1,4 UV-I 216 W/m² 1,1 °C 3,5 °C 4,8 km/h (1 Bft)
23.01.2018 11:59 3,5 °C 84 % 1027,2 hPa 0,0 mm 3,2 km/h (1 Bft) S-SW 211 ° 0 min 0,000 mm 1,4 UV-I 211 W/m² 1,1 °C 3,5 °C 6,4 km/h (2 Bft)
23.01.2018 12:00 3,5 °C 84 % 1027,1 hPa 0,0 mm 3,6 km/h (1 Bft) S-SW 208 ° 0 min 0,076 mm 1,4 UV-I 199 W/m² 1,1 °C 3,5 °C 6,4 km/h (2 Bft)
23.01.2018 12:01 3,6 °C 84 % 1027,1 hPa 0,0 mm 1,7 km/h (1 Bft) S-SW 205 ° 0 min 0,000 mm 1,4 UV-I 192 W/m² 1,2 °C 3,6 °C 4,8 km/h (1 Bft)
23.01.2018 12:02 3,6 °C 84 % 1027,2 hPa 0,0 mm 4,4 km/h (1 Bft) S 186 ° 0 min 0,000 mm 1,4 UV-I 195 W/m² 1,2 °C 3,6 °C 9,7 km/h (2 Bft)
23.01.2018 12:03 3,6 °C 84 % 1027,1 hPa 0,0 mm 4,2 km/h (1 Bft) S-SW 197 ° 0 min 0,000 mm 1,5 UV-I 193 W/m² 1,2 °C 3,6 °C 6,4 km/h (2 Bft)
23.01.2018 12:04 3,7 °C 84 % 1027,2 hPa 0,0 mm 3,6 km/h (1 Bft) S-SW 198 ° 0 min 0,000 mm 1,5 UV-I 183 W/m² 1,3 °C 3,7 °C 6,4 km/h (2 Bft)
23.01.2018 12:05 3,7 °C 84 % 1027,1 hPa 0,0 mm 2,1 km/h (1 Bft) S-SW 198 ° 0 min 0,000 mm 1,4 UV-I 167 W/m² 1,3 °C 3,7 °C 6,4 km/h (2 Bft)
23.01.2018 12:06 3,7 °C 84 % 1027,1 hPa 0,0 mm 4,7 km/h (1 Bft) W-SW 244 ° 0 min 0,000 mm 1,4 UV-I 149 W/m² 1,3 °C 2,7 °C 6,4 km/h (2 Bft)
23.01.2018 12:07 3,7 °C 83 % 1027,1 hPa 0,0 mm 1,5 km/h (1 Bft) W-SW 244 ° 0 min 0,000 mm 1,4 UV-I 141 W/m² 1,1 °C 3,7 °C 3,2 km/h (1 Bft)
23.01.2018 12:08 3,7 °C 84 % 1027,1 hPa 0,0 mm 2,9 km/h (1 Bft) S-SW 196 ° 0 min 0,000 mm 1,4 UV-I 142 W/m² 1,3 °C 3,7 °C 6,4 km/h (2 Bft)
23.01.2018 12:09 3,7 °C 84 % 1027,0 hPa 0,0 mm 2,9 km/h (1 Bft) S-SW 196 ° 0 min 0,000 mm 1,4 UV-I 141 W/m² 1,3 °C 3,7 °C 3,2 km/h (1 Bft)
23.01.2018 12:10 3,8 °C 84 % 1027,0 hPa 0,0 mm 2,5 km/h (1 Bft) S-SW 196 ° 0 min 0,000 mm 1,3 UV-I 120 W/m² 1,4 °C 3,8 °C 3,2 km/h (1 Bft)
23.01.2018 12:11 3,8 °C 84 % 1027,0 hPa 0,0 mm 2,6 km/h (1 Bft) W-SW 242 ° 0 min 0,000 mm 1,3 UV-I 105 W/m² 1,4 °C 3,8 °C 4,8 km/h (1 Bft)
23.01.2018 12:12 3,8 °C 84 % 1027,0 hPa 0,0 mm 4,7 km/h (1 Bft) S-SW 205 ° 0 min 0,000 mm 1,3 UV-I 104 W/m² 1,4 °C 2,8 °C 6,4 km/h (2 Bft)
23.01.2018 12:13 3,8 °C 84 % 1027,0 hPa 0,0 mm 3,4 km/h (1 Bft) W 270 ° 0 min 0,000 mm 1,3 UV-I 102 W/m² 1,4 °C 3,8 °C 4,8 km/h (1 Bft)
23.01.2018 12:14 3,7 °C 84 % 1027,0 hPa 0,0 mm 2,8 km/h (1 Bft) W 270 ° 0 min 0,000 mm 1,3 UV-I 98 W/m² 1,3 °C 3,7 °C 6,4 km/h (2 Bft)
23.01.2018 12:15 3,7 °C 84 % 1026,9 hPa 0,0 mm 9,3 km/h (2 Bft) W-SW 238 ° 0 min 0,000 mm 1,3 UV-I 93 W/m² 1,3 °C 1,3 °C 12,9 km/h (3 Bft)
23.01.2018 12:16 3,7 °C 84 % 1026,9 hPa 0,0 mm 3,2 km/h (1 Bft) W-SW 242 ° 0 min 0,000 mm 1,3 UV-I 88 W/m² 1,3 °C 3,7 °C 4,8 km/h (1 Bft)
23.01.2018 12:17 3,7 °C 84 % 1026,9 hPa 0,0 mm 3,5 km/h (1 Bft) SW 236 ° 0 min 0,000 mm 1,3 UV-I 79 W/m² 1,3 °C 3,7 °C 6,4 km/h (2 Bft)
23.01.2018 12:18 3,8 °C 85 % 1026,9 hPa 0,0 mm 5,9 km/h (2 Bft) W-SW 246 ° 0 min 0,000 mm 1,3 UV-I 72 W/m² 1,5 °C 2,4 °C 9,7 km/h (2 Bft)
23.01.2018 12:19 3,8 °C 84 % 1026,9 hPa 0,0 mm 6,7 km/h (2 Bft) W 265 ° 0 min 0,000 mm 1,3 UV-I 84 W/m² 1,4 °C 2,1 °C 11,3 km/h (2 Bft)
23.01.2018 12:20 3,8 °C 84 % 1026,9 hPa 0,0 mm 4,4 km/h (1 Bft) W-SW 238 ° 0 min 0,000 mm 1,3 UV-I 95 W/m² 1,4 °C 3,8 °C 9,7 km/h (2 Bft)
23.01.2018 12:21 3,8 °C 84 % 1026,9 hPa 0,0 mm 5,4 km/h (1 Bft) W-SW 257 ° 0 min 0,000 mm 1,3 UV-I 98 W/m² 1,4 °C 2,6 °C 8,0 km/h (2 Bft)
23.01.2018 12:22 3,8 °C 83 % 1026,9 hPa 0,0 mm 6,8 km/h (2 Bft) W-SW 246 ° 0 min 0,000 mm 1,3 UV-I 104 W/m² 1,2 °C 2,1 °C 11,3 km/h (2 Bft)
23.01.2018 12:23 3,8 °C 83 % 1026,9 hPa 0,0 mm 4,7 km/h (1 Bft) W-SW 242 ° 0 min 0,000 mm 1,3 UV-I 102 W/m² 1,2 °C 2,8 °C 8,0 km/h (2 Bft)
23.01.2018 12:24 3,8 °C 83 % 1026,9 hPa 0,0 mm 5,3 km/h (1 Bft) W-SW 244 ° 0 min 0,000 mm 1,3 UV-I 104 W/m² 1,2 °C 2,6 °C 8,0 km/h (2 Bft)
23.01.2018 12:25 3,8 °C 83 % 1026,9 hPa 0,0 mm 8,4 km/h (2 Bft) W-SW 244 ° 0 min 0,000 mm 1,3 UV-I 113 W/m² 1,2 °C 1,6 °C 19,3 km/h (3 Bft)
23.01.2018 12:26 3,8 °C 82 % 1027,0 hPa 0,0 mm 4,9 km/h (1 Bft) SW 227 ° 0 min 0,000 mm 1,3 UV-I 111 W/m² 1,0 °C 2,8 °C 8,0 km/h (2 Bft)
23.01.2018 12:27 3,8 °C 82 % 1026,9 hPa 0,0 mm 5,6 km/h (1 Bft) SW 232 ° 0 min 0,000 mm 1,3 UV-I 121 W/m² 1,0 °C 2,5 °C 6,4 km/h (2 Bft)
23.01.2018 12:29 3,8 °C 82 % 1026,9 hPa 0,0 mm 4,7 km/h (1 Bft) S-SW 196 ° 0 min 0,000 mm 1,4 UV-I 127 W/m² 1,0 °C 2,8 °C 9,7 km/h (2 Bft)
23.01.2018 12:30 3,8 °C 82 % 1026,9 hPa 0,0 mm 4,2 km/h (1 Bft) SW 223 ° 0 min 0,000 mm 1,3 UV-I 125 W/m² 1,0 °C 3,8 °C 6,4 km/h (2 Bft)
23.01.2018 12:31 3,8 °C 82 % 1027,0 hPa 0,0 mm 5,3 km/h (1 Bft) W-NW 286 ° 0 min 0,000 mm 1,3 UV-I 118 W/m² 1,0 °C 2,6 °C 9,7 km/h (2 Bft)
23.01.2018 12:32 3,8 °C 82 % 1026,9 hPa 0,0 mm 6,6 km/h (2 Bft) W-SW 246 ° 0 min 0,000 mm 1,3 UV-I 107 W/m² 1,0 °C 2,1 °C 11,3 km/h (2 Bft)
23.01.2018 12:34 3,8 °C 82 % 1026,9 hPa 0,0 mm 4,1 km/h (1 Bft) S-SW 206 ° 0 min 0,000 mm 1,3 UV-I 118 W/m² 1,0 °C 3,8 °C 6,4 km/h (2 Bft)
23.01.2018 12:35 3,9 °C 82 % 1026,9 hPa 0,0 mm 3,0 km/h (1 Bft) S 190 ° 0 min 0,000 mm 1,4 UV-I 135 W/m² 1,1 °C 3,9 °C 4,8 km/h (1 Bft)
23.01.2018 12:36 3,8 °C 82 % 1026,9 hPa 0,0 mm 5,0 km/h (1 Bft) W-SW 253 ° 0 min 0,000 mm 1,3 UV-I 139 W/m² 1,0 °C 2,7 °C 11,3 km/h (2 Bft)
23.01.2018 12:37 3,8 °C 82 % 1026,9 hPa 0,0 mm 4,6 km/h (1 Bft) S-SW 211 ° 0 min 0,000 mm 1,3 UV-I 142 W/m² 1,0 °C 2,9 °C 8,0 km/h (2 Bft)
23.01.2018 12:38 3,8 °C 82 % 1026,9 hPa 0,0 mm 3,0 km/h (1 Bft) W 261 ° 0 min 0,000 mm 1,3 UV-I 137 W/m² 1,0 °C 3,8 °C 9,7 km/h (2 Bft)
23.01.2018 12:39 3,9 °C 82 % 1026,9 hPa 0,0 mm 5,2 km/h (1 Bft) W 271 ° 0 min 0,000 mm 1,3 UV-I 146 W/m² 1,1 °C 2,8 °C 6,4 km/h (2 Bft)
23.01.2018 12:40 3,9 °C 82 % 1026,9 hPa 0,0 mm 7,9 km/h (2 Bft) SW 234 ° 0 min 0,000 mm 1,4 UV-I 156 W/m² 1,1 °C 1,9 °C 11,3 km/h (2 Bft)
23.01.2018 12:41 3,8 °C 82 % 1026,9 hPa 0,0 mm 6,4 km/h (2 Bft) SW 230 ° 0 min 0,000 mm 1,4 UV-I 160 W/m² 1,0 °C 2,2 °C 11,3 km/h (2 Bft)
23.01.2018 12:42 3,8 °C 83 % 1026,9 hPa 0,0 mm 6,4 km/h (2 Bft) W-SW 257 ° 0 min 0,000 mm 1,4 UV-I 160 W/m² 1,2 °C 2,2 °C 9,7 km/h (2 Bft)
23.01.2018 12:43 3,8 °C 83 % 1027,0 hPa 0,0 mm 3,0 km/h (1 Bft) W-SW 257 ° 0 min 0,000 mm 1,4 UV-I 160 W/m² 1,2 °C 3,8 °C 4,8 km/h (1 Bft)
23.01.2018 12:44 3,9 °C 82 % 1027,0 hPa 0,0 mm 1,6 km/h (1 Bft) W-SW 257 ° 0 min 0,000 mm 1,4 UV-I 179 W/m² 1,1 °C 3,9 °C 3,2 km/h (1 Bft)
23.01.2018 12:45 3,9 °C 82 % 1027,0 hPa 0,0 mm 3,7 km/h (1 Bft) S-SW 212 ° 0 min 0,000 mm 1,4 UV-I 192 W/m² 1,1 °C 3,9 °C 6,4 km/h (2 Bft)
23.01.2018 12:46 3,9 °C 82 % 1027,0 hPa 0,0 mm 3,2 km/h (1 Bft) W-SW 252 ° 0 min 0,000 mm 1,4 UV-I 200 W/m² 1,1 °C 3,9 °C 4,8 km/h (1 Bft)
23.01.2018 12:47 3,9 °C 81 % 1026,9 hPa 0,0 mm 3,3 km/h (1 Bft) S-SW 207 ° 0 min 0,000 mm 1,4 UV-I 197 W/m² 0,9 °C 3,9 °C 6,4 km/h (2 Bft)
23.01.2018 12:48 4,0 °C 81 % 1027,0 hPa 0,0 mm 3,8 km/h (1 Bft) W-SW 257 ° 0 min 0,000 mm 1,4 UV-I 197 W/m² 1,0 °C 4,0 °C 6,4 km/h (2 Bft)
23.01.2018 12:49 4,0 °C 81 % 1026,9 hPa 0,0 mm 2,7 km/h (1 Bft) W-SW 248 ° 0 min 0,000 mm 1,4 UV-I 193 W/m² 1,0 °C 4,0 °C 4,8 km/h (1 Bft)
23.01.2018 12:50 4,0 °C 81 % 1026,9 hPa 0,0 mm 4,4 km/h (1 Bft) W-NW 286 ° 0 min 0,000 mm 1,4 UV-I 181 W/m² 1,0 °C 4,0 °C 9,7 km/h (2 Bft)
23.01.2018 12:51 3,9 °C 81 % 1026,9 hPa 0,0 mm 7,8 km/h (2 Bft) W 275 ° 0 min 0,000 mm 1,4 UV-I 163 W/m² 0,9 °C 1,9 °C 11,3 km/h (2 Bft)
23.01.2018 12:52 3,9 °C 82 % 1026,9 hPa 0,0 mm 9,6 km/h (2 Bft) W 267 ° 0 min 0,000 mm 1,4 UV-I 151 W/m² 1,1 °C 1,4 °C 14,5 km/h (3 Bft)
23.01.2018 12:53 3,9 °C 81 % 1026,9 hPa 0,0 mm 8,4 km/h (2 Bft) W 267 ° 0 min 0,000 mm 1,4 UV-I 142 W/m² 0,9 °C 1,7 °C 12,9 km/h (3 Bft)
23.01.2018 12:54 3,9 °C 82 % 1026,9 hPa 0,0 mm 8,1 km/h (2 Bft) W 267 ° 0 min 0,000 mm 1,4 UV-I 135 W/m² 1,1 °C 1,8 °C 12,9 km/h (3 Bft)
23.01.2018 12:55 3,9 °C 82 % 1026,9 hPa 0,0 mm 5,8 km/h (2 Bft) W 261 ° 0 min 0,000 mm 1,4 UV-I 137 W/m² 1,1 °C 2,5 °C 12,9 km/h (3 Bft)
23.01.2018 12:56 3,9 °C 82 % 1026,9 hPa 0,0 mm 3,4 km/h (1 Bft) W-SW 258 ° 0 min 0,000 mm 1,4 UV-I 156 W/m² 1,1 °C 3,9 °C 6,4 km/h (2 Bft)
23.01.2018 12:57 3,9 °C 82 % 1026,9 hPa 0,0 mm 7,3 km/h (2 Bft) W-SW 256 ° 0 min 0,000 mm 1,4 UV-I 185 W/m² 1,1 °C 2,0 °C 12,9 km/h (3 Bft)
23.01.2018 12:59 4,0 °C 82 % 1026,9 hPa 0,0 mm 7,2 km/h (2 Bft) W-NW 294 ° 0 min 0,000 mm 1,4 UV-I 207 W/m² 1,2 °C 2,2 °C 12,9 km/h (3 Bft)
23.01.2018 13:00 4,0 °C 82 % 1026,9 hPa 0,0 mm 6,4 km/h (2 Bft) W-NW 292 ° 0 min 0,000 mm 1,4 UV-I 207 W/m² 1,2 °C 2,4 °C 9,7 km/h (2 Bft)
23.01.2018 13:01 4,1 °C 82 % 1026,9 hPa 0,0 mm 4,2 km/h (1 Bft) W-NW 292 ° 0 min 0,051 mm 1,4 UV-I 204 W/m² 1,3 °C 4,1 °C 6,4 km/h (2 Bft)
23.01.2018 13:02 4,1 °C 81 % 1026,9 hPa 0,0 mm 11,5 km/h (2 Bft) W-SW 258 ° 0 min 0,000 mm 1,4 UV-I 186 W/m² 1,1 °C 1,3 °C 16,1 km/h (3 Bft)
23.01.2018 13:03 4,1 °C 81 % 1026,9 hPa 0,0 mm 8,3 km/h (2 Bft) W-NW 286 ° 0 min 0,000 mm 1,3 UV-I 181 W/m² 1,1 °C 2,0 °C 11,3 km/h (2 Bft)
23.01.2018 13:04 4,2 °C 80 % 1026,9 hPa 0,0 mm 5,3 km/h (1 Bft) W-NW 296 ° 0 min 0,000 mm 1,3 UV-I 176 W/m² 1,1 °C 3,1 °C 9,7 km/h (2 Bft)
23.01.2018 13:05 4,2 °C 80 % 1026,9 hPa 0,0 mm 5,2 km/h (1 Bft) W-NW 288 ° 0 min 0,000 mm 1,3 UV-I 172 W/m² 1,1 °C 3,1 °C 11,3 km/h (2 Bft)
23.01.2018 13:06 4,2 °C 81 % 1026,9 hPa 0,0 mm 2,0 km/h (1 Bft) SW 222 ° 0 min 0,000 mm 1,3 UV-I 179 W/m² 1,2 °C 4,2 °C 3,2 km/h (1 Bft)
23.01.2018 13:07 4,1 °C 81 % 1026,9 hPa 0,0 mm 3,3 km/h (1 Bft) W 263 ° 0 min 0,000 mm 1,3 UV-I 183 W/m² 1,1 °C 4,1 °C 11,3 km/h (2 Bft)
23.01.2018 13:09 4,1 °C 81 % 1026,9 hPa 0,0 mm 3,5 km/h (1 Bft) W 266 ° 0 min 0,000 mm 1,4 UV-I 209 W/m² 1,1 °C 4,1 °C 12,9 km/h (3 Bft)
23.01.2018 13:10 4,1 °C 81 % 1026,9 hPa 0,0 mm 4,2 km/h (1 Bft) W-SW 246 ° 0 min 0,000 mm 1,4 UV-I 218 W/m² 1,1 °C 4,1 °C 4,8 km/h (1 Bft)
23.01.2018 13:11 4,1 °C 82 % 1026,9 hPa 0,0 mm 3,0 km/h (1 Bft) W-SW 247 ° 0 min 0,000 mm 1,3 UV-I 206 W/m² 1,3 °C 4,1 °C 4,8 km/h (1 Bft)
23.01.2018 13:12 4,1 °C 82 % 1026,9 hPa 0,0 mm 1,7 km/h (1 Bft) W-NW 296 ° 0 min 0,000 mm 1,3 UV-I 199 W/m² 1,3 °C 4,1 °C 4,8 km/h (1 Bft)
23.01.2018 13:13 4,1 °C 82 % 1026,9 hPa 0,0 mm 3,8 km/h (1 Bft) W-NW 296 ° 0 min 0,000 mm 1,3 UV-I 200 W/m² 1,3 °C 4,1 °C 6,4 km/h (2 Bft)
23.01.2018 13:14 4,1 °C 82 % 1026,9 hPa 0,0 mm 4,6 km/h (1 Bft) W 274 ° 0 min 0,000 mm 1,3 UV-I 193 W/m² 1,3 °C 3,2 °C 6,4 km/h (2 Bft)
23.01.2018 13:15 4,0 °C 82 % 1026,9 hPa 0,0 mm 4,4 km/h (1 Bft) W 265 ° 0 min 0,000 mm 1,3 UV-I 195 W/m² 1,2 °C 4,0 °C 6,4 km/h (2 Bft)
23.01.2018 13:16 4,0 °C 82 % 1026,9 hPa 0,0 mm 1,9 km/h (1 Bft) W 265 ° 0 min 0,000 mm 1,3 UV-I 192 W/m² 1,2 °C 4,0 °C 3,2 km/h (1 Bft)
23.01.2018 13:17 4,0 °C 82 % 1026,8 hPa 0,0 mm 2,4 km/h (1 Bft) W 279 ° 0 min 0,000 mm 1,3 UV-I 185 W/m² 1,2 °C 4,0 °C 3,2 km/h (1 Bft)
23.01.2018 13:18 3,9 °C 83 % 1026,8 hPa 0,0 mm 2,3 km/h (1 Bft) W 260 ° 0 min 0,000 mm 1,3 UV-I 179 W/m² 1,3 °C 3,9 °C 4,8 km/h (1 Bft)
23.01.2018 13:19 3,9 °C 83 % 1026,9 hPa 0,0 mm 5,1 km/h (1 Bft) W-SW 244 ° 0 min 0,000 mm 1,3 UV-I 172 W/m² 1,3 °C 2,8 °C 11,3 km/h (2 Bft)
23.01.2018 13:20 3,9 °C 82 % 1026,8 hPa 0,0 mm 0,9 km/h (0 Bft) W-NW 285 ° 0 min 0,000 mm 1,3 UV-I 165 W/m² 1,1 °C 3,9 °C 4,8 km/h (1 Bft)
23.01.2018 13:21 4,0 °C 82 % 1026,8 hPa 0,0 mm 2,8 km/h (1 Bft) W-NW 285 ° 0 min 0,000 mm 1,3 UV-I 171 W/m² 1,2 °C 4,0 °C 4,8 km/h (1 Bft)
23.01.2018 13:22 3,9 °C 82 % 1026,8 hPa 0,0 mm 4,5 km/h (1 Bft) W 270 ° 0 min 0,000 mm 1,3 UV-I 162 W/m² 1,1 °C 3,9 °C 6,4 km/h (2 Bft)
23.01.2018 13:23 3,8 °C 83 % 1026,9 hPa 0,0 mm 4,4 km/h (1 Bft) W 259 ° 0 min 0,000 mm 1,3 UV-I 155 W/m² 1,2 °C 3,8 °C 6,4 km/h (2 Bft)
23.01.2018 13:24 3,8 °C 83 % 1026,8 hPa 0,0 mm 8,8 km/h (2 Bft) W 275 ° 0 min 0,000 mm 1,3 UV-I 151 W/m² 1,2 °C 1,5 °C 11,3 km/h (2 Bft)
23.01.2018 13:25 3,8 °C 83 % 1026,9 hPa 0,0 mm 9,7 km/h (2 Bft) W-SW 250 ° 0 min 0,000 mm 1,3 UV-I 162 W/m² 1,2 °C 1,3 °C 14,5 km/h (3 Bft)
23.01.2018 13:26 3,8 °C 83 % 1026,8 hPa 0,0 mm 12,4 km/h (3 Bft) W 261 ° 0 min 0,000 mm 1,3 UV-I 167 W/m² 1,2 °C 0,7 °C 14,5 km/h (3 Bft)
23.01.2018 13:27 3,7 °C 83 % 1026,8 hPa 0,0 mm 8,8 km/h (2 Bft) W 263 ° 0 min 0,000 mm 1,3 UV-I 169 W/m² 1,1 °C 1,4 °C 11,3 km/h (2 Bft)
23.01.2018 13:28 3,7 °C 83 % 1026,8 hPa 0,0 mm 3,5 km/h (1 Bft) W 263 ° 0 min 0,000 mm 1,3 UV-I 172 W/m² 1,1 °C 3,7 °C 6,4 km/h (2 Bft)
23.01.2018 13:29 3,8 °C 83 % 1026,8 hPa 0,0 mm 3,1 km/h (1 Bft) W-SW 254 ° 0 min 0,000 mm 1,3 UV-I 174 W/m² 1,2 °C 3,8 °C 4,8 km/h (1 Bft)
23.01.2018 13:30 3,8 °C 83 % 1026,8 hPa 0,0 mm 4,5 km/h (1 Bft) W-SW 254 ° 0 min 0,000 mm 1,3 UV-I 174 W/m² 1,2 °C 3,8 °C 6,4 km/h (2 Bft)
23.01.2018 13:31 3,8 °C 83 % 1026,8 hPa 0,0 mm 3,4 km/h (1 Bft) W-SW 254 ° 0 min 0,000 mm 1,3 UV-I 171 W/m² 1,2 °C 3,8 °C 4,8 km/h (1 Bft)
23.01.2018 13:32 3,8 °C 83 % 1026,8 hPa 0,0 mm 3,6 km/h (1 Bft) W-SW 254 ° 0 min 0,000 mm 1,3 UV-I 172 W/m² 1,2 °C 3,8 °C 4,8 km/h (1 Bft)
23.01.2018 13:33 3,8 °C 84 % 1026,8 hPa 0,0 mm 1,7 km/h (1 Bft) W-SW 243 ° 0 min 0,000 mm 1,3 UV-I 171 W/m² 1,4 °C 3,8 °C 3,2 km/h (1 Bft)
23.01.2018 13:34 3,9 °C 83 % 1026,8 hPa 0,0 mm 2,1 km/h (1 Bft) W-SW 237 ° 0 min 0,000 mm 1,3 UV-I 165 W/m² 1,3 °C 3,9 °C 3,2 km/h (1 Bft)
23.01.2018 13:35 3,9 °C 83 % 1026,7 hPa 0,0 mm 0,9 km/h (0 Bft) W-SW 237 ° 0 min 0,000 mm 1,3 UV-I 153 W/m² 1,3 °C 3,9 °C 1,6 km/h (1 Bft)
23.01.2018 13:36 3,9 °C 83 % 1026,8 hPa 0,0 mm 1,4 km/h (1 Bft) W-SW 237 ° 0 min 0,000 mm 1,2 UV-I 135 W/m² 1,3 °C 3,9 °C 3,2 km/h (1 Bft)
23.01.2018 13:37 4,0 °C 83 % 1026,8 hPa 0,0 mm 0,4 km/h (0 Bft) W-SW 237 ° 0 min 0,000 mm 1,2 UV-I 132 W/m² 1,4 °C 4,0 °C 1,6 km/h (1 Bft)
23.01.2018 13:38 4,0 °C 83 % 1026,7 hPa 0,0 mm 0,9 km/h (0 Bft) W-SW 237 ° 0 min 0,000 mm 1,3 UV-I 137 W/m² 1,4 °C 4,0 °C 3,2 km/h (1 Bft)
23.01.2018 13:39 3,9 °C 83 % 1026,7 hPa 0,0 mm 2,2 km/h (1 Bft) W-SW 237 ° 0 min 0,000 mm 1,3 UV-I 137 W/m² 1,3 °C 3,9 °C 3,2 km/h (1 Bft)
23.01.2018 13:40 3,9 °C 83 % 1026,7 hPa 0,0 mm 1,7 km/h (1 Bft) W-SW 237 ° 0 min 0,000 mm 1,3 UV-I 139 W/m² 1,3 °C 3,9 °C 3,2 km/h (1 Bft)
23.01.2018 13:41 3,9 °C 83 % 1026,6 hPa 0,0 mm 2,9 km/h (1 Bft) W-SW 256 ° 0 min 0,000 mm 1,2 UV-I 121 W/m² 1,3 °C 3,9 °C 4,8 km/h (1 Bft)
23.01.2018 13:42 3,9 °C 83 % 1026,6 hPa 0,0 mm 1,8 km/h (1 Bft) W-SW 256 ° 0 min 0,000 mm 1,2 UV-I 107 W/m² 1,3 °C 3,9 °C 3,2 km/h (1 Bft)
23.01.2018 13:43 4,0 °C 83 % 1026,7 hPa 0,0 mm 2,6 km/h (1 Bft) W-SW 249 ° 0 min 0,000 mm 1,2 UV-I 90 W/m² 1,4 °C 4,0 °C 4,8 km/h (1 Bft)
23.01.2018 13:44 3,9 °C 83 % 1026,6 hPa 0,0 mm 1,3 km/h (1 Bft) W-SW 249 ° 0 min 0,000 mm 1,2 UV-I 93 W/m² 1,3 °C 3,9 °C 3,2 km/h (1 Bft)
23.01.2018 13:45 3,9 °C 84 % 1026,6 hPa 0,0 mm 0,1 km/h (0 Bft) W-SW 249 ° 0 min 0,000 mm 1,2 UV-I 111 W/m² 1,4 °C 3,9 °C 1,6 km/h (1 Bft)
23.01.2018 13:46 4,0 °C 83 % 1026,6 hPa 0,0 mm 0,3 km/h (0 Bft) W-SW 249 ° 0 min 0,000 mm 1,2 UV-I 120 W/m² 1,4 °C 4,0 °C 1,6 km/h (1 Bft)
23.01.2018 13:47 4,0 °C 83 % 1026,5 hPa 0,0 mm 0,0 km/h (0 Bft) W-SW 250 ° 0 min 0,000 mm 1,2 UV-I 109 W/m² 1,4 °C 4,0 °C 0,0 km/h (0 Bft)
23.01.2018 13:48 4,1 °C 83 % 1026,6 hPa 0,0 mm 2,5 km/h (1 Bft) W-SW 244 ° 0 min 0,000 mm 1,2 UV-I 104 W/m² 1,5 °C 4,1 °C 3,2 km/h (1 Bft)
23.01.2018 13:49 4,1 °C 83 % 1026,5 hPa 0,0 mm 4,0 km/h (1 Bft) W-SW 253 ° 0 min 0,000 mm 1,2 UV-I 111 W/m² 1,5 °C 4,1 °C 6,4 km/h (2 Bft)
23.01.2018 13:50 4,2 °C 83 % 1026,6 hPa 0,0 mm 4,0 km/h (1 Bft) W 266 ° 0 min 0,000 mm 1,2 UV-I 111 W/m² 1,6 °C 4,2 °C 4,8 km/h (1 Bft)
23.01.2018 13:51 4,2 °C 83 % 1026,7 hPa 0,0 mm 1,9 km/h (1 Bft) W-NW 293 ° 0 min 0,000 mm 1,2 UV-I 116 W/m² 1,6 °C 4,2 °C 4,8 km/h (1 Bft)
23.01.2018 13:52 4,2 °C 83 % 1026,6 hPa 0,0 mm 0,0 km/h (0 Bft) W-NW 293 ° 0 min 0,000 mm 1,2 UV-I 162 W/m² 1,6 °C 4,2 °C 0,0 km/h (0 Bft)
23.01.2018 13:53 4,2 °C 83 % 1026,6 hPa 0,0 mm 0,0 km/h (0 Bft) W-NW 293 ° 0 min 0,000 mm 1,3 UV-I 220 W/m² 1,6 °C 4,2 °C 0,0 km/h (0 Bft)
23.01.2018 13:54 4,2 °C 82 % 1026,6 hPa 0,0 mm 0,1 km/h (0 Bft) W-NW 293 ° 0 min 0,000 mm 1,3 UV-I 220 W/m² 1,4 °C 4,2 °C 3,2 km/h (1 Bft)
23.01.2018 13:55 4,2 °C 83 % 1026,6 hPa 0,0 mm 3,6 km/h (1 Bft) W-NW 293 ° 0 min 0,000 mm 1,4 UV-I 253 W/m² 1,6 °C 4,2 °C 4,8 km/h (1 Bft)
23.01.2018 13:56 4,1 °C 83 % 1026,6 hPa 0,0 mm 4,0 km/h (1 Bft) W 259 ° 0 min 0,000 mm 1,3 UV-I 193 W/m² 1,5 °C 4,1 °C 6,4 km/h (2 Bft)
23.01.2018 13:57 4,1 °C 83 % 1026,6 hPa 0,0 mm 1,0 km/h (0 Bft) W 259 ° 1 min 0,000 mm 1,4 UV-I 292 W/m² 1,5 °C 4,1 °C 3,2 km/h (1 Bft)
23.01.2018 13:58 4,2 °C 83 % 1026,7 hPa 0,0 mm 1,0 km/h (0 Bft) W 259 ° 1 min 0,000 mm 1,4 UV-I 308 W/m² 1,6 °C 4,2 °C 3,2 km/h (1 Bft)
23.01.2018 13:59 4,2 °C 83 % 1026,7 hPa 0,0 mm 1,6 km/h (1 Bft) W 259 ° 1 min 0,000 mm 1,4 UV-I 311 W/m² 1,6 °C 4,2 °C 3,2 km/h (1 Bft)
23.01.2018 14:00 4,2 °C 83 % 1026,6 hPa 0,0 mm 0,2 km/h (0 Bft) W 260 ° 0 min 0,000 mm 1,3 UV-I 258 W/m² 1,6 °C 4,2 °C 1,6 km/h (1 Bft)
23.01.2018 14:01 4,1 °C 83 % 1026,6 hPa 0,0 mm 1,2 km/h (1 Bft) W 260 ° 0 min 0,076 mm 1,3 UV-I 258 W/m² 1,5 °C 4,1 °C 3,2 km/h (1 Bft)
23.01.2018 14:02 4,2 °C 83 % 1026,6 hPa 0,0 mm 1,5 km/h (1 Bft) W 260 ° 0 min 0,000 mm 1,3 UV-I 76 W/m² 1,6 °C 4,2 °C 3,2 km/h (1 Bft)
23.01.2018 14:03 4,2 °C 83 % 1026,7 hPa 0,0 mm 0,1 km/h (0 Bft) W 260 ° 0 min 0,000 mm 1,4 UV-I 76 W/m² 1,6 °C 4,2 °C 1,6 km/h (1 Bft)
23.01.2018 14:04 4,2 °C 82 % 1026,7 hPa 0,0 mm 0,3 km/h (0 Bft) W 265 ° 1 min 0,000 mm 1,3 UV-I 341 W/m² 1,4 °C 4,2 °C 1,6 km/h (1 Bft)
23.01.2018 14:05 4,1 °C 82 % 1026,7 hPa 0,0 mm 1,5 km/h (1 Bft) W 265 ° 1 min 0,000 mm 1,4 UV-I 352 W/m² 1,3 °C 4,1 °C 3,2 km/h (1 Bft)
23.01.2018 14:06 4,1 °C 82 % 1026,7 hPa 0,0 mm 1,3 km/h (1 Bft) W 265 ° 1 min 0,000 mm 1,4 UV-I 338 W/m² 1,3 °C 4,1 °C 3,2 km/h (1 Bft)
23.01.2018 14:07 4,1 °C 82 % 1026,7 hPa 0,0 mm 0,0 km/h (0 Bft) W 265 ° 1 min 0,000 mm 1,4 UV-I 355 W/m² 1,3 °C 4,1 °C 0,0 km/h (0 Bft)
23.01.2018 14:08 4,1 °C 83 % 1026,7 hPa 0,0 mm 1,2 km/h (1 Bft) W 265 ° 1 min 0,000 mm 1,3 UV-I 359 W/m² 1,5 °C 4,1 °C 3,2 km/h (1 Bft)
23.01.2018 14:09 4,2 °C 83 % 1026,6 hPa 0,0 mm 2,2 km/h (1 Bft) W 265 ° 1 min 0,000 mm 1,4 UV-I 353 W/m² 1,6 °C 4,2 °C 4,8 km/h (1 Bft)
23.01.2018 14:10 4,2 °C 82 % 1026,6 hPa 0,0 mm 3,1 km/h (1 Bft) W 265 ° 1 min 0,000 mm 1,4 UV-I 350 W/m² 1,4 °C 4,2 °C 4,8 km/h (1 Bft)
23.01.2018 14:11 4,2 °C 82 % 1026,6 hPa 0,0 mm 2,1 km/h (1 Bft) W 265 ° 1 min 0,000 mm 1,4 UV-I 330 W/m² 1,4 °C 4,2 °C 3,2 km/h (1 Bft)
23.01.2018 14:12 4,3 °C 82 % 1026,7 hPa 0,0 mm 1,8 km/h (1 Bft) W-SW 257 ° 1 min 0,000 mm 1,4 UV-I 325 W/m² 1,5 °C 4,3 °C 11,3 km/h (2 Bft)
23.01.2018 14:13 4,3 °C 82 % 1026,6 hPa 0,0 mm 7,0 km/h (2 Bft) SW 215 ° 1 min 0,000 mm 1,3 UV-I 327 W/m² 1,5 °C 2,6 °C 11,3 km/h (2 Bft)
23.01.2018 14:14 4,4 °C 82 % 1026,6 hPa 0,0 mm 7,9 km/h (2 Bft) W-NW 292 ° 1 min 0,000 mm 1,3 UV-I 311 W/m² 1,6 °C 2,5 °C 12,9 km/h (3 Bft)
23.01.2018 14:15 4,4 °C 82 % 1026,6 hPa 0,0 mm 3,5 km/h (1 Bft) W-NW 303 ° 1 min 0,000 mm 1,3 UV-I 313 W/m² 1,6 °C 4,4 °C 9,7 km/h (2 Bft)
23.01.2018 14:16 4,4 °C 82 % 1026,6 hPa 0,0 mm 6,0 km/h (2 Bft) W-SW 252 ° 1 min 0,000 mm 1,3 UV-I 292 W/m² 1,6 °C 3,0 °C 9,7 km/h (2 Bft)
23.01.2018 14:17 4,3 °C 82 % 1026,6 hPa 0,0 mm 9,7 km/h (2 Bft) W 259 ° 0 min 0,000 mm 1,3 UV-I 267 W/m² 1,5 °C 1,9 °C 12,9 km/h (3 Bft)
23.01.2018 14:18 4,3 °C 82 % 1026,5 hPa 0,0 mm 13,1 km/h (3 Bft) W 271 ° 0 min 0,000 mm 1,2 UV-I 253 W/m² 1,5 °C 1,2 °C 14,5 km/h (3 Bft)
23.01.2018 14:19 4,3 °C 82 % 1026,5 hPa 0,0 mm 5,2 km/h (1 Bft) W-SW 246 ° 0 min 0,000 mm 1,2 UV-I 202 W/m² 1,5 °C 3,2 °C 11,3 km/h (2 Bft)
23.01.2018 14:20 4,3 °C 83 % 1026,6 hPa 0,0 mm 7,7 km/h (2 Bft) W 268 ° 1 min 0,000 mm 1,2 UV-I 297 W/m² 1,7 °C 2,4 °C 11,3 km/h (2 Bft)
23.01.2018 14:21 4,4 °C 82 % 1026,6 hPa 0,0 mm 7,5 km/h (2 Bft) NW 313 ° 1 min 0,000 mm 1,2 UV-I 315 W/m² 1,6 °C 2,6 °C 12,9 km/h (3 Bft)
23.01.2018 14:22 4,4 °C 82 % 1026,6 hPa 0,0 mm 4,6 km/h (1 Bft) NW 310 ° 1 min 0,000 mm 1,2 UV-I 316 W/m² 1,6 °C 3,6 °C 6,4 km/h (2 Bft)
23.01.2018 14:23 4,4 °C 82 % 1026,6 hPa 0,0 mm 1,3 km/h (1 Bft) NW 309 ° 1 min 0,000 mm 1,2 UV-I 309 W/m² 1,6 °C 4,4 °C 3,2 km/h (1 Bft)
23.01.2018 14:24 4,4 °C 82 % 1026,6 hPa 0,0 mm 5,3 km/h (1 Bft) W-NW 285 ° 1 min 0,000 mm 1,0 UV-I 309 W/m² 1,6 °C 3,3 °C 9,7 km/h (2 Bft)
23.01.2018 14:25 4,4 °C 83 % 1026,6 hPa 0,0 mm 7,2 km/h (2 Bft) NW 313 ° 0 min 0,000 mm 1,0 UV-I 181 W/m² 1,8 °C 2,7 °C 11,3 km/h (2 Bft)
23.01.2018 14:26 4,4 °C 82 % 1026,6 hPa 0,0 mm 9,9 km/h (2 Bft) W-SW 239 ° 0 min 0,000 mm 1,0 UV-I 178 W/m² 1,6 °C 2,0 °C 12,9 km/h (3 Bft)
23.01.2018 14:27 4,5 °C 82 % 1026,6 hPa 0,0 mm 7,5 km/h (2 Bft) W 273 ° 0 min 0,000 mm 0,9 UV-I 178 W/m² 1,7 °C 2,7 °C 11,3 km/h (2 Bft)
23.01.2018 14:28 4,6 °C 82 % 1026,6 hPa 0,0 mm 5,4 km/h (1 Bft) W 268 ° 0 min 0,000 mm 1,0 UV-I 185 W/m² 1,8 °C 3,5 °C 8,0 km/h (2 Bft)
23.01.2018 14:29 4,6 °C 82 % 1026,6 hPa 0,0 mm 6,2 km/h (2 Bft) W 281 ° 0 min 0,000 mm 0,9 UV-I 169 W/m² 1,8 °C 3,2 °C 11,3 km/h (2 Bft)
23.01.2018 14:30 4,6 °C 82 % 1026,6 hPa 0,0 mm 6,7 km/h (2 Bft) W-SW 247 ° 0 min 0,000 mm 0,9 UV-I 148 W/m² 1,8 °C 3,0 °C 12,9 km/h (3 Bft)
23.01.2018 14:31 4,4 °C 82 % 1026,7 hPa 0,0 mm 7,8 km/h (2 Bft) NW 306 ° 0 min 0,000 mm 0,9 UV-I 149 W/m² 1,6 °C 2,5 °C 12,9 km/h (3 Bft)
23.01.2018 14:32 4,5 °C 82 % 1026,6 hPa 0,0 mm 7,4 km/h (2 Bft) W 263 ° 0 min 0,000 mm 0,9 UV-I 139 W/m² 1,7 °C 2,7 °C 12,9 km/h (3 Bft)
23.01.2018 14:33 4,5 °C 82 % 1026,7 hPa 0,0 mm 3,5 km/h (1 Bft) W 280 ° 0 min 0,000 mm 0,8 UV-I 141 W/m² 1,7 °C 4,5 °C 4,8 km/h (1 Bft)
23.01.2018 14:34 4,5 °C 82 % 1026,6 hPa 0,0 mm 4,2 km/h (1 Bft) W-NW 298 ° 0 min 0,000 mm 0,8 UV-I 128 W/m² 1,7 °C 4,5 °C 8,0 km/h (2 Bft)
23.01.2018 14:35 4,5 °C 82 % 1026,5 hPa 0,0 mm 5,8 km/h (2 Bft) NW 318 ° 0 min 0,000 mm 0,8 UV-I 139 W/m² 1,7 °C 3,2 °C 9,7 km/h (2 Bft)
23.01.2018 14:36 4,5 °C 82 % 1026,7 hPa 0,0 mm 3,4 km/h (1 Bft) W 279 ° 0 min 0,000 mm 0,8 UV-I 130 W/m² 1,7 °C 4,5 °C 4,8 km/h (1 Bft)
23.01.2018 14:37 4,4 °C 82 % 1026,7 hPa 0,0 mm 4,0 km/h (1 Bft) W 270 ° 0 min 0,000 mm 0,7 UV-I 105 W/m² 1,6 °C 4,4 °C 6,4 km/h (2 Bft)
23.01.2018 14:38 4,3 °C 82 % 1026,7 hPa 0,0 mm 2,2 km/h (1 Bft) W 259 ° 0 min 0,000 mm 0,7 UV-I 98 W/m² 1,5 °C 4,3 °C 6,4 km/h (2 Bft)
23.01.2018 14:39 4,3 °C 83 % 1026,7 hPa 0,0 mm 5,2 km/h (1 Bft) W 259 ° 0 min 0,000 mm 0,7 UV-I 105 W/m² 1,7 °C 3,2 °C 9,7 km/h (2 Bft)
23.01.2018 14:40 4,3 °C 83 % 1026,7 hPa 0,0 mm 5,6 km/h (1 Bft) W-SW 254 ° 0 min 0,000 mm 0,7 UV-I 104 W/m² 1,7 °C 3,1 °C 11,3 km/h (2 Bft)
23.01.2018 14:41 4,3 °C 83 % 1026,7 hPa 0,0 mm 3,2 km/h (1 Bft) W-SW 252 ° 0 min 0,000 mm 0,8 UV-I 88 W/m² 1,7 °C 4,3 °C 8,0 km/h (2 Bft)
23.01.2018 14:42 4,3 °C 83 % 1026,7 hPa 0,0 mm 11,7 km/h (2 Bft) W-SW 248 ° 0 min 0,000 mm 0,8 UV-I 88 W/m² 1,7 °C 1,5 °C 17,7 km/h (3 Bft)
23.01.2018 14:43 4,3 °C 83 % 1026,7 hPa 0,0 mm 9,8 km/h (2 Bft) W 272 ° 0 min 0,000 mm 0,8 UV-I 97 W/m² 1,7 °C 1,9 °C 12,9 km/h (3 Bft)
23.01.2018 14:44 4,3 °C 83 % 1026,6 hPa 0,0 mm 6,4 km/h (2 Bft) SW 227 ° 0 min 0,000 mm 0,8 UV-I 116 W/m² 1,7 °C 2,8 °C 11,3 km/h (2 Bft)
23.01.2018 14:45 4,2 °C 83 % 1026,6 hPa 0,0 mm 8,6 km/h (2 Bft) SW 229 ° 0 min 0,000 mm 0,8 UV-I 134 W/m² 1,6 °C 2,0 °C 12,9 km/h (3 Bft)
23.01.2018 14:46 4,2 °C 84 % 1026,6 hPa 0,0 mm 8,6 km/h (2 Bft) W 271 ° 0 min 0,000 mm 0,8 UV-I 125 W/m² 1,7 °C 2,0 °C 12,9 km/h (3 Bft)
23.01.2018 14:47 4,2 °C 84 % 1026,6 hPa 0,0 mm 9,4 km/h (2 Bft) W-SW 246 ° 0 min 0,000 mm 0,8 UV-I 113 W/m² 1,7 °C 1,8 °C 12,9 km/h (3 Bft)
23.01.2018 14:48 4,2 °C 84 % 1026,6 hPa 0,0 mm 8,6 km/h (2 Bft) W 271 ° 0 min 0,000 mm 0,7 UV-I 113 W/m² 1,7 °C 2,0 °C 9,7 km/h (2 Bft)
23.01.2018 14:49 4,1 °C 84 % 1026,6 hPa 0,0 mm 5,7 km/h (1 Bft) W 270 ° 0 min 0,000 mm 0,8 UV-I 130 W/m² 1,6 °C 2,8 °C 9,7 km/h (2 Bft)
23.01.2018 14:50 3,9 °C 84 % 1026,5 hPa 0,0 mm 5,3 km/h (1 Bft) W 269 ° 0 min 0,000 mm 0,8 UV-I 211 W/m² 1,4 °C 2,7 °C 9,7 km/h (2 Bft)
23.01.2018 14:51 3,9 °C 85 % 1026,6 hPa 0,0 mm 5,2 km/h (1 Bft) W 276 ° 0 min 0,000 mm 0,8 UV-I 218 W/m² 1,6 °C 2,8 °C 6,4 km/h (2 Bft)
23.01.2018 14:52 3,9 °C 86 % 1026,5 hPa 0,0 mm 3,5 km/h (1 Bft) W 276 ° 0 min 0,000 mm 0,8 UV-I 213 W/m² 1,8 °C 3,9 °C 4,8 km/h (1 Bft)
23.01.2018 14:53 4,0 °C 85 % 1026,6 hPa 0,0 mm 4,0 km/h (1 Bft) W-SW 242 ° 0 min 0,000 mm 0,9 UV-I 202 W/m² 1,7 °C 4,0 °C 6,4 km/h (2 Bft)
23.01.2018 14:54 4,1 °C 85 % 1026,6 hPa 0,0 mm 8,1 km/h (2 Bft) W 261 ° 1 min 0,000 mm 0,8 UV-I 294 W/m² 1,8 °C 2,1 °C 11,3 km/h (2 Bft)
23.01.2018 14:55 4,2 °C 85 % 1026,6 hPa 0,0 mm 5,2 km/h (1 Bft) W-SW 254 ° 1 min 0,000 mm 0,9 UV-I 318 W/m² 1,9 °C 3,1 °C 6,4 km/h (2 Bft)
23.01.2018 14:56 4,3 °C 85 % 1026,5 hPa 0,0 mm 6,2 km/h (2 Bft) W 264 ° 1 min 0,000 mm 1,0 UV-I 311 W/m² 2,0 °C 2,9 °C 11,3 km/h (2 Bft)
23.01.2018 14:57 4,2 °C 84 % 1026,5 hPa 0,0 mm 5,7 km/h (1 Bft) W-SW 246 ° 1 min 0,000 mm 1,0 UV-I 315 W/m² 1,7 °C 2,9 °C 9,7 km/h (2 Bft)
23.01.2018 14:58 4,2 °C 84 % 1026,6 hPa 0,0 mm 7,6 km/h (2 Bft) W-SW 250 ° 1 min 0,000 mm 1,0 UV-I 309 W/m² 1,7 °C 2,3 °C 12,9 km/h (3 Bft)
23.01.2018 14:59 4,3 °C 85 % 1026,5 hPa 0,0 mm 7,3 km/h (2 Bft) W 273 ° 0 min 0,000 mm 1,0 UV-I 279 W/m² 2,0 °C 2,5 °C 11,3 km/h (2 Bft)
23.01.2018 15:00 4,2 °C 85 % 1026,5 hPa 0,0 mm 5,9 km/h (2 Bft) W 272 ° 0 min 0,000 mm 0,9 UV-I 285 W/m² 1,9 °C 2,8 °C 9,7 km/h (2 Bft)
23.01.2018 15:01 4,3 °C 85 % 1026,5 hPa 0,0 mm 7,9 km/h (2 Bft) W 268 ° 1 min 0,102 mm 1,0 UV-I 323 W/m² 2,0 °C 2,3 °C 12,9 km/h (3 Bft)
23.01.2018 15:02 4,3 °C 85 % 1026,5 hPa 0,0 mm 8,4 km/h (2 Bft) W 263 ° 1 min 0,000 mm 0,9 UV-I 320 W/m² 2,0 °C 2,2 °C 12,9 km/h (3 Bft)
23.01.2018 15:03 4,3 °C 84 % 1026,5 hPa 0,0 mm 4,6 km/h (1 Bft) W 275 ° 1 min 0,000 mm 0,9 UV-I 323 W/m² 1,8 °C 3,5 °C 6,4 km/h (2 Bft)
23.01.2018 15:04 4,3 °C 84 % 1026,5 hPa 0,0 mm 6,7 km/h (2 Bft) W-SW 248 ° 1 min 0,000 mm 0,9 UV-I 301 W/m² 1,8 °C 2,7 °C 11,3 km/h (2 Bft)
23.01.2018 15:05 4,2 °C 84 % 1026,5 hPa 0,0 mm 10,0 km/h (2 Bft) W 261 ° 0 min 0,000 mm 0,8 UV-I 213 W/m² 1,7 °C 1,7 °C 12,9 km/h (3 Bft)
23.01.2018 15:06 4,3 °C 85 % 1026,5 hPa 0,0 mm 11,1 km/h (2 Bft) W 261 ° 0 min 0,000 mm 0,8 UV-I 104 W/m² 2,0 °C 1,6 °C 16,1 km/h (3 Bft)
23.01.2018 15:07 4,2 °C 84 % 1026,6 hPa 0,0 mm 11,7 km/h (2 Bft) W-NW 295 ° 0 min 0,000 mm 0,7 UV-I 105 W/m² 1,7 °C 1,3 °C 14,5 km/h (3 Bft)
23.01.2018 15:08 4,2 °C 84 % 1026,4 hPa 0,0 mm 7,5 km/h (2 Bft) NW 308 ° 0 min 0,000 mm 0,8 UV-I 104 W/m² 1,7 °C 2,3 °C 12,9 km/h (3 Bft)
23.01.2018 15:09 4,2 °C 84 % 1026,6 hPa 0,0 mm 8,6 km/h (2 Bft) W 281 ° 0 min 0,000 mm 0,8 UV-I 114 W/m² 1,7 °C 2,0 °C 12,9 km/h (3 Bft)
23.01.2018 15:10 4,2 °C 84 % 1026,6 hPa 0,0 mm 5,4 km/h (1 Bft) W 267 ° 0 min 0,000 mm 0,8 UV-I 114 W/m² 1,7 °C 3,0 °C 11,3 km/h (2 Bft)
23.01.2018 15:11 4,1 °C 84 % 1026,6 hPa 0,0 mm 8,7 km/h (2 Bft) W 268 ° 0 min 0,000 mm 0,8 UV-I 285 W/m² 1,6 °C 1,9 °C 14,5 km/h (3 Bft)
23.01.2018 15:12 4,1 °C 85 % 1026,5 hPa 0,0 mm 14,0 km/h (3 Bft) W 262 ° 0 min 0,000 mm 0,8 UV-I 274 W/m² 1,8 °C 0,8 °C 16,1 km/h (3 Bft)
23.01.2018 15:13 4,1 °C 85 % 1026,6 hPa 0,0 mm 8,2 km/h (2 Bft) W-NW 290 ° 0 min 0,000 mm 0,8 UV-I 272 W/m² 1,8 °C 2,0 °C 11,3 km/h (2 Bft)
23.01.2018 15:14 4,1 °C 85 % 1026,6 hPa 0,0 mm 4,2 km/h (1 Bft) W-NW 290 ° 0 min 0,000 mm 0,8 UV-I 260 W/m² 1,8 °C 4,1 °C 6,4 km/h (2 Bft)
23.01.2018 15:15 4,1 °C 85 % 1026,5 hPa 0,0 mm 3,5 km/h (1 Bft) W-NW 292 ° 0 min 0,000 mm 0,8 UV-I 246 W/m² 1,8 °C 4,1 °C 4,8 km/h (1 Bft)
23.01.2018 15:16 4,0 °C 85 % 1026,6 hPa 0,0 mm 8,4 km/h (2 Bft) W 271 ° 0 min 0,000 mm 0,7 UV-I 216 W/m² 1,7 °C 1,9 °C 11,3 km/h (2 Bft)
23.01.2018 15:17 4,0 °C 85 % 1026,6 hPa 0,0 mm 7,5 km/h (2 Bft) W-NW 288 ° 0 min 0,000 mm 0,7 UV-I 142 W/m² 1,7 °C 2,1 °C 11,3 km/h (2 Bft)
23.01.2018 15:18 3,9 °C 85 % 1026,6 hPa 0,0 mm 5,2 km/h (1 Bft) W-NW 288 ° 0 min 0,000 mm 0,7 UV-I 105 W/m² 1,6 °C 2,8 °C 11,3 km/h (2 Bft)
23.01.2018 15:19 4,0 °C 85 % 1026,6 hPa 0,0 mm 9,4 km/h (2 Bft) NW 317 ° 0 min 0,000 mm 0,6 UV-I 69 W/m² 1,7 °C 1,6 °C 12,9 km/h (3 Bft)
23.01.2018 15:20 4,0 °C 85 % 1026,6 hPa 0,0 mm 8,0 km/h (2 Bft) W 269 ° 0 min 0,000 mm 0,6 UV-I 60 W/m² 1,7 °C 2,0 °C 14,5 km/h (3 Bft)
23.01.2018 15:21 4,1 °C 85 % 1026,6 hPa 0,0 mm 11,5 km/h (2 Bft) W 264 ° 0 min 0,000 mm 0,6 UV-I 65 W/m² 1,8 °C 1,3 °C 14,5 km/h (3 Bft)
23.01.2018 15:22 4,1 °C 85 % 1026,6 hPa 0,0 mm 11,9 km/h (2 Bft) NW 314 ° 0 min 0,000 mm 0,6 UV-I 72 W/m² 1,8 °C 1,2 °C 12,9 km/h (3 Bft)
23.01.2018 15:23 4,1 °C 85 % 1026,6 hPa 0,0 mm 8,0 km/h (2 Bft) W-NW 292 ° 0 min 0,000 mm 0,6 UV-I 77 W/m² 1,8 °C 2,1 °C 11,3 km/h (2 Bft)
23.01.2018 15:24 4,1 °C 85 % 1026,6 hPa 0,0 mm 9,9 km/h (2 Bft) W-NW 284 ° 0 min 0,000 mm 0,6 UV-I 83 W/m² 1,8 °C 1,6 °C 12,9 km/h (3 Bft)
23.01.2018 15:25 4,1 °C 85 % 1026,6 hPa 0,0 mm 8,4 km/h (2 Bft) W-NW 284 ° 0 min 0,000 mm 0,6 UV-I 88 W/m² 1,8 °C 2,0 °C 16,1 km/h (3 Bft)
23.01.2018 15:26 4,2 °C 85 % 1026,6 hPa 0,0 mm 14,1 km/h (3 Bft) W 273 ° 0 min 0,000 mm 0,6 UV-I 90 W/m² 1,9 °C 0,9 °C 19,3 km/h (3 Bft)
23.01.2018 15:27 4,1 °C 85 % 1026,6 hPa 0,0 mm 6,0 km/h (2 Bft) W 281 ° 0 min 0,000 mm 0,6 UV-I 86 W/m² 1,8 °C 2,7 °C 12,9 km/h (3 Bft)
23.01.2018 15:28 4,1 °C 85 % 1026,6 hPa 0,0 mm 11,5 km/h (2 Bft) W 265 ° 0 min 0,000 mm 0,6 UV-I 95 W/m² 1,8 °C 1,3 °C 17,7 km/h (3 Bft)
23.01.2018 15:29 4,1 °C 85 % 1026,7 hPa 0,0 mm 8,4 km/h (2 Bft) W-NW 284 ° 0 min 0,000 mm 0,6 UV-I 102 W/m² 1,8 °C 2,0 °C 12,9 km/h (3 Bft)
23.01.2018 15:30 4,1 °C 85 % 1026,7 hPa 0,0 mm 4,8 km/h (1 Bft) W 277 ° 0 min 0,000 mm 0,6 UV-I 97 W/m² 1,8 °C 3,1 °C 11,3 km/h (2 Bft)
23.01.2018 15:31 4,1 °C 85 % 1026,7 hPa 0,0 mm 9,1 km/h (2 Bft) W 263 ° 0 min 0,000 mm 0,6 UV-I 90 W/m² 1,8 °C 1,8 °C 16,1 km/h (3 Bft)
23.01.2018 15:32 4,1 °C 85 % 1026,7 hPa 0,0 mm 6,1 km/h (2 Bft) W 273 ° 0 min 0,000 mm 0,6 UV-I 79 W/m² 1,8 °C 2,7 °C 11,3 km/h (2 Bft)
23.01.2018 15:33 4,1 °C 85 % 1026,7 hPa 0,0 mm 6,1 km/h (2 Bft) W 277 ° 0 min 0,000 mm 0,6 UV-I 74 W/m² 1,8 °C 2,7 °C 9,7 km/h (2 Bft)
23.01.2018 15:34 3,9 °C 85 % 1026,7 hPa 0,0 mm 2,6 km/h (1 Bft) W-NW 282 ° 0 min 0,000 mm 0,5 UV-I 74 W/m² 1,6 °C 3,9 °C 4,8 km/h (1 Bft)
23.01.2018 15:35 3,9 °C 85 % 1026,7 hPa 0,0 mm 6,4 km/h (2 Bft) W-NW 292 ° 0 min 0,000 mm 0,5 UV-I 70 W/m² 1,6 °C 2,3 °C 11,3 km/h (2 Bft)
23.01.2018 15:36 3,8 °C 85 % 1026,8 hPa 0,0 mm 5,4 km/h (1 Bft) W 271 ° 0 min 0,000 mm 0,5 UV-I 69 W/m² 1,5 °C 2,6 °C 6,4 km/h (2 Bft)
23.01.2018 15:37 3,8 °C 85 % 1026,7 hPa 0,0 mm 10,8 km/h (2 Bft) W 263 ° 0 min 0,000 mm 0,5 UV-I 69 W/m² 1,5 °C 1,0 °C 12,9 km/h (3 Bft)
23.01.2018 15:38 3,8 °C 86 % 1026,8 hPa 0,0 mm 13,1 km/h (3 Bft) W 273 ° 0 min 0,000 mm 0,5 UV-I 69 W/m² 1,7 °C 0,6 °C 16,1 km/h (3 Bft)
23.01.2018 15:39 3,8 °C 86 % 1026,8 hPa 0,0 mm 8,7 km/h (2 Bft) W 277 ° 0 min 0,000 mm 0,5 UV-I 70 W/m² 1,7 °C 1,5 °C 12,9 km/h (3 Bft)
23.01.2018 15:40 3,8 °C 86 % 1026,8 hPa 0,0 mm 4,9 km/h (1 Bft) W 259 ° 0 min 0,000 mm 0,5 UV-I 76 W/m² 1,7 °C 2,8 °C 6,4 km/h (2 Bft)
23.01.2018 15:41 3,8 °C 86 % 1026,8 hPa 0,0 mm 3,2 km/h (1 Bft) W 278 ° 0 min 0,000 mm 0,5 UV-I 72 W/m² 1,7 °C 3,8 °C 4,8 km/h (1 Bft)
23.01.2018 15:42 3,8 °C 86 % 1026,9 hPa 0,0 mm 3,8 km/h (1 Bft) W-SW 251 ° 0 min 0,000 mm 0,0 UV-I 74 W/m² 1,7 °C 3,8 °C 6,4 km/h (2 Bft)
23.01.2018 15:43 3,7 °C 86 % 1026,9 hPa 0,0 mm 3,2 km/h (1 Bft) W-SW 251 ° 0 min 0,000 mm 0,0 UV-I 77 W/m² 1,6 °C 3,7 °C 4,8 km/h (1 Bft)
23.01.2018 15:44 3,7 °C 86 % 1026,9 hPa 0,0 mm 2,1 km/h (1 Bft) W-SW 252 ° 0 min 0,000 mm 0,0 UV-I 72 W/m² 1,6 °C 3,7 °C 4,8 km/h (1 Bft)
23.01.2018 15:45 3,7 °C 86 % 1026,9 hPa 0,0 mm 4,6 km/h (1 Bft) W-SW 252 ° 0 min 0,000 mm 0,0 UV-I 67 W/m² 1,6 °C 2,8 °C 8,0 km/h (2 Bft)
23.01.2018 15:46 3,7 °C 87 % 1027,0 hPa 0,0 mm 6,9 km/h (2 Bft) W-NW 292 ° 0 min 0,000 mm 0,0 UV-I 69 W/m² 1,7 °C 1,9 °C 9,7 km/h (2 Bft)
23.01.2018 15:47 3,6 °C 87 % 1026,9 hPa 0,0 mm 5,1 km/h (1 Bft) W 267 ° 0 min 0,000 mm 0,0 UV-I 69 W/m² 1,6 °C 2,5 °C 6,4 km/h (2 Bft)
23.01.2018 15:48 3,6 °C 87 % 1026,9 hPa 0,0 mm 7,7 km/h (2 Bft) W 263 ° 0 min 0,000 mm 0,0 UV-I 67 W/m² 1,6 °C 1,6 °C 9,7 km/h (2 Bft)
23.01.2018 15:49 3,6 °C 87 % 1027,0 hPa 0,0 mm 7,0 km/h (2 Bft) W 264 ° 0 min 0,000 mm 0,0 UV-I 65 W/m² 1,6 °C 1,8 °C 9,7 km/h (2 Bft)
23.01.2018 15:50 3,6 °C 87 % 1027,0 hPa 0,0 mm 5,8 km/h (2 Bft) W-NW 282 ° 0 min 0,000 mm 0,0 UV-I 62 W/m² 1,6 °C 2,2 °C 9,7 km/h (2 Bft)
23.01.2018 15:51 3,6 °C 87 % 1027,0 hPa 0,0 mm 6,0 km/h (2 Bft) W 259 ° 0 min 0,000 mm 0,0 UV-I 56 W/m² 1,6 °C 2,1 °C 9,7 km/h (2 Bft)
23.01.2018 15:52 3,6 °C 87 % 1027,0 hPa 0,0 mm 5,8 km/h (2 Bft) W 267 ° 0 min 0,000 mm 0,0 UV-I 53 W/m² 1,6 °C 2,2 °C 11,3 km/h (2 Bft)
23.01.2018 15:53 3,6 °C 87 % 1026,9 hPa 0,0 mm 3,8 km/h (1 Bft) W 273 ° 0 min 0,000 mm 0,0 UV-I 54 W/m² 1,6 °C 3,6 °C 6,4 km/h (2 Bft)
23.01.2018 15:54 3,6 °C 87 % 1027,0 hPa 0,0 mm 2,9 km/h (1 Bft) W 274 ° 0 min 0,000 mm 0,0 UV-I 54 W/m² 1,6 °C 3,6 °C 6,4 km/h (2 Bft)
23.01.2018 15:55 3,6 °C 87 % 1027,0 hPa 0,0 mm 1,8 km/h (1 Bft) W 261 ° 0 min 0,000 mm 0,0 UV-I 49 W/m² 1,6 °C 3,6 °C 3,2 km/h (1 Bft)
23.01.2018 15:56 3,6 °C 87 % 1027,0 hPa 0,0 mm 2,7 km/h (1 Bft) W 261 ° 0 min 0,000 mm 0,0 UV-I 51 W/m² 1,6 °C 3,6 °C 4,8 km/h (1 Bft)
23.01.2018 15:57 3,6 °C 87 % 1027,0 hPa 0,0 mm 3,4 km/h (1 Bft) W 273 ° 0 min 0,000 mm 0,0 UV-I 53 W/m² 1,6 °C 3,6 °C 4,8 km/h (1 Bft)
23.01.2018 15:58 3,6 °C 87 % 1027,0 hPa 0,0 mm 8,8 km/h (2 Bft) S-SW 198 ° 0 min 0,000 mm 0,0 UV-I 47 W/m² 1,6 °C 1,3 °C 12,9 km/h (3 Bft)
23.01.2018 15:59 3,7 °C 87 % 1027,0 hPa 0,0 mm 4,7 km/h (1 Bft) W-SW 242 ° 0 min 0,000 mm 0,0 UV-I 46 W/m² 1,7 °C 2,7 °C 8,0 km/h (2 Bft)
23.01.2018 16:00 3,7 °C 87 % 1026,9 hPa 0,0 mm 3,0 km/h (1 Bft) W-SW 248 ° 0 min 0,000 mm 0,0 UV-I 44 W/m² 1,7 °C 3,7 °C 4,8 km/h (1 Bft)
23.01.2018 16:01 3,7 °C 87 % 1027,0 hPa 0,0 mm 5,4 km/h (1 Bft) S-SW 209 ° 0 min 0,051 mm 0,0 UV-I 42 W/m² 1,7 °C 2,4 °C 6,4 km/h (2 Bft)
23.01.2018 16:02 3,7 °C 87 % 1027,0 hPa 0,0 mm 6,7 km/h (2 Bft) SW 214 ° 0 min 0,000 mm 0,0 UV-I 44 W/m² 1,7 °C 2,0 °C 11,3 km/h (2 Bft)
23.01.2018 16:03 3,7 °C 87 % 1027,0 hPa 0,0 mm 5,9 km/h (2 Bft) S-SW 201 ° 0 min 0,000 mm 0,0 UV-I 44 W/m² 1,7 °C 2,3 °C 8,0 km/h (2 Bft)
23.01.2018 16:04 3,7 °C 87 % 1027,0 hPa 0,0 mm 4,3 km/h (1 Bft) W 259 ° 0 min 0,000 mm 0,0 UV-I 42 W/m² 1,7 °C 3,7 °C 6,4 km/h (2 Bft)
23.01.2018 16:05 3,7 °C 87 % 1027,0 hPa 0,0 mm 4,6 km/h (1 Bft) W-SW 248 ° 0 min 0,000 mm 0,0 UV-I 40 W/m² 1,7 °C 2,8 °C 9,7 km/h (2 Bft)
23.01.2018 16:06 3,7 °C 87 % 1027,0 hPa 0,0 mm 7,4 km/h (2 Bft) W-SW 257 ° 0 min 0,000 mm 0,0 UV-I 40 W/m² 1,7 °C 1,8 °C 11,3 km/h (2 Bft)
23.01.2018 16:07 3,7 °C 87 % 1027,0 hPa 0,0 mm 4,0 km/h (1 Bft) W-SW 249 ° 0 min 0,000 mm 0,0 UV-I 39 W/m² 1,7 °C 3,7 °C 4,8 km/h (1 Bft)
23.01.2018 16:08 3,7 °C 87 % 1027,0 hPa 0,0 mm 2,4 km/h (1 Bft) W-SW 246 ° 0 min 0,000 mm 0,0 UV-I 37 W/m² 1,7 °C 3,7 °C 4,8 km/h (1 Bft)
23.01.2018 16:09 3,7 °C 87 % 1027,1 hPa 0,0 mm 5,3 km/h (1 Bft) SW 235 ° 0 min 0,000 mm 0,0 UV-I 39 W/m² 1,7 °C 2,5 °C 8,0 km/h (2 Bft)
23.01.2018 16:10 3,7 °C 87 % 1027,0 hPa 0,0 mm 2,5 km/h (1 Bft) W-SW 248 ° 0 min 0,000 mm 0,0 UV-I 37 W/m² 1,7 °C 3,7 °C 4,8 km/h (1 Bft)
23.01.2018 16:11 3,7 °C 87 % 1027,0 hPa 0,0 mm 2,9 km/h (1 Bft) W-SW 251 ° 0 min 0,000 mm 0,0 UV-I 33 W/m² 1,7 °C 3,7 °C 4,8 km/h (1 Bft)
23.01.2018 16:12 3,7 °C 87 % 1027,0 hPa 0,0 mm 5,8 km/h (2 Bft) W-SW 254 ° 0 min 0,000 mm 0,0 UV-I 33 W/m² 1,7 °C 2,3 °C 11,3 km/h (2 Bft)
23.01.2018 16:13 3,6 °C 87 % 1027,0 hPa 0,0 mm 8,0 km/h (2 Bft) W-SW 250 ° 0 min 0,000 mm 0,0 UV-I 35 W/m² 1,6 °C 1,5 °C 11,3 km/h (2 Bft)
23.01.2018 16:14 3,5 °C 87 % 1027,0 hPa 0,0 mm 9,5 km/h (2 Bft) W 273 ° 0 min 0,000 mm 0,0 UV-I 35 W/m² 1,5 °C 1,0 °C 14,5 km/h (3 Bft)
23.01.2018 16:15 3,4 °C 87 % 1027,0 hPa 0,0 mm 4,8 km/h (1 Bft) W 265 ° 0 min 0,000 mm 0,0 UV-I 33 W/m² 1,4 °C 2,4 °C 9,7 km/h (2 Bft)
23.01.2018 16:16 3,4 °C 87 % 1027,1 hPa 0,0 mm 4,5 km/h (1 Bft) W-SW 254 ° 0 min 0,000 mm 0,0 UV-I 33 W/m² 1,4 °C 3,4 °C 8,0 km/h (2 Bft)
23.01.2018 16:17 3,4 °C 87 % 1027,0 hPa 0,0 mm 5,8 km/h (2 Bft) W 268 ° 0 min 0,000 mm 0,0 UV-I 33 W/m² 1,4 °C 2,0 °C 6,4 km/h (2 Bft)
23.01.2018 16:18 3,4 °C 87 % 1027,0 hPa 0,0 mm 5,5 km/h (1 Bft) W 265 ° 0 min 0,000 mm 0,0 UV-I 32 W/m² 1,4 °C 2,1 °C 9,7 km/h (2 Bft)
23.01.2018 16:19 3,4 °C 87 % 1027,0 hPa 0,0 mm 4,7 km/h (1 Bft) W 275 ° 0 min 0,000 mm 0,0 UV-I 32 W/m² 1,4 °C 2,4 °C 6,4 km/h (2 Bft)
23.01.2018 16:20 3,3 °C 88 % 1027,0 hPa 0,0 mm 4,8 km/h (1 Bft) W 260 ° 0 min 0,000 mm 0,0 UV-I 33 W/m² 1,5 °C 2,2 °C 6,4 km/h (2 Bft)
23.01.2018 16:21 3,4 °C 88 % 1027,0 hPa 0,0 mm 5,2 km/h (1 Bft) W-NW 292 ° 0 min 0,000 mm 0,0 UV-I 32 W/m² 1,6 °C 2,2 °C 8,0 km/h (2 Bft)
23.01.2018 16:22 3,3 °C 88 % 1027,0 hPa 0,0 mm 4,4 km/h (1 Bft) W-NW 283 ° 0 min 0,000 mm 0,0 UV-I 28 W/m² 1,5 °C 3,3 °C 6,4 km/h (2 Bft)
23.01.2018 16:23 3,3 °C 88 % 1027,0 hPa 0,0 mm 3,9 km/h (1 Bft) W 271 ° 0 min 0,000 mm 0,0 UV-I 26 W/m² 1,5 °C 3,3 °C 6,4 km/h (2 Bft)
23.01.2018 16:24 3,3 °C 88 % 1027,0 hPa 0,0 mm 4,2 km/h (1 Bft) W 281 ° 0 min 0,000 mm 0,0 UV-I 26 W/m² 1,5 °C 3,3 °C 6,4 km/h (2 Bft)
23.01.2018 16:25 3,3 °C 88 % 1027,0 hPa 0,0 mm 4,1 km/h (1 Bft) W 270 ° 0 min 0,000 mm 0,0 UV-I 25 W/m² 1,5 °C 3,3 °C 4,8 km/h (1 Bft)
23.01.2018 16:26 3,3 °C 88 % 1027,0 hPa 0,0 mm 6,9 km/h (2 Bft) W 279 ° 0 min 0,000 mm 0,0 UV-I 25 W/m² 1,5 °C 1,5 °C 11,3 km/h (2 Bft)
23.01.2018 16:27 3,3 °C 88 % 1027,0 hPa 0,0 mm 4,5 km/h (1 Bft) W-NW 294 ° 0 min 0,000 mm 0,0 UV-I 21 W/m² 1,5 °C 3,3 °C 6,4 km/h (2 Bft)
23.01.2018 16:28 3,3 °C 88 % 1027,0 hPa 0,0 mm 5,2 km/h (1 Bft) W-NW 282 ° 0 min 0,000 mm 0,0 UV-I 18 W/m² 1,5 °C 2,1 °C 6,4 km/h (2 Bft)
23.01.2018 16:29 3,3 °C 88 % 1027,0 hPa 0,0 mm 2,5 km/h (1 Bft) W-NW 288 ° 0 min 0,000 mm 0,0 UV-I 18 W/m² 1,5 °C 3,3 °C 6,4 km/h (2 Bft)
23.01.2018 16:30 3,2 °C 88 % 1026,9 hPa 0,0 mm 3,2 km/h (1 Bft) W-NW 288 ° 0 min 0,000 mm 0,0 UV-I 18 W/m² 1,4 °C 3,2 °C 4,8 km/h (1 Bft)
23.01.2018 16:31 3,2 °C 88 % 1027,0 hPa 0,0 mm 3,0 km/h (1 Bft) W-NW 288 ° 0 min 0,000 mm 0,0 UV-I 18 W/m² 1,4 °C 3,2 °C 4,8 km/h (1 Bft)
23.01.2018 16:32 3,2 °C 88 % 1027,0 hPa 0,0 mm 2,7 km/h (1 Bft) W-NW 288 ° 0 min 0,000 mm 0,0 UV-I 16 W/m² 1,4 °C 3,2 °C 4,8 km/h (1 Bft)
23.01.2018 16:33 3,2 °C 88 % 1027,0 hPa 0,0 mm 4,4 km/h (1 Bft) W-NW 288 ° 0 min 0,000 mm 0,0 UV-I 14 W/m² 1,4 °C 3,2 °C 6,4 km/h (2 Bft)
23.01.2018 16:34 3,1 °C 88 % 1027,0 hPa 0,0 mm 4,4 km/h (1 Bft) W-NW 289 ° 0 min 0,000 mm 0,0 UV-I 14 W/m² 1,3 °C 3,1 °C 6,4 km/h (2 Bft)
23.01.2018 16:35 3,1 °C 88 % 1027,0 hPa 0,0 mm 5,4 km/h (1 Bft) W-NW 287 ° 0 min 0,000 mm 0,0 UV-I 12 W/m² 1,3 °C 1,8 °C 9,7 km/h (2 Bft)
23.01.2018 16:36 3,1 °C 88 % 1027,0 hPa 0,0 mm 4,0 km/h (1 Bft) W-NW 295 ° 0 min 0,000 mm 0,0 UV-I 12 W/m² 1,3 °C 3,1 °C 8,0 km/h (2 Bft)
23.01.2018 16:37 3,1 °C 88 % 1027,0 hPa 0,0 mm 1,8 km/h (1 Bft) W-NW 295 ° 0 min 0,000 mm 0,0 UV-I 12 W/m² 1,3 °C 3,1 °C 3,2 km/h (1 Bft)
23.01.2018 16:38 3,0 °C 88 % 1027,1 hPa 0,0 mm 2,7 km/h (1 Bft) W-NW 295 ° 0 min 0,000 mm 0,0 UV-I 12 W/m² 1,2 °C 3,0 °C 4,8 km/h (1 Bft)
23.01.2018 16:39 3,0 °C 89 % 1027,1 hPa 0,0 mm 3,2 km/h (1 Bft) W-NW 295 ° 0 min 0,000 mm 0,0 UV-I 11 W/m² 1,4 °C 3,0 °C 4,8 km/h (1 Bft)
23.01.2018 16:40 3,0 °C 88 % 1027,1 hPa 0,0 mm 3,9 km/h (1 Bft) W-NW 295 ° 0 min 0,000 mm 0,0 UV-I 11 W/m² 1,2 °C 3,0 °C 4,8 km/h (1 Bft)
23.01.2018 16:41 2,9 °C 89 % 1027,1 hPa 0,0 mm 2,3 km/h (1 Bft) W-NW 295 ° 0 min 0,000 mm 0,0 UV-I 9 W/m² 1,3 °C 2,9 °C 3,2 km/h (1 Bft)
23.01.2018 16:42 2,9 °C 89 % 1027,1 hPa 0,0 mm 2,5 km/h (1 Bft) W-NW 295 ° 0 min 0,000 mm 0,0 UV-I 9 W/m² 1,3 °C 2,9 °C 4,8 km/h (1 Bft)
23.01.2018 16:43 2,8 °C 89 % 1027,2 hPa 0,0 mm 2,8 km/h (1 Bft) W-NW 294 ° 0 min 0,000 mm 0,0 UV-I 9 W/m² 1,2 °C 2,8 °C 4,8 km/h (1 Bft)
23.01.2018 16:44 2,8 °C 89 % 1027,1 hPa 0,0 mm 4,9 km/h (1 Bft) W 274 ° 0 min 0,000 mm 0,0 UV-I 7 W/m² 1,2 °C 1,6 °C 6,4 km/h (2 Bft)
23.01.2018 16:45 2,8 °C 89 % 1027,2 hPa 0,0 mm 3,6 km/h (1 Bft) W 275 ° 0 min 0,000 mm 0,0 UV-I 7 W/m² 1,2 °C 2,8 °C 4,8 km/h (1 Bft)
23.01.2018 16:46 2,8 °C 89 % 1027,2 hPa 0,0 mm 2,9 km/h (1 Bft) W 275 ° 0 min 0,000 mm 0,0 UV-I 7 W/m² 1,2 °C 2,8 °C 4,8 km/h (1 Bft)
23.01.2018 16:47 2,8 °C 89 % 1027,2 hPa 0,0 mm 3,2 km/h (1 Bft) W 275 ° 0 min 0,000 mm 0,0 UV-I 7 W/m² 1,2 °C 2,8 °C 4,8 km/h (1 Bft)
23.01.2018 16:48 2,8 °C 89 % 1027,2 hPa 0,0 mm 2,6 km/h (1 Bft) W 264 ° 0 min 0,000 mm 0,0 UV-I 7 W/m² 1,2 °C 2,8 °C 4,8 km/h (1 Bft)
23.01.2018 16:49 2,8 °C 89 % 1027,1 hPa 0,0 mm 2,5 km/h (1 Bft) W 264 ° 0 min 0,000 mm 0,0 UV-I 7 W/m² 1,2 °C 2,8 °C 4,8 km/h (1 Bft)
23.01.2018 16:50 2,8 °C 89 % 1027,1 hPa 0,0 mm 2,2 km/h (1 Bft) W 259 ° 0 min 0,000 mm 0,0 UV-I 5 W/m² 1,2 °C 2,8 °C 4,8 km/h (1 Bft)
23.01.2018 16:51 2,8 °C 89 % 1027,1 hPa 0,0 mm 3,4 km/h (1 Bft) W 259 ° 0 min 0,000 mm 0,0 UV-I 5 W/m² 1,2 °C 2,8 °C 6,4 km/h (2 Bft)
23.01.2018 16:52 2,8 °C 89 % 1027,1 hPa 0,0 mm 6,7 km/h (2 Bft) W 273 ° 0 min 0,000 mm 0,0 UV-I 5 W/m² 1,2 °C 1,0 °C 11,3 km/h (2 Bft)
23.01.2018 16:53 2,8 °C 89 % 1027,1 hPa 0,0 mm 3,2 km/h (1 Bft) W-SW 252 ° 0 min 0,000 mm 0,0 UV-I 5 W/m² 1,2 °C 2,8 °C 4,8 km/h (1 Bft)
23.01.2018 16:54 2,9 °C 89 % 1027,1 hPa 0,0 mm 2,0 km/h (1 Bft) W-SW 252 ° 0 min 0,000 mm 0,0 UV-I 5 W/m² 1,3 °C 2,9 °C 3,2 km/h (1 Bft)
23.01.2018 16:55 2,8 °C 89 % 1027,1 hPa 0,0 mm 1,5 km/h (1 Bft) W-SW 252 ° 0 min 0,000 mm 0,0 UV-I 5 W/m² 1,2 °C 2,8 °C 3,2 km/h (1 Bft)
23.01.2018 16:56 2,9 °C 89 % 1027,1 hPa 0,0 mm 1,7 km/h (1 Bft) W-SW 252 ° 0 min 0,000 mm 0,0 UV-I 0 W/m² 1,3 °C 2,9 °C 3,2 km/h (1 Bft)
23.01.2018 16:57 2,9 °C 89 % 1027,1 hPa 0,0 mm 1,0 km/h (0 Bft) W-SW 252 ° 0 min 0,000 mm 0,0 UV-I 0 W/m² 1,3 °C 2,9 °C 3,2 km/h (1 Bft)
23.01.2018 16:59 2,9 °C 89 % 1027,2 hPa 0,0 mm 1,6 km/h (1 Bft) W-SW 252 ° 0 min 0,000 mm 0,0 UV-I 0 W/m² 1,3 °C 2,9 °C 3,2 km/h (1 Bft)
23.01.2018 17:00 2,9 °C 89 % 1027,2 hPa 0,0 mm 2,1 km/h (1 Bft) W-SW 251 ° 0 min 0,000 mm 0,0 UV-I 0 W/m² 1,3 °C 2,9 °C 4,8 km/h (1 Bft)
23.01.2018 17:01 2,9 °C 89 % 1027,2 hPa 0,0 mm 2,3 km/h (1 Bft) W-SW 251 ° 0 min 0,025 mm 0,0 UV-I 0 W/m² 1,3 °C 2,9 °C 3,2 km/h (1 Bft)
23.01.2018 17:02 2,9 °C 89 % 1027,2 hPa 0,0 mm 1,9 km/h (1 Bft) W-SW 251 ° 0 min 0,000 mm 0,0 UV-I 0 W/m² 1,3 °C 2,9 °C 3,2 km/h (1 Bft)
23.01.2018 17:03 2,9 °C 89 % 1027,3 hPa 0,0 mm 1,8 km/h (1 Bft) W 260 ° 0 min 0,000 mm 0,0 UV-I 0 W/m² 1,3 °C 2,9 °C 4,8 km/h (1 Bft)
23.01.2018 17:04 2,9 °C 89 % 1027,3 hPa 0,0 mm 1,5 km/h (1 Bft) W 260 ° 0 min 0,000 mm 0,0 UV-I 0 W/m² 1,3 °C 2,9 °C 3,2 km/h (1 Bft)
23.01.2018 17:05 2,9 °C 89 % 1027,3 hPa 0,0 mm 2,3 km/h (1 Bft) W-SW 252 ° 0 min 0,000 mm 0,0 UV-I 0 W/m² 1,3 °C 2,9 °C 3,2 km/h (1 Bft)
23.01.2018 17:06 2,9 °C 89 % 1027,3 hPa 0,0 mm 0,9 km/h (0 Bft) W-SW 249 ° 0 min 0,000 mm 0,0 UV-I 0 W/m² 1,3 °C 2,9 °C 3,2 km/h (1 Bft)
23.01.2018 17:07 2,9 °C 89 % 1027,3 hPa 0,0 mm 1,5 km/h (1 Bft) W-SW 249 ° 0 min 0,000 mm 0,0 UV-I 0 W/m² 1,3 °C 2,9 °C 3,2 km/h (1 Bft)
23.01.2018 17:09 3,0 °C 89 % 1027,4 hPa 0,0 mm 1,7 km/h (1 Bft) W-SW 256 ° 0 min 0,000 mm 0,0 UV-I 0 W/m² 1,4 °C 3,0 °C 6,4 km/h (2 Bft)
23.01.2018 17:10 3,0 °C 89 % 1027,4 hPa 0,0 mm 3,0 km/h (1 Bft) W 265 ° 0 min 0,000 mm 0,0 UV-I 0 W/m² 1,4 °C 3,0 °C 4,8 km/h (1 Bft)
23.01.2018 17:11 3,1 °C 89 % 1027,4 hPa 0,0 mm 3,6 km/h (1 Bft) W 265 ° 0 min 0,000 mm 0,0 UV-I 0 W/m² 1,5 °C 3,1 °C 6,4 km/h (2 Bft)
23.01.2018 17:12 3,0 °C 89 % 1027,3 hPa 0,0 mm 3,4 km/h (1 Bft) W 265 ° 0 min 0,000 mm 0,0 UV-I 0 W/m² 1,4 °C 3,0 °C 4,8 km/h (1 Bft)
23.01.2018 17:14 3,0 °C 88 % 1027,3 hPa 0,0 mm 1,4 km/h (1 Bft) W 265 ° 0 min 0,000 mm 0,0 UV-I 0 W/m² 1,2 °C 3,0 °C 3,2 km/h (1 Bft)
23.01.2018 17:15 3,0 °C 89 % 1027,3 hPa 0,0 mm 1,8 km/h (1 Bft) W 265 ° 0 min 0,000 mm 0,0 UV-I 0 W/m² 1,4 °C 3,0 °C 3,2 km/h (1 Bft)
23.01.2018 17:16 3,0 °C 89 % 1027,3 hPa 0,0 mm 2,3 km/h (1 Bft) W 265 ° 0 min 0,000 mm 0,0 UV-I 0 W/m² 1,4 °C 3,0 °C 3,2 km/h (1 Bft)
23.01.2018 17:17 3,0 °C 89 % 1027,3 hPa 0,0 mm 2,4 km/h (1 Bft) W-SW 255 ° 0 min 0,000 mm 0,0 UV-I 0 W/m² 1,4 °C 3,0 °C 4,8 km/h (1 Bft)
23.01.2018 17:18 3,0 °C 89 % 1027,3 hPa 0,0 mm 1,5 km/h (1 Bft) W-SW 256 ° 0 min 0,000 mm 0,0 UV-I 0 W/m² 1,4 °C 3,0 °C 3,2 km/h (1 Bft)
23.01.2018 17:19 2,9 °C 89 % 1027,3 hPa 0,0 mm 0,9 km/h (0 Bft) W-SW 256 ° 0 min 0,000 mm 0,0 UV-I 0 W/m² 1,3 °C 2,9 °C 1,6 km/h (1 Bft)
23.01.2018 17:20 2,9 °C 89 % 1027,3 hPa 0,0 mm 0,7 km/h (0 Bft) W-SW 255 ° 0 min 0,000 mm 0,0 UV-I 0 W/m² 1,3 °C 2,9 °C 1,6 km/h (1 Bft)
23.01.2018 17:21 2,9 °C 89 % 1027,3 hPa 0,0 mm 1,5 km/h (1 Bft) W-SW 255 ° 0 min 0,000 mm 0,0 UV-I 0 W/m² 1,3 °C 2,9 °C 3,2 km/h (1 Bft)
23.01.2018 17:22 2,9 °C 89 % 1027,3 hPa 0,0 mm 1,0 km/h (0 Bft) W-SW 255 ° 0 min 0,000 mm 0,0 UV-I 0 W/m² 1,3 °C 2,9 °C 3,2 km/h (1 Bft)
23.01.2018 17:23 2,9 °C 89 % 1027,4 hPa 0,0 mm 0,5 km/h (0 Bft) W-SW 255 ° 0 min 0,000 mm 0,0 UV-I 0 W/m² 1,3 °C 2,9 °C 3,2 km/h (1 Bft)
23.01.2018 17:24 2,9 °C 89 % 1027,4 hPa 0,0 mm 2,4 km/h (1 Bft) W-SW 255 ° 0 min 0,000 mm 0,0 UV-I 0 W/m² 1,3 °C 2,9 °C 3,2 km/h (1 Bft)
23.01.2018 17:25 2,9 °C 89 % 1027,4 hPa 0,0 mm 1,9 km/h (1 Bft) W-SW 255 ° 0 min 0,000 mm 0,0 UV-I 0 W/m² 1,3 °C 2,9 °C 3,2 km/h (1 Bft)
23.01.2018 17:26 2,9 °C 89 % 1027,4 hPa 0,0 mm 2,9 km/h (1 Bft) W-SW 255 ° 0 min 0,000 mm 0,0 UV-I 0 W/m² 1,3 °C 2,9 °C 3,2 km/h (1 Bft)
23.01.2018 17:27 3,0 °C 89 % 1027,4 hPa 0,0 mm 2,2 km/h (1 Bft) W-SW 255 ° 0 min 0,000 mm 0,0 UV-I 0 W/m² 1,4 °C 3,0 °C 3,2 km/h (1 Bft)
23.01.2018 17:28 2,9 °C 89 % 1027,4 hPa 0,0 mm 2,9 km/h (1 Bft) W-SW 255 ° 0 min 0,000 mm 0,0 UV-I 0 W/m² 1,3 °C 2,9 °C 4,8 km/h (1 Bft)
23.01.2018 17:29 2,9 °C 89 % 1027,4 hPa 0,0 mm 3,2 km/h (1 Bft) W-SW 255 ° 0 min 0,000 mm 0,0 UV-I 0 W/m² 1,3 °C 2,9 °C 4,8 km/h (1 Bft)
23.01.2018 17:30 2,9 °C 89 % 1027,4 hPa 0,0 mm 4,0 km/h (1 Bft) W-SW 248 ° 0 min 0,000 mm 0,0 UV-I 0 W/m² 1,3 °C 2,9 °C 6,4 km/h (2 Bft)
23.01.2018 17:31 2,9 °C 89 % 1027,4 hPa 0,0 mm 3,4 km/h (1 Bft) W-SW 240 ° 0 min 0,000 mm 0,0 UV-I 0 W/m² 1,3 °C 2,9 °C 6,4 km/h (2 Bft)
23.01.2018 17:32 2,9 °C 89 % 1027,4 hPa 0,0 mm 4,5 km/h (1 Bft) W-SW 239 ° 0 min 0,000 mm 0,0 UV-I 0 W/m² 1,3 °C 2,9 °C 6,4 km/h (2 Bft)
23.01.2018 17:33 2,9 °C 89 % 1027,4 hPa 0,0 mm 4,3 km/h (1 Bft) W-SW 238 ° 0 min 0,000 mm 0,0 UV-I 0 W/m² 1,3 °C 2,9 °C 4,8 km/h (1 Bft)
23.01.2018 17:34 2,9 °C 89 % 1027,4 hPa 0,0 mm 2,2 km/h (1 Bft) W-SW 238 ° 0 min 0,000 mm 0,0 UV-I 0 W/m² 1,3 °C 2,9 °C 4,8 km/h (1 Bft)
23.01.2018 17:35 2,8 °C 89 % 1027,4 hPa 0,0 mm 4,0 km/h (1 Bft) SW 234 ° 0 min 0,000 mm 0,0 UV-I 0 W/m² 1,2 °C 2,8 °C 4,8 km/h (1 Bft)
23.01.2018 17:36 2,9 °C 89 % 1027,4 hPa 0,0 mm 4,5 km/h (1 Bft) SW 229 ° 0 min 0,000 mm 0,0 UV-I 0 W/m² 1,3 °C 2,9 °C 4,8 km/h (1 Bft)
23.01.2018 17:37 2,8 °C 89 % 1027,4 hPa 0,0 mm 1,6 km/h (1 Bft) SW 229 ° 0 min 0,000 mm 0,0 UV-I 0 W/m² 1,2 °C 2,8 °C 3,2 km/h (1 Bft)
23.01.2018 17:38 2,9 °C 89 % 1027,4 hPa 0,0 mm 1,2 km/h (1 Bft) SW 229 ° 0 min 0,000 mm 0,0 UV-I 0 W/m² 1,3 °C 2,9 °C 3,2 km/h (1 Bft)
23.01.2018 17:39 2,9 °C 89 % 1027,4 hPa 0,0 mm 2,1 km/h (1 Bft) SW 229 ° 0 min 0,000 mm 0,0 UV-I 0 W/m² 1,3 °C 2,9 °C 4,8 km/h (1 Bft)
23.01.2018 17:40 2,8 °C 89 % 1027,4 hPa 0,0 mm 3,4 km/h (1 Bft) SW 228 ° 0 min 0,000 mm 0,0 UV-I 0 W/m² 1,2 °C 2,8 °C 4,8 km/h (1 Bft)
23.01.2018 17:41 2,9 °C 90 % 1027,5 hPa 0,0 mm 3,2 km/h (1 Bft) SW 226 ° 0 min 0,000 mm 0,0 UV-I 0 W/m² 1,4 °C 2,9 °C 4,8 km/h (1 Bft)
23.01.2018 17:42 2,9 °C 90 % 1027,4 hPa 0,0 mm 4,4 km/h (1 Bft) SW 214 ° 0 min 0,000 mm 0,0 UV-I 0 W/m² 1,4 °C 2,9 °C 4,8 km/h (1 Bft)
23.01.2018 17:44 2,9 °C 89 % 1027,5 hPa 0,0 mm 1,6 km/h (1 Bft) SW 214 ° 0 min 0,000 mm 0,0 UV-I 0 W/m² 1,3 °C 2,9 °C 4,8 km/h (1 Bft)
23.01.2018 17:45 2,9 °C 89 % 1027,5 hPa 0,0 mm 0,5 km/h (0 Bft) SW 214 ° 0 min 0,000 mm 0,0 UV-I 0 W/m² 1,3 °C 2,9 °C 1,6 km/h (1 Bft)
23.01.2018 17:46 2,9 °C 89 % 1027,4 hPa 0,0 mm 0,0 km/h (0 Bft) SW 214 ° 0 min 0,000 mm 0,0 UV-I 0 W/m² 1,3 °C 2,9 °C 0,0 km/h (0 Bft)
23.01.2018 17:47 2,9 °C 89 % 1027,4 hPa 0,0 mm 1,6 km/h (1 Bft) SW 214 ° 0 min 0,000 mm 0,0 UV-I 0 W/m² 1,3 °C 2,9 °C 3,2 km/h (1 Bft)
23.01.2018 17:48 2,9 °C 89 % 1027,4 hPa 0,0 mm 2,5 km/h (1 Bft) SW 214 ° 0 min 0,000 mm 0,0 UV-I 0 W/m² 1,3 °C 2,9 °C 4,8 km/h (1 Bft)
23.01.2018 17:49 2,8 °C 89 % 1027,4 hPa 0,0 mm 3,0 km/h (1 Bft) SW 214 ° 0 min 0,000 mm 0,0 UV-I 0 W/m² 1,2 °C 2,8 °C 4,8 km/h (1 Bft)
23.01.2018 17:50 2,8 °C 89 % 1027,4 hPa 0,0 mm 1,5 km/h (1 Bft) SW 214 ° 0 min 0,000 mm 0,0 UV-I 0 W/m² 1,2 °C 2,8 °C 3,2 km/h (1 Bft)
23.01.2018 17:51 2,8 °C 89 % 1027,4 hPa 0,0 mm 2,8 km/h (1 Bft) SW 214 ° 0 min 0,000 mm 0,0 UV-I 0 W/m² 1,2 °C 2,8 °C 3,2 km/h (1 Bft)
23.01.2018 17:52 2,8 °C 90 % 1027,4 hPa 0,0 mm 3,3 km/h (1 Bft) SW 214 ° 0 min 0,000 mm 0,0 UV-I 0 W/m² 1,3 °C 2,8 °C 4,8 km/h (1 Bft)
23.01.2018 17:53 2,8 °C 90 % 1027,5 hPa 0,0 mm 3,4 km/h (1 Bft) SW 214 ° 0 min 0,000 mm 0,0 UV-I 0 W/m² 1,3 °C 2,8 °C 4,8 km/h (1 Bft)
23.01.2018 17:54 2,8 °C 90 % 1027,5 hPa 0,0 mm 3,2 km/h (1 Bft) SW 214 ° 0 min 0,000 mm 0,0 UV-I 0 W/m² 1,3 °C 2,8 °C 4,8 km/h (1 Bft)
23.01.2018 17:55 2,7 °C 90 % 1027,5 hPa 0,0 mm 3,5 km/h (1 Bft) SW 214 ° 0 min 0,000 mm 0,0 UV-I 0 W/m² 1,2 °C 2,7 °C 4,8 km/h (1 Bft)
23.01.2018 17:56 2,7 °C 90 % 1027,5 hPa 0,0 mm 2,3 km/h (1 Bft) SW 214 ° 0 min 0,000 mm 0,0 UV-I 0 W/m² 1,2 °C 2,7 °C 3,2 km/h (1 Bft)
23.01.2018 17:57 2,7 °C 90 % 1027,5 hPa 0,0 mm 1,1 km/h (1 Bft) SW 214 ° 0 min 0,000 mm 0,0 UV-I 0 W/m² 1,2 °C 2,7 °C 3,2 km/h (1 Bft)
23.01.2018 17:58 2,7 °C 90 % 1027,5 hPa 0,0 mm 2,6 km/h (1 Bft) SW 214 ° 0 min 0,000 mm 0,0 UV-I 0 W/m² 1,2 °C 2,7 °C 3,2 km/h (1 Bft)
23.01.2018 17:59 2,7 °C 90 % 1027,5 hPa 0,0 mm 1,5 km/h (1 Bft) SW 214 ° 0 min 0,000 mm 0,0 UV-I 0 W/m² 1,2 °C 2,7 °C 3,2 km/h (1 Bft)
23.01.2018 18:00 2,7 °C 90 % 1027,6 hPa 0,0 mm 3,0 km/h (1 Bft) SW 214 ° 0 min 0,000 mm 0,0 UV-I 0 W/m² 1,2 °C 2,7 °C 4,8 km/h (1 Bft)
23.01.2018 18:01 2,7 °C 90 % 1027,6 hPa 0,0 mm 2,9 km/h (1 Bft) SW 214 ° 0 min 0,000 mm 0,0 UV-I 0 W/m² 1,2 °C 2,7 °C 3,2 km/h (1 Bft)
23.01.2018 18:02 2,7 °C 90 % 1027,6 hPa 0,0 mm 2,5 km/h (1 Bft) SW 214 ° 0 min 0,000 mm 0,0 UV-I 0 W/m² 1,2 °C 2,7 °C 4,8 km/h (1 Bft)
23.01.2018 18:03 2,7 °C 90 % 1027,6 hPa 0,0 mm 3,0 km/h (1 Bft) SW 214 ° 0 min 0,000 mm 0,0 UV-I 0 W/m² 1,2 °C 2,7 °C 4,8 km/h (1 Bft)
23.01.2018 18:04 2,7 °C 90 % 1027,6 hPa 0,0 mm 4,0 km/h (1 Bft) S-SW 209 ° 0 min 0,000 mm 0,0 UV-I 0 W/m² 1,2 °C 2,7 °C 6,4 km/h (2 Bft)
23.01.2018 18:05 2,7 °C 90 % 1027,6 hPa 0,0 mm 4,5 km/h (1 Bft) S-SW 209 ° 0 min 0,000 mm 0,0 UV-I 0 W/m² 1,2 °C 2,7 °C 6,4 km/h (2 Bft)
23.01.2018 18:06 2,8 °C 90 % 1027,6 hPa 0,0 mm 5,7 km/h (1 Bft) S-SW 205 ° 0 min 0,000 mm 0,0 UV-I 0 W/m² 1,3 °C 1,3 °C 8,0 km/h (2 Bft)
23.01.2018 18:07 2,8 °C 90 % 1027,6 hPa 0,0 mm 5,5 km/h (1 Bft) S-SW 203 ° 0 min 0,000 mm 0,0 UV-I 0 W/m² 1,3 °C 1,4 °C 8,0 km/h (2 Bft)
23.01.2018 18:08 2,8 °C 90 % 1027,6 hPa 0,0 mm 5,0 km/h (1 Bft) S-SW 202 ° 0 min 0,000 mm 0,0 UV-I 0 W/m² 1,3 °C 1,6 °C 8,0 km/h (2 Bft)
23.01.2018 18:09 2,8 °C 89 % 1027,6 hPa 0,0 mm 3,0 km/h (1 Bft) S-SW 202 ° 0 min 0,000 mm 0,0 UV-I 0 W/m² 1,2 °C 2,8 °C 4,8 km/h (1 Bft)
23.01.2018 18:10 2,8 °C 89 % 1027,6 hPa 0,0 mm 3,1 km/h (1 Bft) S-SW 202 ° 0 min 0,000 mm 0,0 UV-I 0 W/m² 1,2 °C 2,8 °C 4,8 km/h (1 Bft)
23.01.2018 18:11 2,8 °C 89 % 1027,6 hPa 0,0 mm 3,4 km/h (1 Bft) S-SW 202 ° 0 min 0,000 mm 0,0 UV-I 0 W/m² 1,2 °C 2,8 °C 4,8 km/h (1 Bft)
23.01.2018 18:12 2,8 °C 89 % 1027,6 hPa 0,0 mm 3,0 km/h (1 Bft) S-SW 202 ° 0 min 0,000 mm 0,0 UV-I 0 W/m² 1,2 °C 2,8 °C 4,8 km/h (1 Bft)
23.01.2018 18:13 2,8 °C 89 % 1027,6 hPa 0,0 mm 2,0 km/h (1 Bft) S-SW 202 ° 0 min 0,000 mm 0,0 UV-I 0 W/m² 1,2 °C 2,8 °C 3,2 km/h (1 Bft)
23.01.2018 18:14 2,8 °C 89 % 1027,6 hPa 0,0 mm 1,1 km/h (1 Bft) S-SW 202 ° 0 min 0,000 mm 0,0 UV-I 0 W/m² 1,2 °C 2,8 °C 3,2 km/h (1 Bft)
23.01.2018 18:15 2,8 °C 89 % 1027,6 hPa 0,0 mm 1,9 km/h (1 Bft) S-SW 202 ° 0 min 0,000 mm 0,0 UV-I 0 W/m² 1,2 °C 2,8 °C 3,2 km/h (1 Bft)
23.01.2018 18:16 2,8 °C 89 % 1027,6 hPa 0,0 mm 1,1 km/h (1 Bft) S-SW 202 ° 0 min 0,000 mm 0,0 UV-I 0 W/m² 1,2 °C 2,8 °C 3,2 km/h (1 Bft)
23.01.2018 18:17 2,7 °C 89 % 1027,7 hPa 0,0 mm 0,6 km/h (0 Bft) S-SW 202 ° 0 min 0,000 mm 0,0 UV-I 0 W/m² 1,1 °C 2,7 °C 1,6 km/h (1 Bft)
23.01.2018 18:18 2,7 °C 89 % 1027,7 hPa 0,0 mm 0,5 km/h (0 Bft) S-SW 202 ° 0 min 0,000 mm 0,0 UV-I 0 W/m² 1,1 °C 2,7 °C 1,6 km/h (1 Bft)
23.01.2018 18:19 2,7 °C 89 % 1027,7 hPa 0,0 mm 0,5 km/h (0 Bft) S-SW 202 ° 0 min 0,000 mm 0,0 UV-I 0 W/m² 1,1 °C 2,7 °C 3,2 km/h (1 Bft)
23.01.2018 18:20 2,7 °C 89 % 1027,7 hPa 0,0 mm 2,0 km/h (1 Bft) S-SW 202 ° 0 min 0,000 mm 0,0 UV-I 0 W/m² 1,1 °C 2,7 °C 3,2 km/h (1 Bft)
23.01.2018 18:21 2,7 °C 89 % 1027,7 hPa 0,0 mm 1,1 km/h (1 Bft) S-SW 202 ° 0 min 0,000 mm 0,0 UV-I 0 W/m² 1,1 °C 2,7 °C 3,2 km/h (1 Bft)
23.01.2018 18:22 2,7 °C 89 % 1027,6 hPa 0,0 mm 0,4 km/h (0 Bft) S-SW 202 ° 0 min 0,000 mm 0,0 UV-I 0 W/m² 1,1 °C 2,7 °C 1,6 km/h (1 Bft)
23.01.2018 18:23 2,7 °C 89 % 1027,7 hPa 0,0 mm 0,0 km/h (0 Bft) S-SW 202 ° 0 min 0,000 mm 0,0 UV-I 0 W/m² 1,1 °C 2,7 °C 0,0 km/h (0 Bft)
23.01.2018 18:24 2,7 °C 89 % 1027,7 hPa 0,0 mm 1,7 km/h (1 Bft) S-SW 202 ° 0 min 0,000 mm 0,0 UV-I 0 W/m² 1,1 °C 2,7 °C 6,4 km/h (2 Bft)
23.01.2018 18:25 2,8 °C 89 % 1027,7 hPa 0,0 mm 3,4 km/h (1 Bft) S-SW 202 ° 0 min 0,000 mm 0,0 UV-I 0 W/m² 1,2 °C 2,8 °C 4,8 km/h (1 Bft)
23.01.2018 18:26 2,8 °C 89 % 1027,7 hPa 0,0 mm 2,1 km/h (1 Bft) S-SW 202 ° 0 min 0,000 mm 0,0 UV-I 0 W/m² 1,2 °C 2,8 °C 3,2 km/h (1 Bft)
23.01.2018 18:27 2,8 °C 89 % 1027,7 hPa 0,0 mm 2,0 km/h (1 Bft) S-SW 202 ° 0 min 0,000 mm 0,0 UV-I 0 W/m² 1,2 °C 2,8 °C 4,8 km/h (1 Bft)
23.01.2018 18:28 2,8 °C 89 % 1027,7 hPa 0,0 mm 2,1 km/h (1 Bft) S-SW 202 ° 0 min 0,000 mm 0,0 UV-I 0 W/m² 1,2 °C 2,8 °C 3,2 km/h (1 Bft)
23.01.2018 18:29 2,8 °C 89 % 1027,7 hPa 0,0 mm 1,0 km/h (0 Bft) S-SW 202 ° 0 min 0,000 mm 0,0 UV-I 0 W/m² 1,2 °C 2,8 °C 1,6 km/h (1 Bft)
23.01.2018 18:30 2,8 °C 89 % 1027,7 hPa 0,0 mm 0,1 km/h (0 Bft) S-SW 202 ° 0 min 0,000 mm 0,0 UV-I 0 W/m² 1,2 °C 2,8 °C 1,6 km/h (1 Bft)
23.01.2018 18:31 2,7 °C 89 % 1027,6 hPa 0,0 mm 0,1 km/h (0 Bft) S-SW 202 ° 0 min 0,000 mm 0,0 UV-I 0 W/m² 1,1 °C 2,7 °C 1,6 km/h (1 Bft)
23.01.2018 18:32 2,7 °C 89 % 1027,6 hPa 0,0 mm 0,0 km/h (0 Bft) S-SW 202 ° 0 min 0,000 mm 0,0 UV-I 0 W/m² 1,1 °C 2,7 °C 0,0 km/h (0 Bft)
23.01.2018 18:33 2,7 °C 89 % 1027,6 hPa 0,0 mm 0,9 km/h (0 Bft) S-SW 202 ° 0 min 0,000 mm 0,0 UV-I 0 W/m² 1,1 °C 2,7 °C 1,6 km/h (1 Bft)
23.01.2018 18:34 2,7 °C 89 % 1027,6 hPa 0,0 mm 1,2 km/h (1 Bft) S-SW 202 ° 0 min 0,000 mm 0,0 UV-I 0 W/m² 1,1 °C 2,7 °C 3,2 km/h (1 Bft)
23.01.2018 18:35 2,8 °C 89 % 1027,6 hPa 0,0 mm 1,5 km/h (1 Bft) S-SW 202 ° 0 min 0,000 mm 0,0 UV-I 0 W/m² 1,2 °C 2,8 °C 3,2 km/h (1 Bft)
23.01.2018 18:36 2,8 °C 89 % 1027,6 hPa 0,0 mm 2,5 km/h (1 Bft) S-SW 202 ° 0 min 0,000 mm 0,0 UV-I 0 W/m² 1,2 °C 2,8 °C 3,2 km/h (1 Bft)
23.01.2018 18:37 2,8 °C 89 % 1027,6 hPa 0,0 mm 2,3 km/h (1 Bft) S-SW 202 ° 0 min 0,000 mm 0,0 UV-I 0 W/m² 1,2 °C 2,8 °C 3,2 km/h (1 Bft)
23.01.2018 18:38 2,8 °C 89 % 1027,6 hPa 0,0 mm 2,1 km/h (1 Bft) S-SW 202 ° 0 min 0,000 mm 0,0 UV-I 0 W/m² 1,2 °C 2,8 °C 4,8 km/h (1 Bft)
23.01.2018 18:39 2,8 °C 89 % 1027,6 hPa 0,0 mm 3,7 km/h (1 Bft) SW 223 ° 0 min 0,000 mm 0,0 UV-I 0 W/m² 1,2 °C 2,8 °C 6,4 km/h (2 Bft)
23.01.2018 18:40 2,8 °C 89 % 1027,7 hPa 0,0 mm 3,7 km/h (1 Bft) SW 215 ° 0 min 0,000 mm 0,0 UV-I 0 W/m² 1,2 °C 2,8 °C 4,8 km/h (1 Bft)
23.01.2018 18:41 2,8 °C 89 % 1027,6 hPa 0,0 mm 3,6 km/h (1 Bft) SW 215 ° 0 min 0,000 mm 0,0 UV-I 0 W/m² 1,2 °C 2,8 °C 4,8 km/h (1 Bft)
23.01.2018 18:42 2,8 °C 89 % 1027,7 hPa 0,0 mm 2,9 km/h (1 Bft) SW 215 ° 0 min 0,000 mm 0,0 UV-I 0 W/m² 1,2 °C 2,8 °C 3,2 km/h (1 Bft)
23.01.2018 18:43 2,7 °C 89 % 1027,6 hPa 0,0 mm 3,2 km/h (1 Bft) SW 214 ° 0 min 0,000 mm 0,0 UV-I 0 W/m² 1,1 °C 2,7 °C 4,8 km/h (1 Bft)
23.01.2018 18:44 2,7 °C 89 % 1027,6 hPa 0,0 mm 2,8 km/h (1 Bft) SW 214 ° 0 min 0,000 mm 0,0 UV-I 0 W/m² 1,1 °C 2,7 °C 4,8 km/h (1 Bft)
23.01.2018 18:45 2,7 °C 89 % 1027,6 hPa 0,0 mm 3,8 km/h (1 Bft) SW 214 ° 0 min 0,000 mm 0,0 UV-I 0 W/m² 1,1 °C 2,7 °C 4,8 km/h (1 Bft)
23.01.2018 18:46 2,7 °C 90 % 1027,6 hPa 0,0 mm 3,4 km/h (1 Bft) S-SW 213 ° 0 min 0,000 mm 0,0 UV-I 0 W/m² 1,2 °C 2,7 °C 4,8 km/h (1 Bft)
23.01.2018 18:47 2,7 °C 89 % 1027,6 hPa 0,0 mm 3,2 km/h (1 Bft) S-SW 213 ° 0 min 0,000 mm 0,0 UV-I 0 W/m² 1,1 °C 2,7 °C 4,8 km/h (1 Bft)
23.01.2018 18:48 2,6 °C 89 % 1027,6 hPa 0,0 mm 3,8 km/h (1 Bft) SW 219 ° 0 min 0,000 mm 0,0 UV-I 0 W/m² 1,0 °C 2,6 °C 4,8 km/h (1 Bft)
23.01.2018 18:49 2,6 °C 89 % 1027,6 hPa 0,0 mm 4,4 km/h (1 Bft) S-SW 212 ° 0 min 0,000 mm 0,0 UV-I 0 W/m² 1,0 °C 2,6 °C 6,4 km/h (2 Bft)
23.01.2018 18:50 2,6 °C 90 % 1027,6 hPa 0,0 mm 3,2 km/h (1 Bft) S-SW 212 ° 0 min 0,000 mm 0,0 UV-I 0 W/m² 1,1 °C 2,6 °C 4,8 km/h (1 Bft)
23.01.2018 18:51 2,6 °C 90 % 1027,6 hPa 0,0 mm 2,8 km/h (1 Bft) S-SW 212 ° 0 min 0,000 mm 0,0 UV-I 0 W/m² 1,1 °C 2,6 °C 4,8 km/h (1 Bft)
23.01.2018 18:52 2,6 °C 90 % 1027,6 hPa 0,0 mm 4,0 km/h (1 Bft) S-SW 212 ° 0 min 0,000 mm 0,0 UV-I 0 W/m² 1,1 °C 2,6 °C 4,8 km/h (1 Bft)
23.01.2018 18:53 2,6 °C 90 % 1027,6 hPa 0,0 mm 2,5 km/h (1 Bft) S-SW 212 ° 0 min 0,000 mm 0,0 UV-I 0 W/m² 1,1 °C 2,6 °C 4,8 km/h (1 Bft)
23.01.2018 18:54 2,5 °C 90 % 1027,6 hPa 0,0 mm 2,6 km/h (1 Bft) S-SW 212 ° 0 min 0,000 mm 0,0 UV-I 0 W/m² 1,0 °C 2,5 °C 3,2 km/h (1 Bft)
23.01.2018 18:55 2,5 °C 90 % 1027,6 hPa 0,0 mm 4,4 km/h (1 Bft) S-SW 211 ° 0 min 0,000 mm 0,0 UV-I 0 W/m² 1,0 °C 2,5 °C 6,4 km/h (2 Bft)
23.01.2018 18:56 2,4 °C 90 % 1027,6 hPa 0,0 mm 3,5 km/h (1 Bft) S-SW 211 ° 0 min 0,000 mm 0,0 UV-I 0 W/m² 0,9 °C 2,4 °C 6,4 km/h (2 Bft)
23.01.2018 18:57 2,4 °C 90 % 1027,6 hPa 0,0 mm 1,3 km/h (1 Bft) S-SW 211 ° 0 min 0,000 mm 0,0 UV-I 0 W/m² 0,9 °C 2,4 °C 3,2 km/h (1 Bft)
23.01.2018 18:58 2,3 °C 90 % 1027,6 hPa 0,0 mm 1,0 km/h (0 Bft) S-SW 211 ° 0 min 0,000 mm 0,0 UV-I 0 W/m² 0,8 °C 2,3 °C 1,6 km/h (1 Bft)
23.01.2018 18:59 2,3 °C 90 % 1027,7 hPa 0,0 mm 1,5 km/h (1 Bft) S-SW 211 ° 0 min 0,000 mm 0,0 UV-I 0 W/m² 0,8 °C 2,3 °C 1,6 km/h (1 Bft)
23.01.2018 19:00 2,2 °C 90 % 1027,7 hPa 0,0 mm 1,1 km/h (1 Bft) S-SW 211 ° 0 min 0,000 mm 0,0 UV-I 0 W/m² 0,7 °C 2,2 °C 1,6 km/h (1 Bft)
23.01.2018 19:01 2,2 °C 90 % 1027,7 hPa 0,0 mm 1,5 km/h (1 Bft) S-SW 211 ° 0 min 0,000 mm 0,0 UV-I 0 W/m² 0,7 °C 2,2 °C 1,6 km/h (1 Bft)
23.01.2018 19:02 2,1 °C 91 % 1027,7 hPa 0,0 mm 1,6 km/h (1 Bft) S-SW 211 ° 0 min 0,000 mm 0,0 UV-I 0 W/m² 0,8 °C 2,1 °C 3,2 km/h (1 Bft)
23.01.2018 19:03 2,1 °C 91 % 1027,6 hPa 0,0 mm 0,4 km/h (0 Bft) S-SW 211 ° 0 min 0,000 mm 0,0 UV-I 0 W/m² 0,8 °C 2,1 °C 1,6 km/h (1 Bft)
23.01.2018 19:04 2,1 °C 91 % 1027,7 hPa 0,0 mm 0,0 km/h (0 Bft) S-SW 211 ° 0 min 0,000 mm 0,0 UV-I 0 W/m² 0,8 °C 2,1 °C 0,0 km/h (0 Bft)
23.01.2018 19:05 1,9 °C 91 % 1027,7 hPa 0,0 mm 0,0 km/h (0 Bft) S-SW 211 ° 0 min 0,000 mm 0,0 UV-I 0 W/m² 0,6 °C 1,9 °C 0,0 km/h (0 Bft)
23.01.2018 19:06 1,9 °C 91 % 1027,6 hPa 0,0 mm 0,0 km/h (0 Bft) S-SW 211 ° 0 min 0,000 mm 0,0 UV-I 0 W/m² 0,6 °C 1,9 °C 0,0 km/h (0 Bft)
23.01.2018 19:07 1,9 °C 91 % 1027,7 hPa 0,0 mm 0,0 km/h (0 Bft) S-SW 211 ° 0 min 0,000 mm 0,0 UV-I 0 W/m² 0,6 °C 1,9 °C 0,0 km/h (0 Bft)
23.01.2018 19:08 1,9 °C 91 % 1027,7 hPa 0,0 mm 0,0 km/h (0 Bft) S-SW 211 ° 0 min 0,000 mm 0,0 UV-I 0 W/m² 0,6 °C 1,9 °C 0,0 km/h (0 Bft)
23.01.2018 19:09 1,8 °C 91 % 1027,6 hPa 0,0 mm 0,0 km/h (0 Bft) S-SW 211 ° 0 min 0,000 mm 0,0 UV-I 0 W/m² 0,5 °C 1,8 °C 0,0 km/h (0 Bft)
23.01.2018 19:10 1,8 °C 91 % 1027,7 hPa 0,0 mm 0,0 km/h (0 Bft) S-SW 211 ° 0 min 0,000 mm 0,0 UV-I 0 W/m² 0,5 °C 1,8 °C 0,0 km/h (0 Bft)
23.01.2018 19:11 1,8 °C 91 % 1027,6 hPa 0,0 mm 0,0 km/h (0 Bft) S-SW 211 ° 0 min 0,000 mm 0,0 UV-I 0 W/m² 0,5 °C 1,8 °C 0,0 km/h (0 Bft)
23.01.2018 19:12 1,8 °C 91 % 1027,6 hPa 0,0 mm 0,0 km/h (0 Bft) S-SW 211 ° 0 min 0,000 mm 0,0 UV-I 0 W/m² 0,5 °C 1,8 °C 0,0 km/h (0 Bft)
23.01.2018 19:13 1,8 °C 92 % 1027,6 hPa 0,0 mm 0,5 km/h (0 Bft) S-SW 211 ° 0 min 0,000 mm 0,0 UV-I 0 W/m² 0,6 °C 1,8 °C 1,6 km/h (1 Bft)
23.01.2018 19:14 1,8 °C 92 % 1027,6 hPa 0,0 mm 0,9 km/h (0 Bft) S-SW 211 ° 0 min 0,000 mm 0,0 UV-I 0 W/m² 0,6 °C 1,8 °C 1,6 km/h (1 Bft)
23.01.2018 19:15 1,8 °C 92 % 1027,6 hPa 0,0 mm 1,2 km/h (1 Bft) S-SW 211 ° 0 min 0,000 mm 0,0 UV-I 0 W/m² 0,6 °C 1,8 °C 1,6 km/h (1 Bft)
23.01.2018 19:16 1,7 °C 92 % 1027,6 hPa 0,0 mm 1,3 km/h (1 Bft) S-SW 211 ° 0 min 0,000 mm 0,0 UV-I 0 W/m² 0,5 °C 1,7 °C 1,6 km/h (1 Bft)
23.01.2018 19:17 1,7 °C 92 % 1027,6 hPa 0,0 mm 0,5 km/h (0 Bft) S-SW 211 ° 0 min 0,000 mm 0,0 UV-I 0 W/m² 0,5 °C 1,7 °C 1,6 km/h (1 Bft)
23.01.2018 19:18 1,6 °C 92 % 1027,6 hPa 0,0 mm 0,0 km/h (0 Bft) S-SW 211 ° 0 min 0,000 mm 0,0 UV-I 0 W/m² 0,4 °C 1,6 °C 0,0 km/h (0 Bft)
23.01.2018 19:19 1,6 °C 92 % 1027,6 hPa 0,0 mm 0,0 km/h (0 Bft) S-SW 211 ° 0 min 0,000 mm 0,0 UV-I 0 W/m² 0,4 °C 1,6 °C 0,0 km/h (0 Bft)
23.01.2018 19:20 1,6 °C 92 % 1027,6 hPa 0,0 mm 0,0 km/h (0 Bft) S-SW 211 ° 0 min 0,000 mm 0,0 UV-I 0 W/m² 0,4 °C 1,6 °C 0,0 km/h (0 Bft)
23.01.2018 19:21 1,5 °C 92 % 1027,6 hPa 0,0 mm 0,0 km/h (0 Bft) S-SW 211 ° 0 min 0,000 mm 0,0 UV-I 0 W/m² 0,3 °C 1,5 °C 0,0 km/h (0 Bft)
23.01.2018 19:22 1,5 °C 92 % 1027,6 hPa 0,0 mm 0,0 km/h (0 Bft) S-SW 211 ° 0 min 0,000 mm 0,0 UV-I 0 W/m² 0,3 °C 1,5 °C 0,0 km/h (0 Bft)
23.01.2018 19:23 1,4 °C 92 % 1027,6 hPa 0,0 mm 0,0 km/h (0 Bft) S-SW 211 ° 0 min 0,000 mm 0,0 UV-I 0 W/m² 0,2 °C 1,4 °C 0,0 km/h (0 Bft)
23.01.2018 19:24 1,4 °C 92 % 1027,6 hPa 0,0 mm 0,0 km/h (0 Bft) S-SW 211 ° 0 min 0,000 mm 0,0 UV-I 0 W/m² 0,2 °C 1,4 °C 0,0 km/h (0 Bft)
23.01.2018 19:25 1,4 °C 92 % 1027,6 hPa 0,0 mm 0,0 km/h (0 Bft) S-SW 211 ° 0 min 0,000 mm 0,0 UV-I 0 W/m² 0,2 °C 1,4 °C 0,0 km/h (0 Bft)
23.01.2018 19:26 1,3 °C 92 % 1027,6 hPa 0,0 mm 0,0 km/h (0 Bft) S-SW 211 ° 0 min 0,000 mm 0,0 UV-I 0 W/m² 0,1 °C 1,3 °C 0,0 km/h (0 Bft)
23.01.2018 19:27 1,3 °C 92 % 1027,6 hPa 0,0 mm 0,0 km/h (0 Bft) S-SW 211 ° 0 min 0,000 mm 0,0 UV-I 0 W/m² 0,1 °C 1,3 °C 0,0 km/h (0 Bft)
23.01.2018 19:28 1,3 °C 92 % 1027,6 hPa 0,0 mm 0,0 km/h (0 Bft) S-SW 211 ° 0 min 0,000 mm 0,0 UV-I 0 W/m² 0,1 °C 1,3 °C 0,0 km/h (0 Bft)
23.01.2018 19:29 1,3 °C 92 % 1027,5 hPa 0,0 mm 0,0 km/h (0 Bft) S-SW 211 ° 0 min 0,000 mm 0,0 UV-I 0 W/m² 0,1 °C 1,3 °C 0,0 km/h (0 Bft)
23.01.2018 19:30 1,3 °C 93 % 1027,6 hPa 0,0 mm 0,0 km/h (0 Bft) S-SW 211 ° 0 min 0,000 mm 0,0 UV-I 0 W/m² 0,3 °C 1,3 °C 0,0 km/h (0 Bft)
23.01.2018 19:31 1,3 °C 93 % 1027,6 hPa 0,0 mm 0,0 km/h (0 Bft) S-SW 211 ° 0 min 0,000 mm 0,0 UV-I 0 W/m² 0,3 °C 1,3 °C 0,0 km/h (0 Bft)
23.01.2018 19:32 1,3 °C 93 % 1027,6 hPa 0,0 mm 0,0 km/h (0 Bft) S-SW 211 ° 0 min 0,000 mm 0,0 UV-I 0 W/m² 0,3 °C 1,3 °C 0,0 km/h (0 Bft)
23.01.2018 19:33 1,3 °C 93 % 1027,6 hPa 0,0 mm 0,0 km/h (0 Bft) S-SW 211 ° 0 min 0,000 mm 0,0 UV-I 0 W/m² 0,3 °C 1,3 °C 0,0 km/h (0 Bft)
23.01.2018 19:34 1,2 °C 93 % 1027,6 hPa 0,0 mm 0,0 km/h (0 Bft) S-SW 211 ° 0 min 0,000 mm 0,0 UV-I 0 W/m² 0,2 °C 1,2 °C 0,0 km/h (0 Bft)
23.01.2018 19:35 1,2 °C 92 % 1027,6 hPa 0,0 mm 0,0 km/h (0 Bft) S-SW 211 ° 0 min 0,000 mm 0,0 UV-I 0 W/m² 0,0 °C 1,2 °C 0,0 km/h (0 Bft)
23.01.2018 19:36 1,2 °C 93 % 1027,5 hPa 0,0 mm 0,0 km/h (0 Bft) S-SW 211 ° 0 min 0,000 mm 0,0 UV-I 0 W/m² 0,2 °C 1,2 °C 0,0 km/h (0 Bft)
23.01.2018 19:37 1,1 °C 93 % 1027,6 hPa 0,0 mm 0,0 km/h (0 Bft) S-SW 211 ° 0 min 0,000 mm 0,0 UV-I 0 W/m² 0,1 °C 1,1 °C 0,0 km/h (0 Bft)
23.01.2018 19:38 1,0 °C 92 % 1027,5 hPa 0,0 mm 0,0 km/h (0 Bft) S-SW 211 ° 0 min 0,000 mm 0,0 UV-I 0 W/m² -0,2 °C 1,0 °C 0,0 km/h (0 Bft)
23.01.2018 19:39 0,9 °C 92 % 1027,5 hPa 0,0 mm 0,0 km/h (0 Bft) S-SW 211 ° 0 min 0,000 mm 0,0 UV-I 0 W/m² -0,2 °C 0,9 °C 0,0 km/h (0 Bft)
23.01.2018 19:40 0,8 °C 92 % 1027,5 hPa 0,0 mm 0,0 km/h (0 Bft) S-SW 211 ° 0 min 0,000 mm 0,0 UV-I 0 W/m² -0,3 °C 0,8 °C 0,0 km/h (0 Bft)
23.01.2018 19:41 0,8 °C 92 % 1027,5 hPa 0,0 mm 0,0 km/h (0 Bft) S-SW 211 ° 0 min 0,000 mm 0,0 UV-I 0 W/m² -0,3 °C 0,8 °C 0,0 km/h (0 Bft)
23.01.2018 19:42 0,8 °C 92 % 1027,5 hPa 0,0 mm 0,0 km/h (0 Bft) S-SW 211 ° 0 min 0,000 mm 0,0 UV-I 0 W/m² -0,3 °C 0,8 °C 0,0 km/h (0 Bft)
23.01.2018 19:43 0,8 °C 93 % 1027,5 hPa 0,0 mm 0,0 km/h (0 Bft) S-SW 211 ° 0 min 0,000 mm 0,0 UV-I 0 W/m² -0,2 °C 0,8 °C 0,0 km/h (0 Bft)
23.01.2018 19:44 0,7 °C 93 % 1027,5 hPa 0,0 mm 0,0 km/h (0 Bft) S-SW 211 ° 0 min 0,000 mm 0,0 UV-I 0 W/m² -0,3 °C 0,7 °C 0,0 km/h (0 Bft)
23.01.2018 19:45 0,6 °C 93 % 1027,6 hPa 0,0 mm 0,0 km/h (0 Bft) S-SW 211 ° 0 min 0,000 mm 0,0 UV-I 0 W/m² -0,4 °C 0,6 °C 0,0 km/h (0 Bft)
23.01.2018 19:46 0,6 °C 93 % 1027,6 hPa 0,0 mm 0,0 km/h (0 Bft) S-SW 211 ° 0 min 0,000 mm 0,0 UV-I 0 W/m² -0,4 °C 0,6 °C 0,0 km/h (0 Bft)
23.01.2018 19:47 0,5 °C 93 % 1027,6 hPa 0,0 mm 0,0 km/h (0 Bft) S-SW 211 ° 0 min 0,000 mm 0,0 UV-I 0 W/m² -0,5 °C 0,5 °C 0,0 km/h (0 Bft)
23.01.2018 19:48 0,4 °C 93 % 1027,6 hPa 0,0 mm 0,0 km/h (0 Bft) S-SW 211 ° 0 min 0,000 mm 0,0 UV-I 0 W/m² -0,6 °C 0,4 °C 0,0 km/h (0 Bft)
23.01.2018 19:49 0,4 °C 93 % 1027,6 hPa 0,0 mm 0,0 km/h (0 Bft) S-SW 211 ° 0 min 0,000 mm 0,0 UV-I 0 W/m² -0,6 °C 0,4 °C 0,0 km/h (0 Bft)
23.01.2018 19:50 0,4 °C 93 % 1027,6 hPa 0,0 mm 0,0 km/h (0 Bft) S-SW 211 ° 0 min 0,000 mm 0,0 UV-I 0 W/m² -0,6 °C 0,4 °C 0,0 km/h (0 Bft)
23.01.2018 19:51 0,4 °C 93 % 1027,7 hPa 0,0 mm 0,0 km/h (0 Bft) S-SW 211 ° 0 min 0,000 mm 0,0 UV-I 0 W/m² -0,6 °C 0,4 °C 0,0 km/h (0 Bft)
23.01.2018 19:52 0,4 °C 93 % 1027,6 hPa 0,0 mm 0,0 km/h (0 Bft) S-SW 211 ° 0 min 0,000 mm 0,0 UV-I 0 W/m² -0,6 °C 0,4 °C 0,0 km/h (0 Bft)
23.01.2018 19:53 0,4 °C 93 % 1027,6 hPa 0,0 mm 0,0 km/h (0 Bft) S-SW 211 ° 0 min 0,000 mm 0,0 UV-I 0 W/m² -0,6 °C 0,4 °C 0,0 km/h (0 Bft)
23.01.2018 19:54 0,4 °C 93 % 1027,6 hPa 0,0 mm 0,0 km/h (0 Bft) S-SW 211 ° 0 min 0,000 mm 0,0 UV-I 0 W/m² -0,6 °C 0,4 °C 0,0 km/h (0 Bft)
23.01.2018 19:55 0,5 °C 93 % 1027,6 hPa 0,0 mm 0,0 km/h (0 Bft) S-SW 211 ° 0 min 0,000 mm 0,0 UV-I 0 W/m² -0,5 °C 0,5 °C 0,0 km/h (0 Bft)
23.01.2018 19:56 0,6 °C 94 % 1027,6 hPa 0,0 mm 0,0 km/h (0 Bft) S-SW 211 ° 0 min 0,000 mm 0,0 UV-I 0 W/m² -0,3 °C 0,6 °C 0,0 km/h (0 Bft)
23.01.2018 19:57 0,6 °C 94 % 1027,5 hPa 0,0 mm 0,0 km/h (0 Bft) S-SW 211 ° 0 min 0,000 mm 0,0 UV-I 0 W/m² -0,3 °C 0,6 °C 0,0 km/h (0 Bft)
23.01.2018 19:58 0,6 °C 94 % 1027,5 hPa 0,0 mm 0,0 km/h (0 Bft) S-SW 211 ° 0 min 0,000 mm 0,0 UV-I 0 W/m² -0,3 °C 0,6 °C 0,0 km/h (0 Bft)
23.01.2018 19:59 0,6 °C 94 % 1027,5 hPa 0,0 mm 0,0 km/h (0 Bft) S-SW 211 ° 0 min 0,000 mm 0,0 UV-I 0 W/m² -0,3 °C 0,6 °C 0,0 km/h (0 Bft)
23.01.2018 20:00 0,6 °C 94 % 1027,5 hPa 0,0 mm 0,0 km/h (0 Bft) S-SW 211 ° 0 min 0,000 mm 0,0 UV-I 0 W/m² -0,3 °C 0,6 °C 0,0 km/h (0 Bft)
23.01.2018 20:01 0,6 °C 94 % 1027,5 hPa 0,0 mm 0,0 km/h (0 Bft) S-SW 211 ° 0 min 0,000 mm 0,0 UV-I 0 W/m² -0,3 °C 0,6 °C 0,0 km/h (0 Bft)
23.01.2018 20:02 0,5 °C 93 % 1027,5 hPa 0,0 mm 0,0 km/h (0 Bft) S-SW 211 ° 0 min 0,000 mm 0,0 UV-I 0 W/m² -0,5 °C 0,5 °C 0,0 km/h (0 Bft)
23.01.2018 20:03 0,4 °C 93 % 1027,5 hPa 0,0 mm 0,0 km/h (0 Bft) S-SW 211 ° 0 min 0,000 mm 0,0 UV-I 0 W/m² -0,6 °C 0,4 °C 0,0 km/h (0 Bft)
23.01.2018 20:04 0,4 °C 93 % 1027,5 hPa 0,0 mm 0,0 km/h (0 Bft) S-SW 211 ° 0 min 0,000 mm 0,0 UV-I 0 W/m² -0,6 °C 0,4 °C 0,0 km/h (0 Bft)
23.01.2018 20:05 0,3 °C 93 % 1027,5 hPa 0,0 mm 0,0 km/h (0 Bft) S-SW 211 ° 0 min 0,000 mm 0,0 UV-I 0 W/m² -0,7 °C 0,3 °C 0,0 km/h (0 Bft)
23.01.2018 20:06 0,3 °C 93 % 1027,5 hPa 0,0 mm 0,0 km/h (0 Bft) S-SW 211 ° 0 min 0,000 mm 0,0 UV-I 0 W/m² -0,7 °C 0,3 °C 0,0 km/h (0 Bft)
23.01.2018 20:07 0,3 °C 93 % 1027,5 hPa 0,0 mm 0,0 km/h (0 Bft) S-SW 211 ° 0 min 0,000 mm 0,0 UV-I 0 W/m² -0,7 °C 0,3 °C 0,0 km/h (0 Bft)
23.01.2018 20:08 0,3 °C 93 % 1027,5 hPa 0,0 mm 1,8 km/h (1 Bft) S-SW 211 ° 0 min 0,000 mm 0,0 UV-I 0 W/m² -0,7 °C 0,3 °C 3,2 km/h (1 Bft)
23.01.2018 20:09 0,3 °C 93 % 1027,5 hPa 0,0 mm 0,0 km/h (0 Bft) S-SW 211 ° 0 min 0,000 mm 0,0 UV-I 0 W/m² -0,7 °C 0,3 °C 0,0 km/h (0 Bft)
23.01.2018 20:10 0,4 °C 94 % 1027,5 hPa 0,0 mm 0,0 km/h (0 Bft) S-SW 211 ° 0 min 0,000 mm 0,0 UV-I 0 W/m² -0,5 °C 0,4 °C 0,0 km/h (0 Bft)
23.01.2018 20:11 0,3 °C 94 % 1027,5 hPa 0,0 mm 0,0 km/h (0 Bft) S-SW 211 ° 0 min 0,000 mm 0,0 UV-I 0 W/m² -0,5 °C 0,3 °C 0,0 km/h (0 Bft)
23.01.2018 20:12 0,3 °C 93 % 1027,5 hPa 0,0 mm 0,0 km/h (0 Bft) S-SW 211 ° 0 min 0,000 mm 0,0 UV-I 0 W/m² -0,7 °C 0,3 °C 0,0 km/h (0 Bft)
23.01.2018 20:13 0,2 °C 93 % 1027,6 hPa 0,0 mm 0,0 km/h (0 Bft) S-SW 211 ° 0 min 0,000 mm 0,0 UV-I 0 W/m² -0,8 °C 0,2 °C 0,0 km/h (0 Bft)
23.01.2018 20:14 0,2 °C 93 % 1027,6 hPa 0,0 mm 0,0 km/h (0 Bft) S-SW 211 ° 0 min 0,000 mm 0,0 UV-I 0 W/m² -0,8 °C 0,2 °C 0,0 km/h (0 Bft)
23.01.2018 20:15 0,1 °C 93 % 1027,6 hPa 0,0 mm 0,0 km/h (0 Bft) S-SW 211 ° 0 min 0,000 mm 0,0 UV-I 0 W/m² -0,9 °C 0,1 °C 0,0 km/h (0 Bft)
23.01.2018 20:16 0,1 °C 93 % 1027,6 hPa 0,0 mm 0,0 km/h (0 Bft) S-SW 211 ° 0 min 0,000 mm 0,0 UV-I 0 W/m² -0,9 °C 0,1 °C 0,0 km/h (0 Bft)
23.01.2018 20:17 0,0 °C 93 % 1027,6 hPa 0,0 mm 0,0 km/h (0 Bft) S-SW 211 ° 0 min 0,000 mm 0,0 UV-I 0 W/m² -1,0 °C 0,0 °C 0,0 km/h (0 Bft)
23.01.2018 20:18 -0,1 °C 93 % 1027,6 hPa 0,0 mm 0,0 km/h (0 Bft) S-SW 211 ° 0 min 0,000 mm 0,0 UV-I 0 W/m² -1,1 °C -0,1 °C 0,0 km/h (0 Bft)
23.01.2018 20:19 -0,1 °C 93 % 1027,6 hPa 0,0 mm 0,0 km/h (0 Bft) S-SW 211 ° 0 min 0,000 mm 0,0 UV-I 0 W/m² -1,1 °C -0,1 °C 0,0 km/h (0 Bft)
23.01.2018 20:20 -0,2 °C 93 % 1027,6 hPa 0,0 mm 0,0 km/h (0 Bft) S-SW 211 ° 0 min 0,000 mm 0,0 UV-I 0 W/m² -1,2 °C -0,2 °C 0,0 km/h (0 Bft)
23.01.2018 20:21 -0,2 °C 93 % 1027,6 hPa 0,0 mm 0,0 km/h (0 Bft) S-SW 211 ° 0 min 0,000 mm 0,0 UV-I 0 W/m² -1,2 °C -0,2 °C 0,0 km/h (0 Bft)
23.01.2018 20:22 -0,2 °C 93 % 1027,6 hPa 0,0 mm 0,0 km/h (0 Bft) S-SW 211 ° 0 min 0,000 mm 0,0 UV-I 0 W/m² -1,2 °C -0,2 °C 0,0 km/h (0 Bft)
23.01.2018 20:23 -0,2 °C 93 % 1027,5 hPa 0,0 mm 0,0 km/h (0 Bft) S-SW 211 ° 0 min 0,000 mm 0,0 UV-I 0 W/m² -1,2 °C -0,2 °C 0,0 km/h (0 Bft)
23.01.2018 20:24 -0,2 °C 93 % 1027,5 hPa 0,0 mm 0,0 km/h (0 Bft) S-SW 211 ° 0 min 0,000 mm 0,0 UV-I 0 W/m² -1,2 °C -0,2 °C 0,0 km/h (0 Bft)
23.01.2018 20:25 -0,2 °C 93 % 1027,5 hPa 0,0 mm 0,0 km/h (0 Bft) S-SW 211 ° 0 min 0,000 mm 0,0 UV-I 0 W/m² -1,2 °C -0,2 °C 0,0 km/h (0 Bft)
23.01.2018 20:26 -0,2 °C 93 % 1027,4 hPa 0,0 mm 0,0 km/h (0 Bft) S-SW 211 ° 0 min 0,000 mm 0,0 UV-I 0 W/m² -1,2 °C -0,2 °C 0,0 km/h (0 Bft)
23.01.2018 20:27 -0,3 °C 93 % 1027,4 hPa 0,0 mm 0,1 km/h (0 Bft) S-SW 211 ° 0 min 0,000 mm 0,0 UV-I 0 W/m² -1,3 °C -0,3 °C 1,6 km/h (1 Bft)
23.01.2018 20:28 -0,2 °C 93 % 1027,4 hPa 0,0 mm 0,0 km/h (0 Bft) S-SW 211 ° 0 min 0,000 mm 0,0 UV-I 0 W/m² -1,2 °C -0,2 °C 0,0 km/h (0 Bft)
23.01.2018 20:29 -0,3 °C 93 % 1027,4 hPa 0,0 mm 0,0 km/h (0 Bft) S-SW 211 ° 0 min 0,000 mm 0,0 UV-I 0 W/m² -1,3 °C -0,3 °C 0,0 km/h (0 Bft)
23.01.2018 20:30 -0,3 °C 93 % 1027,4 hPa 0,0 mm 0,0 km/h (0 Bft) S-SW 211 ° 0 min 0,000 mm 0,0 UV-I 0 W/m² -1,3 °C -0,3 °C 0,0 km/h (0 Bft)
23.01.2018 20:31 -0,3 °C 93 % 1027,4 hPa 0,0 mm 0,0 km/h (0 Bft) S-SW 211 ° 0 min 0,000 mm 0,0 UV-I 0 W/m² -1,3 °C -0,3 °C 0,0 km/h (0 Bft)
23.01.2018 20:32 -0,3 °C 93 % 1027,4 hPa 0,0 mm 0,0 km/h (0 Bft) S-SW 211 ° 0 min 0,000 mm 0,0 UV-I 0 W/m² -1,3 °C -0,3 °C 0,0 km/h (0 Bft)
23.01.2018 20:33 -0,3 °C 93 % 1027,5 hPa 0,0 mm 0,0 km/h (0 Bft) S-SW 211 ° 0 min 0,000 mm 0,0 UV-I 0 W/m² -1,3 °C -0,3 °C 0,0 km/h (0 Bft)
23.01.2018 20:34 -0,3 °C 93 % 1027,4 hPa 0,0 mm 0,0 km/h (0 Bft) S-SW 211 ° 0 min 0,000 mm 0,0 UV-I 0 W/m² -1,3 °C -0,3 °C 0,0 km/h (0 Bft)
23.01.2018 20:35 -0,3 °C 94 % 1027,4 hPa 0,0 mm 0,0 km/h (0 Bft) S-SW 211 ° 0 min 0,000 mm 0,0 UV-I 0 W/m² -1,1 °C -0,3 °C 0,0 km/h (0 Bft)
23.01.2018 20:36 -0,3 °C 94 % 1027,4 hPa 0,0 mm 0,0 km/h (0 Bft) S-SW 211 ° 0 min 0,000 mm 0,0 UV-I 0 W/m² -1,1 °C -0,3 °C 0,0 km/h (0 Bft)
23.01.2018 20:37 -0,3 °C 94 % 1027,4 hPa 0,0 mm 0,0 km/h (0 Bft) S-SW 211 ° 0 min 0,000 mm 0,0 UV-I 0 W/m² -1,1 °C -0,3 °C 0,0 km/h (0 Bft)
23.01.2018 20:38 -0,3 °C 94 % 1027,4 hPa 0,0 mm 0,0 km/h (0 Bft) S-SW 211 ° 0 min 0,000 mm 0,0 UV-I 0 W/m² -1,1 °C -0,3 °C 0,0 km/h (0 Bft)
23.01.2018 20:39 -0,3 °C 94 % 1027,4 hPa 0,0 mm 0,0 km/h (0 Bft) S-SW 211 ° 0 min 0,000 mm 0,0 UV-I 0 W/m² -1,1 °C -0,3 °C 0,0 km/h (0 Bft)
23.01.2018 20:40 -0,3 °C 94 % 1027,4 hPa 0,0 mm 0,0 km/h (0 Bft) S-SW 211 ° 0 min 0,000 mm 0,0 UV-I 0 W/m² -1,1 °C -0,3 °C 0,0 km/h (0 Bft)
23.01.2018 20:41 -0,3 °C 93 % 1027,4 hPa 0,0 mm 0,0 km/h (0 Bft) S-SW 211 ° 0 min 0,000 mm 0,0 UV-I 0 W/m² -1,3 °C -0,3 °C 0,0 km/h (0 Bft)
23.01.2018 20:42 -0,3 °C 94 % 1027,4 hPa 0,0 mm 0,0 km/h (0 Bft) S-SW 211 ° 0 min 0,000 mm 0,0 UV-I 0 W/m² -1,1 °C -0,3 °C 0,0 km/h (0 Bft)
23.01.2018 20:43 -0,3 °C 94 % 1027,4 hPa 0,0 mm 0,0 km/h (0 Bft) S-SW 211 ° 0 min 0,000 mm 0,0 UV-I 0 W/m² -1,1 °C -0,3 °C 0,0 km/h (0 Bft)
23.01.2018 20:44 -0,3 °C 94 % 1027,4 hPa 0,0 mm 0,0 km/h (0 Bft) S-SW 211 ° 0 min 0,000 mm 0,0 UV-I 0 W/m² -1,1 °C -0,3 °C 0,0 km/h (0 Bft)
23.01.2018 20:45 -0,3 °C 94 % 1027,4 hPa 0,0 mm 0,0 km/h (0 Bft) S-SW 211 ° 0 min 0,000 mm 0,0 UV-I 0 W/m² -1,1 °C -0,3 °C 0,0 km/h (0 Bft)
23.01.2018 20:46 -0,3 °C 94 % 1027,4 hPa 0,0 mm 0,0 km/h (0 Bft) S-SW 211 ° 0 min 0,000 mm 0,0 UV-I 0 W/m² -1,1 °C -0,3 °C 0,0 km/h (0 Bft)
23.01.2018 20:47 -0,3 °C 94 % 1027,3 hPa 0,0 mm 0,0 km/h (0 Bft) S-SW 211 ° 0 min 0,000 mm 0,0 UV-I 0 W/m² -1,1 °C -0,3 °C 0,0 km/h (0 Bft)
23.01.2018 20:48 -0,3 °C 94 % 1027,4 hPa 0,0 mm 0,0 km/h (0 Bft) S-SW 211 ° 0 min 0,000 mm 0,0 UV-I 0 W/m² -1,1 °C -0,3 °C 0,0 km/h (0 Bft)
23.01.2018 20:49 -0,4 °C 94 % 1027,3 hPa 0,0 mm 0,0 km/h (0 Bft) S-SW 211 ° 0 min 0,000 mm 0,0 UV-I 0 W/m² -1,2 °C -0,4 °C 0,0 km/h (0 Bft)
23.01.2018 20:50 -0,4 °C 94 % 1027,3 hPa 0,0 mm 0,0 km/h (0 Bft) S-SW 211 ° 0 min 0,000 mm 0,0 UV-I 0 W/m² -1,2 °C -0,4 °C 0,0 km/h (0 Bft)
23.01.2018 20:51 -0,4 °C 93 % 1027,3 hPa 0,0 mm 0,0 km/h (0 Bft) S-SW 211 ° 0 min 0,000 mm 0,0 UV-I 0 W/m² -1,4 °C -0,4 °C 0,0 km/h (0 Bft)
23.01.2018 20:52 -0,4 °C 93 % 1027,3 hPa 0,0 mm 0,0 km/h (0 Bft) S-SW 211 ° 0 min 0,000 mm 0,0 UV-I 0 W/m² -1,4 °C -0,4 °C 0,0 km/h (0 Bft)
23.01.2018 20:53 -0,4 °C 93 % 1027,3 hPa 0,0 mm 0,0 km/h (0 Bft) S-SW 211 ° 0 min 0,000 mm 0,0 UV-I 0 W/m² -1,4 °C -0,4 °C 0,0 km/h (0 Bft)
23.01.2018 20:54 -0,4 °C 93 % 1027,3 hPa 0,0 mm 0,0 km/h (0 Bft) S-SW 211 ° 0 min 0,000 mm 0,0 UV-I 0 W/m² -1,4 °C -0,4 °C 0,0 km/h (0 Bft)
23.01.2018 20:55 -0,4 °C 93 % 1027,3 hPa 0,0 mm 0,0 km/h (0 Bft) S-SW 211 ° 0 min 0,000 mm 0,0 UV-I 0 W/m² -1,4 °C -0,4 °C 0,0 km/h (0 Bft)
23.01.2018 20:56 -0,5 °C 93 % 1027,3 hPa 0,0 mm 0,0 km/h (0 Bft) S-SW 211 ° 0 min 0,000 mm 0,0 UV-I 0 W/m² -1,5 °C -0,5 °C 0,0 km/h (0 Bft)
23.01.2018 20:57 -0,5 °C 93 % 1027,3 hPa 0,0 mm 0,0 km/h (0 Bft) S-SW 211 ° 0 min 0,000 mm 0,0 UV-I 0 W/m² -1,5 °C -0,5 °C 0,0 km/h (0 Bft)
23.01.2018 20:58 -0,5 °C 93 % 1027,3 hPa 0,0 mm 0,0 km/h (0 Bft) S-SW 211 ° 0 min 0,000 mm 0,0 UV-I 0 W/m² -1,5 °C -0,5 °C 0,0 km/h (0 Bft)
23.01.2018 20:59 -0,5 °C 93 % 1027,3 hPa 0,0 mm 0,0 km/h (0 Bft) S-SW 211 ° 0 min 0,000 mm 0,0 UV-I 0 W/m² -1,5 °C -0,5 °C 0,0 km/h (0 Bft)
23.01.2018 21:00 -0,6 °C 93 % 1027,3 hPa 0,0 mm 0,0 km/h (0 Bft) S-SW 211 ° 0 min 0,000 mm 0,0 UV-I 0 W/m² -1,6 °C -0,6 °C 0,0 km/h (0 Bft)
23.01.2018 21:01 -0,6 °C 93 % 1027,4 hPa 0,0 mm 0,0 km/h (0 Bft) S-SW 211 ° 0 min 0,000 mm 0,0 UV-I 0 W/m² -1,6 °C -0,6 °C 0,0 km/h (0 Bft)
23.01.2018 21:02 -0,6 °C 93 % 1027,4 hPa 0,0 mm 0,0 km/h (0 Bft) S-SW 211 ° 0 min 0,000 mm 0,0 UV-I 0 W/m² -1,6 °C -0,6 °C 0,0 km/h (0 Bft)
23.01.2018 21:03 -0,6 °C 93 % 1027,4 hPa 0,0 mm 0,0 km/h (0 Bft) S-SW 211 ° 0 min 0,000 mm 0,0 UV-I 0 W/m² -1,6 °C -0,6 °C 0,0 km/h (0 Bft)
23.01.2018 21:04 -0,7 °C 93 % 1027,4 hPa 0,0 mm 0,0 km/h (0 Bft) S-SW 211 ° 0 min 0,000 mm 0,0 UV-I 0 W/m² -1,7 °C -0,7 °C 0,0 km/h (0 Bft)
23.01.2018 21:05 -0,6 °C 93 % 1027,4 hPa 0,0 mm 0,0 km/h (0 Bft) S-SW 211 ° 0 min 0,000 mm 0,0 UV-I 0 W/m² -1,6 °C -0,6 °C 0,0 km/h (0 Bft)
23.01.2018 21:06 -0,7 °C 93 % 1027,4 hPa 0,0 mm 0,0 km/h (0 Bft) S-SW 211 ° 0 min 0,000 mm 0,0 UV-I 0 W/m² -1,7 °C -0,7 °C 0,0 km/h (0 Bft)
23.01.2018 21:07 -0,7 °C 93 % 1027,4 hPa 0,0 mm 0,0 km/h (0 Bft) S-SW 211 ° 0 min 0,000 mm 0,0 UV-I 0 W/m² -1,7 °C -0,7 °C 0,0 km/h (0 Bft)
23.01.2018 21:08 -0,7 °C 93 % 1027,4 hPa 0,0 mm 0,0 km/h (0 Bft) S-SW 211 ° 0 min 0,000 mm 0,0 UV-I 0 W/m² -1,7 °C -0,7 °C 0,0 km/h (0 Bft)
23.01.2018 21:09 -0,7 °C 93 % 1027,4 hPa 0,0 mm 0,0 km/h (0 Bft) S-SW 211 ° 0 min 0,000 mm 0,0 UV-I 0 W/m² -1,7 °C -0,7 °C 0,0 km/h (0 Bft)
23.01.2018 21:10 -0,7 °C 93 % 1027,4 hPa 0,0 mm 0,0 km/h (0 Bft) S-SW 211 ° 0 min 0,000 mm 0,0 UV-I 0 W/m² -1,7 °C -0,7 °C 0,0 km/h (0 Bft)
23.01.2018 21:11 -0,7 °C 93 % 1027,4 hPa 0,0 mm 0,0 km/h (0 Bft) S-SW 211 ° 0 min 0,000 mm 0,0 UV-I 0 W/m² -1,7 °C -0,7 °C 0,0 km/h (0 Bft)
23.01.2018 21:12 -0,7 °C 93 % 1027,5 hPa 0,0 mm 0,0 km/h (0 Bft) S-SW 211 ° 0 min 0,000 mm 0,0 UV-I 0 W/m² -1,7 °C -0,7 °C 0,0 km/h (0 Bft)
23.01.2018 21:13 -0,7 °C 93 % 1027,4 hPa 0,0 mm 0,0 km/h (0 Bft) S-SW 211 ° 0 min 0,000 mm 0,0 UV-I 0 W/m² -1,7 °C -0,7 °C 0,0 km/h (0 Bft)
23.01.2018 21:14 -0,7 °C 93 % 1027,4 hPa 0,0 mm 0,0 km/h (0 Bft) S-SW 211 ° 0 min 0,000 mm 0,0 UV-I 0 W/m² -1,7 °C -0,7 °C 0,0 km/h (0 Bft)
23.01.2018 21:15 -0,7 °C 93 % 1027,4 hPa 0,0 mm 0,0 km/h (0 Bft) S-SW 211 ° 0 min 0,000 mm 0,0 UV-I 0 W/m² -1,7 °C -0,7 °C 0,0 km/h (0 Bft)
23.01.2018 21:16 -0,8 °C 93 % 1027,4 hPa 0,0 mm 0,0 km/h (0 Bft) S-SW 211 ° 0 min 0,000 mm 0,0 UV-I 0 W/m² -1,8 °C -0,8 °C 0,0 km/h (0 Bft)
23.01.2018 21:17 -0,8 °C 93 % 1027,4 hPa 0,0 mm 0,0 km/h (0 Bft) S-SW 211 ° 0 min 0,000 mm 0,0 UV-I 0 W/m² -1,8 °C -0,8 °C 0,0 km/h (0 Bft)
23.01.2018 21:18 -0,8 °C 93 % 1027,4 hPa 0,0 mm 0,0 km/h (0 Bft) S-SW 211 ° 0 min 0,000 mm 0,0 UV-I 0 W/m² -1,8 °C -0,8 °C 0,0 km/h (0 Bft)
23.01.2018 21:19 -0,8 °C 93 % 1027,4 hPa 0,0 mm 0,0 km/h (0 Bft) S-SW 211 ° 0 min 0,000 mm 0,0 UV-I 0 W/m² -1,8 °C -0,8 °C 0,0 km/h (0 Bft)
23.01.2018 21:20 -0,8 °C 93 % 1027,4 hPa 0,0 mm 0,0 km/h (0 Bft) S-SW 211 ° 0 min 0,000 mm 0,0 UV-I 0 W/m² -1,8 °C -0,8 °C 0,0 km/h (0 Bft)
23.01.2018 21:21 -0,8 °C 93 % 1027,4 hPa 0,0 mm 0,0 km/h (0 Bft) S-SW 211 ° 0 min 0,000 mm 0,0 UV-I 0 W/m² -1,8 °C -0,8 °C 0,0 km/h (0 Bft)
23.01.2018 21:22 -0,8 °C 93 % 1027,4 hPa 0,0 mm 0,0 km/h (0 Bft) S-SW 211 ° 0 min 0,000 mm 0,0 UV-I 0 W/m² -1,8 °C -0,8 °C 0,0 km/h (0 Bft)
23.01.2018 21:23 -0,8 °C 93 % 1027,4 hPa 0,0 mm 0,0 km/h (0 Bft) S-SW 211 ° 0 min 0,000 mm 0,0 UV-I 0 W/m² -1,8 °C -0,8 °C 0,0 km/h (0 Bft)
23.01.2018 21:24 -0,8 °C 93 % 1027,3 hPa 0,0 mm 0,0 km/h (0 Bft) S-SW 211 ° 0 min 0,000 mm 0,0 UV-I 0 W/m² -1,8 °C -0,8 °C 0,0 km/h (0 Bft)
23.01.2018 21:25 -0,8 °C 93 % 1027,4 hPa 0,0 mm 0,0 km/h (0 Bft) S-SW 211 ° 0 min 0,000 mm 0,0 UV-I 0 W/m² -1,8 °C -0,8 °C 0,0 km/h (0 Bft)
23.01.2018 21:26 -0,9 °C 93 % 1027,4 hPa 0,0 mm 0,0 km/h (0 Bft) S-SW 211 ° 0 min 0,000 mm 0,0 UV-I 0 W/m² -1,9 °C -0,9 °C 0,0 km/h (0 Bft)
23.01.2018 21:27 -0,9 °C 93 % 1027,3 hPa 0,0 mm 0,0 km/h (0 Bft) S-SW 211 ° 0 min 0,000 mm 0,0 UV-I 0 W/m² -1,9 °C -0,9 °C 0,0 km/h (0 Bft)
23.01.2018 21:28 -0,9 °C 93 % 1027,3 hPa 0,0 mm 0,0 km/h (0 Bft) S-SW 211 ° 0 min 0,000 mm 0,0 UV-I 0 W/m² -1,9 °C -0,9 °C 0,0 km/h (0 Bft)
23.01.2018 21:29 -0,9 °C 93 % 1027,3 hPa 0,0 mm 0,0 km/h (0 Bft) S-SW 211 ° 0 min 0,000 mm 0,0 UV-I 0 W/m² -1,9 °C -0,9 °C 0,0 km/h (0 Bft)
23.01.2018 21:30 -0,9 °C 93 % 1027,3 hPa 0,0 mm 0,0 km/h (0 Bft) S-SW 211 ° 0 min 0,000 mm 0,0 UV-I 0 W/m² -1,9 °C -0,9 °C 0,0 km/h (0 Bft)
23.01.2018 21:31 -0,9 °C 93 % 1027,3 hPa 0,0 mm 0,0 km/h (0 Bft) S-SW 211 ° 0 min 0,000 mm 0,0 UV-I 0 W/m² -1,9 °C -0,9 °C 0,0 km/h (0 Bft)
23.01.2018 21:32 -0,9 °C 93 % 1027,3 hPa 0,0 mm 0,0 km/h (0 Bft) S-SW 211 ° 0 min 0,000 mm 0,0 UV-I 0 W/m² -1,9 °C -0,9 °C 0,0 km/h (0 Bft)
23.01.2018 21:33 -0,9 °C 93 % 1027,4 hPa 0,0 mm 0,0 km/h (0 Bft) S-SW 211 ° 0 min 0,000 mm 0,0 UV-I 0 W/m² -1,9 °C -0,9 °C 0,0 km/h (0 Bft)
23.01.2018 21:34 -0,9 °C 93 % 1027,4 hPa 0,0 mm 0,0 km/h (0 Bft) S-SW 211 ° 0 min 0,000 mm 0,0 UV-I 0 W/m² -1,9 °C -0,9 °C 0,0 km/h (0 Bft)
23.01.2018 21:35 -0,9 °C 93 % 1027,4 hPa 0,0 mm 0,0 km/h (0 Bft) S-SW 211 ° 0 min 0,000 mm 0,0 UV-I 0 W/m² -1,9 °C -0,9 °C 0,0 km/h (0 Bft)
23.01.2018 21:36 -0,9 °C 93 % 1027,4 hPa 0,0 mm 0,0 km/h (0 Bft) S-SW 211 ° 0 min 0,000 mm 0,0 UV-I 0 W/m² -1,9 °C -0,9 °C 0,0 km/h (0 Bft)
23.01.2018 21:37 -0,9 °C 93 % 1027,3 hPa 0,0 mm 0,0 km/h (0 Bft) S-SW 211 ° 0 min 0,000 mm 0,0 UV-I 0 W/m² -1,9 °C -0,9 °C 0,0 km/h (0 Bft)
23.01.2018 21:38 -0,9 °C 93 % 1027,4 hPa 0,0 mm 0,0 km/h (0 Bft) S-SW 211 ° 0 min 0,000 mm 0,0 UV-I 0 W/m² -1,9 °C -0,9 °C 0,0 km/h (0 Bft)
23.01.2018 21:39 -0,9 °C 93 % 1027,4 hPa 0,0 mm 0,0 km/h (0 Bft) S-SW 211 ° 0 min 0,000 mm 0,0 UV-I 0 W/m² -1,9 °C -0,9 °C 0,0 km/h (0 Bft)
23.01.2018 21:40 -0,9 °C 93 % 1027,4 hPa 0,0 mm 0,0 km/h (0 Bft) S-SW 211 ° 0 min 0,000 mm 0,0 UV-I 0 W/m² -1,9 °C -0,9 °C 0,0 km/h (0 Bft)
23.01.2018 21:41 -0,9 °C 93 % 1027,4 hPa 0,0 mm 0,0 km/h (0 Bft) S-SW 211 ° 0 min 0,000 mm 0,0 UV-I 0 W/m² -1,9 °C -0,9 °C 0,0 km/h (0 Bft)
23.01.2018 21:42 -0,9 °C 93 % 1027,4 hPa 0,0 mm 0,0 km/h (0 Bft) S-SW 211 ° 0 min 0,000 mm 0,0 UV-I 0 W/m² -1,9 °C -0,9 °C 0,0 km/h (0 Bft)
23.01.2018 21:43 -0,9 °C 93 % 1027,3 hPa 0,0 mm 0,0 km/h (0 Bft) S-SW 211 ° 0 min 0,000 mm 0,0 UV-I 0 W/m² -1,9 °C -0,9 °C 0,0 km/h (0 Bft)
23.01.2018 21:44 -0,9 °C 93 % 1027,3 hPa 0,0 mm 0,0 km/h (0 Bft) S-SW 211 ° 0 min 0,000 mm 0,0 UV-I 0 W/m² -1,9 °C -0,9 °C 0,0 km/h (0 Bft)
23.01.2018 21:45 -0,9 °C 93 % 1027,3 hPa 0,0 mm 0,0 km/h (0 Bft) S-SW 211 ° 0 min 0,000 mm 0,0 UV-I 0 W/m² -1,9 °C -0,9 °C 0,0 km/h (0 Bft)
23.01.2018 21:46 -0,9 °C 93 % 1027,4 hPa 0,0 mm 0,0 km/h (0 Bft) S-SW 211 ° 0 min 0,000 mm 0,0 UV-I 0 W/m² -1,9 °C -0,9 °C 0,0 km/h (0 Bft)
23.01.2018 21:47 -0,9 °C 93 % 1027,4 hPa 0,0 mm 0,0 km/h (0 Bft) S-SW 211 ° 0 min 0,000 mm 0,0 UV-I 0 W/m² -1,9 °C -0,9 °C 0,0 km/h (0 Bft)
23.01.2018 21:48 -0,9 °C 93 % 1027,3 hPa 0,0 mm 0,0 km/h (0 Bft) S-SW 211 ° 0 min 0,000 mm 0,0 UV-I 0 W/m² -1,9 °C -0,9 °C 0,0 km/h (0 Bft)
23.01.2018 21:49 -0,9 °C 93 % 1027,3 hPa 0,0 mm 0,0 km/h (0 Bft) S-SW 211 ° 0 min 0,000 mm 0,0 UV-I 0 W/m² -1,9 °C -0,9 °C 0,0 km/h (0 Bft)
23.01.2018 21:50 -1,0 °C 93 % 1027,3 hPa 0,0 mm 0,0 km/h (0 Bft) S-SW 211 ° 0 min 0,000 mm 0,0 UV-I 0 W/m² -2,0 °C -1,0 °C 0,0 km/h (0 Bft)
23.01.2018 21:51 -0,9 °C 93 % 1027,3 hPa 0,0 mm 0,0 km/h (0 Bft) S-SW 211 ° 0 min 0,000 mm 0,0 UV-I 0 W/m² -1,9 °C -0,9 °C 0,0 km/h (0 Bft)
23.01.2018 21:52 -1,0 °C 93 % 1027,3 hPa 0,0 mm 0,0 km/h (0 Bft) S-SW 211 ° 0 min 0,000 mm 0,0 UV-I 0 W/m² -2,0 °C -1,0 °C 0,0 km/h (0 Bft)
23.01.2018 21:53 -1,0 °C 93 % 1027,3 hPa 0,0 mm 0,0 km/h (0 Bft) S-SW 211 ° 0 min 0,000 mm 0,0 UV-I 0 W/m² -2,0 °C -1,0 °C 0,0 km/h (0 Bft)
23.01.2018 21:54 -1,0 °C 93 % 1027,3 hPa 0,0 mm 0,0 km/h (0 Bft) S-SW 211 ° 0 min 0,000 mm 0,0 UV-I 0 W/m² -2,0 °C -1,0 °C 0,0 km/h (0 Bft)
23.01.2018 21:55 -1,1 °C 93 % 1027,3 hPa 0,0 mm 0,0 km/h (0 Bft) S-SW 211 ° 0 min 0,000 mm 0,0 UV-I 0 W/m² -2,1 °C -1,1 °C 0,0 km/h (0 Bft)
23.01.2018 21:56 -1,1 °C 93 % 1027,4 hPa 0,0 mm 0,0 km/h (0 Bft) S-SW 211 ° 0 min 0,000 mm 0,0 UV-I 0 W/m² -2,1 °C -1,1 °C 0,0 km/h (0 Bft)
23.01.2018 21:57 -1,1 °C 93 % 1027,4 hPa 0,0 mm 0,0 km/h (0 Bft) S-SW 211 ° 0 min 0,000 mm 0,0 UV-I 0 W/m² -2,1 °C -1,1 °C 0,0 km/h (0 Bft)
23.01.2018 21:58 -1,1 °C 93 % 1027,4 hPa 0,0 mm 0,0 km/h (0 Bft) S-SW 211 ° 0 min 0,000 mm 0,0 UV-I 0 W/m² -2,1 °C -1,1 °C 0,0 km/h (0 Bft)
23.01.2018 21:59 -1,1 °C 93 % 1027,5 hPa 0,0 mm 0,0 km/h (0 Bft) S-SW 211 ° 0 min 0,000 mm 0,0 UV-I 0 W/m² -2,1 °C -1,1 °C 0,0 km/h (0 Bft)
23.01.2018 22:00 -1,1 °C 93 % 1027,5 hPa 0,0 mm 0,0 km/h (0 Bft) S-SW 211 ° 0 min 0,000 mm 0,0 UV-I 0 W/m² -2,1 °C -1,1 °C 0,0 km/h (0 Bft)
23.01.2018 22:01 -1,1 °C 93 % 1027,5 hPa 0,0 mm 0,0 km/h (0 Bft) S-SW 211 ° 0 min 0,000 mm 0,0 UV-I 0 W/m² -2,1 °C -1,1 °C 0,0 km/h (0 Bft)
23.01.2018 22:02 -1,1 °C 93 % 1027,6 hPa 0,0 mm 0,0 km/h (0 Bft) S-SW 211 ° 0 min 0,000 mm 0,0 UV-I 0 W/m² -2,1 °C -1,1 °C 0,0 km/h (0 Bft)
23.01.2018 22:03 -1,1 °C 93 % 1027,6 hPa 0,0 mm 0,0 km/h (0 Bft) S-SW 211 ° 0 min 0,000 mm 0,0 UV-I 0 W/m² -2,1 °C -1,1 °C 0,0 km/h (0 Bft)
23.01.2018 22:04 -1,2 °C 93 % 1027,6 hPa 0,0 mm 0,0 km/h (0 Bft) S-SW 211 ° 0 min 0,000 mm 0,0 UV-I 0 W/m² -2,2 °C -1,2 °C 0,0 km/h (0 Bft)
23.01.2018 22:05 -1,2 °C 93 % 1027,6 hPa 0,0 mm 0,0 km/h (0 Bft) S-SW 211 ° 0 min 0,000 mm 0,0 UV-I 0 W/m² -2,2 °C -1,2 °C 0,0 km/h (0 Bft)
23.01.2018 22:06 -1,2 °C 93 % 1027,5 hPa 0,0 mm 0,8 km/h (0 Bft) S-SW 211 ° 0 min 0,000 mm 0,0 UV-I 0 W/m² -2,2 °C -1,2 °C 3,2 km/h (1 Bft)
23.01.2018 22:07 -1,2 °C 93 % 1027,6 hPa 0,0 mm 2,2 km/h (1 Bft) S-SW 211 ° 0 min 0,000 mm 0,0 UV-I 0 W/m² -2,2 °C -1,2 °C 3,2 km/h (1 Bft)
23.01.2018 22:08 -1,2 °C 93 % 1027,6 hPa 0,0 mm 3,9 km/h (1 Bft) S-SW 205 ° 0 min 0,000 mm 0,0 UV-I 0 W/m² -2,2 °C -1,2 °C 6,4 km/h (2 Bft)
23.01.2018 22:09 -1,2 °C 93 % 1027,6 hPa 0,0 mm 2,6 km/h (1 Bft) S-SW 205 ° 0 min 0,000 mm 0,0 UV-I 0 W/m² -2,2 °C -1,2 °C 3,2 km/h (1 Bft)
23.01.2018 22:10 -1,2 °C 93 % 1027,6 hPa 0,0 mm 1,7 km/h (1 Bft) S-SW 205 ° 0 min 0,000 mm 0,0 UV-I 0 W/m² -2,2 °C -1,2 °C 3,2 km/h (1 Bft)
23.01.2018 22:11 -1,1 °C 93 % 1027,7 hPa 0,0 mm 2,7 km/h (1 Bft) S-SW 205 ° 0 min 0,000 mm 0,0 UV-I 0 W/m² -2,1 °C -1,1 °C 4,8 km/h (1 Bft)
23.01.2018 22:12 -1,0 °C 94 % 1027,6 hPa 0,0 mm 5,0 km/h (1 Bft) S-SW 199 ° 0 min 0,000 mm 0,0 UV-I 0 W/m² -1,8 °C -2,7 °C 8,0 km/h (2 Bft)
23.01.2018 22:13 -0,9 °C 94 % 1027,6 hPa 0,0 mm 7,1 km/h (2 Bft) SW 214 ° 0 min 0,000 mm 0,0 UV-I 0 W/m² -1,7 °C -3,5 °C 9,7 km/h (2 Bft)
23.01.2018 22:14 -0,9 °C 94 % 1027,6 hPa 0,0 mm 6,2 km/h (2 Bft) SW 217 ° 0 min 0,000 mm 0,0 UV-I 0 W/m² -1,7 °C -3,1 °C 9,7 km/h (2 Bft)
23.01.2018 22:15 -0,9 °C 94 % 1027,6 hPa 0,0 mm 5,5 km/h (1 Bft) S-SW 201 ° 0 min 0,000 mm 0,0 UV-I 0 W/m² -1,7 °C -2,8 °C 8,0 km/h (2 Bft)
23.01.2018 22:16 -0,9 °C 94 % 1027,7 hPa 0,0 mm 5,3 km/h (1 Bft) S-SW 209 ° 0 min 0,000 mm 0,0 UV-I 0 W/m² -1,7 °C -2,8 °C 8,0 km/h (2 Bft)
23.01.2018 22:17 -0,8 °C 94 % 1027,6 hPa 0,0 mm 5,5 km/h (1 Bft) S-SW 200 ° 0 min 0,000 mm 0,0 UV-I 0 W/m² -1,6 °C -2,7 °C 6,4 km/h (2 Bft)
23.01.2018 22:18 -0,8 °C 94 % 1027,6 hPa 0,0 mm 3,5 km/h (1 Bft) S 191 ° 0 min 0,000 mm 0,0 UV-I 0 W/m² -1,6 °C -0,8 °C 6,4 km/h (2 Bft)
23.01.2018 22:19 -0,8 °C 94 % 1027,6 hPa 0,0 mm 2,3 km/h (1 Bft) S 191 ° 0 min 0,000 mm 0,0 UV-I 0 W/m² -1,6 °C -0,8 °C 4,8 km/h (1 Bft)
23.01.2018 22:20 -0,8 °C 94 % 1027,6 hPa 0,0 mm 0,0 km/h (0 Bft) S 191 ° 0 min 0,000 mm 0,0 UV-I 0 W/m² -1,6 °C -0,8 °C 0,0 km/h (0 Bft)
23.01.2018 22:21 -0,8 °C 94 % 1027,6 hPa 0,0 mm 0,0 km/h (0 Bft) S 191 ° 0 min 0,000 mm 0,0 UV-I 0 W/m² -1,6 °C -0,8 °C 0,0 km/h (0 Bft)
23.01.2018 22:22 -0,8 °C 94 % 1027,5 hPa 0,0 mm 0,0 km/h (0 Bft) S 191 ° 0 min 0,000 mm 0,0 UV-I 0 W/m² -1,6 °C -0,8 °C 0,0 km/h (0 Bft)
23.01.2018 22:23 -0,8 °C 94 % 1027,6 hPa 0,0 mm 0,0 km/h (0 Bft) S 191 ° 0 min 0,000 mm 0,0 UV-I 0 W/m² -1,6 °C -0,8 °C 0,0 km/h (0 Bft)
23.01.2018 22:24 -0,8 °C 94 % 1027,6 hPa 0,0 mm 0,0 km/h (0 Bft) S 191 ° 0 min 0,000 mm 0,0 UV-I 0 W/m² -1,6 °C -0,8 °C 0,0 km/h (0 Bft)
23.01.2018 22:25 -0,8 °C 94 % 1027,7 hPa 0,0 mm 0,0 km/h (0 Bft) S 191 ° 0 min 0,000 mm 0,0 UV-I 0 W/m² -1,6 °C -0,8 °C 0,0 km/h (0 Bft)
23.01.2018 22:26 -0,8 °C 94 % 1027,7 hPa 0,0 mm 0,0 km/h (0 Bft) S 191 ° 0 min 0,000 mm 0,0 UV-I 0 W/m² -1,6 °C -0,8 °C 0,0 km/h (0 Bft)
23.01.2018 22:27 -0,8 °C 94 % 1027,7 hPa 0,0 mm 0,0 km/h (0 Bft) S 191 ° 0 min 0,000 mm 0,0 UV-I 0 W/m² -1,6 °C -0,8 °C 0,0 km/h (0 Bft)
23.01.2018 22:28 -0,8 °C 94 % 1027,7 hPa 0,0 mm 0,0 km/h (0 Bft) S 191 ° 0 min 0,000 mm 0,0 UV-I 0 W/m² -1,6 °C -0,8 °C 0,0 km/h (0 Bft)
23.01.2018 22:29 -0,8 °C 94 % 1027,7 hPa 0,0 mm 0,0 km/h (0 Bft) S 191 ° 0 min 0,000 mm 0,0 UV-I 0 W/m² -1,6 °C -0,8 °C 0,0 km/h (0 Bft)
23.01.2018 22:30 -0,8 °C 94 % 1027,7 hPa 0,0 mm 0,0 km/h (0 Bft) S 191 ° 0 min 0,000 mm 0,0 UV-I 0 W/m² -1,6 °C -0,8 °C 0,0 km/h (0 Bft)
23.01.2018 22:31 -0,8 °C 94 % 1027,7 hPa 0,0 mm 0,0 km/h (0 Bft) S 191 ° 0 min 0,000 mm 0,0 UV-I 0 W/m² -1,6 °C -0,8 °C 0,0 km/h (0 Bft)
23.01.2018 22:32 -0,7 °C 94 % 1027,7 hPa 0,0 mm 0,0 km/h (0 Bft) S 191 ° 0 min 0,000 mm 0,0 UV-I 0 W/m² -1,5 °C -0,7 °C 0,0 km/h (0 Bft)
23.01.2018 22:33 -0,7 °C 94 % 1027,7 hPa 0,0 mm 0,0 km/h (0 Bft) S 191 ° 0 min 0,000 mm 0,0 UV-I 0 W/m² -1,5 °C -0,7 °C 0,0 km/h (0 Bft)
23.01.2018 22:34 -0,7 °C 94 % 1027,7 hPa 0,0 mm 0,0 km/h (0 Bft) S 191 ° 0 min 0,000 mm 0,0 UV-I 0 W/m² -1,5 °C -0,7 °C 0,0 km/h (0 Bft)
23.01.2018 22:35 -0,7 °C 94 % 1027,7 hPa 0,0 mm 0,0 km/h (0 Bft) S 191 ° 0 min 0,000 mm 0,0 UV-I 0 W/m² -1,5 °C -0,7 °C 0,0 km/h (0 Bft)
23.01.2018 22:36 -0,7 °C 94 % 1027,7 hPa 0,0 mm 0,0 km/h (0 Bft) S 191 ° 0 min 0,000 mm 0,0 UV-I 0 W/m² -1,5 °C -0,7 °C 0,0 km/h (0 Bft)
23.01.2018 22:37 -0,7 °C 94 % 1027,6 hPa 0,0 mm 0,0 km/h (0 Bft) S 191 ° 0 min 0,000 mm 0,0 UV-I 0 W/m² -1,5 °C -0,7 °C 0,0 km/h (0 Bft)
23.01.2018 22:38 -0,7 °C 94 % 1027,7 hPa 0,0 mm 0,0 km/h (0 Bft) S 191 ° 0 min 0,000 mm 0,0 UV-I 0 W/m² -1,5 °C -0,7 °C 0,0 km/h (0 Bft)
23.01.2018 22:39 -0,7 °C 94 % 1027,6 hPa 0,0 mm 0,0 km/h (0 Bft) S 191 ° 0 min 0,000 mm 0,0 UV-I 0 W/m² -1,5 °C -0,7 °C 0,0 km/h (0 Bft)
23.01.2018 22:40 -0,8 °C 94 % 1027,6 hPa 0,0 mm 0,0 km/h (0 Bft) S 191 ° 0 min 0,000 mm 0,0 UV-I 0 W/m² -1,6 °C -0,8 °C 0,0 km/h (0 Bft)
23.01.2018 22:41 -0,8 °C 94 % 1027,6 hPa 0,0 mm 0,0 km/h (0 Bft) S 191 ° 0 min 0,000 mm 0,0 UV-I 0 W/m² -1,6 °C -0,8 °C 0,0 km/h (0 Bft)
23.01.2018 22:42 -0,8 °C 94 % 1027,6 hPa 0,0 mm 0,0 km/h (0 Bft) S 191 ° 0 min 0,000 mm 0,0 UV-I 0 W/m² -1,6 °C -0,8 °C 0,0 km/h (0 Bft)
23.01.2018 22:43 -0,8 °C 94 % 1027,6 hPa 0,0 mm 0,0 km/h (0 Bft) S 191 ° 0 min 0,000 mm 0,0 UV-I 0 W/m² -1,6 °C -0,8 °C 0,0 km/h (0 Bft)
23.01.2018 22:44 -0,8 °C 94 % 1027,5 hPa 0,0 mm 0,0 km/h (0 Bft) S 191 ° 0 min 0,000 mm 0,0 UV-I 0 W/m² -1,6 °C -0,8 °C 0,0 km/h (0 Bft)
23.01.2018 22:45 -0,8 °C 94 % 1027,5 hPa 0,0 mm 0,0 km/h (0 Bft) S 191 ° 0 min 0,000 mm 0,0 UV-I 0 W/m² -1,6 °C -0,8 °C 0,0 km/h (0 Bft)
23.01.2018 22:46 -0,8 °C 94 % 1027,5 hPa 0,0 mm 0,0 km/h (0 Bft) S 191 ° 0 min 0,000 mm 0,0 UV-I 0 W/m² -1,6 °C -0,8 °C 0,0 km/h (0 Bft)
23.01.2018 22:47 -0,8 °C 94 % 1027,6 hPa 0,0 mm 0,0 km/h (0 Bft) S 191 ° 0 min 0,000 mm 0,0 UV-I 0 W/m² -1,6 °C -0,8 °C 0,0 km/h (0 Bft)
23.01.2018 22:48 -0,9 °C 94 % 1027,5 hPa 0,0 mm 0,0 km/h (0 Bft) S 191 ° 0 min 0,000 mm 0,0 UV-I 0 W/m² -1,7 °C -0,9 °C 0,0 km/h (0 Bft)
23.01.2018 22:49 -0,9 °C 94 % 1027,4 hPa 0,0 mm 0,0 km/h (0 Bft) S 191 ° 0 min 0,000 mm 0,0 UV-I 0 W/m² -1,7 °C -0,9 °C 0,0 km/h (0 Bft)
23.01.2018 22:50 -0,9 °C 94 % 1027,4 hPa 0,0 mm 0,0 km/h (0 Bft) S 191 ° 0 min 0,000 mm 0,0 UV-I 0 W/m² -1,7 °C -0,9 °C 0,0 km/h (0 Bft)
23.01.2018 22:51 -0,9 °C 94 % 1027,4 hPa 0,0 mm 0,0 km/h (0 Bft) S 191 ° 0 min 0,000 mm 0,0 UV-I 0 W/m² -1,7 °C -0,9 °C 0,0 km/h (0 Bft)
23.01.2018 22:52 -0,9 °C 94 % 1027,4 hPa 0,0 mm 0,0 km/h (0 Bft) S 191 ° 0 min 0,000 mm 0,0 UV-I 0 W/m² -1,7 °C -0,9 °C 0,0 km/h (0 Bft)
23.01.2018 22:53 -0,9 °C 94 % 1027,4 hPa 0,0 mm 0,0 km/h (0 Bft) S 191 ° 0 min 0,000 mm 0,0 UV-I 0 W/m² -1,7 °C -0,9 °C 0,0 km/h (0 Bft)
23.01.2018 22:54 -0,9 °C 94 % 1027,4 hPa 0,0 mm 0,0 km/h (0 Bft) S 191 ° 0 min 0,000 mm 0,0 UV-I 0 W/m² -1,7 °C -0,9 °C 0,0 km/h (0 Bft)
23.01.2018 22:55 -0,9 °C 94 % 1027,4 hPa 0,0 mm 0,0 km/h (0 Bft) S 191 ° 0 min 0,000 mm 0,0 UV-I 0 W/m² -1,7 °C -0,9 °C 0,0 km/h (0 Bft)
23.01.2018 22:56 -1,0 °C 94 % 1027,4 hPa 0,0 mm 0,0 km/h (0 Bft) S 191 ° 0 min 0,000 mm 0,0 UV-I 0 W/m² -1,8 °C -1,0 °C 0,0 km/h (0 Bft)
23.01.2018 22:57 -1,1 °C 94 % 1027,4 hPa 0,0 mm 0,0 km/h (0 Bft) S 191 ° 0 min 0,000 mm 0,0 UV-I 0 W/m² -1,9 °C -1,1 °C 0,0 km/h (0 Bft)
23.01.2018 22:58 -1,1 °C 94 % 1027,3 hPa 0,0 mm 0,0 km/h (0 Bft) S 191 ° 0 min 0,000 mm 0,0 UV-I 0 W/m² -1,9 °C -1,1 °C 0,0 km/h (0 Bft)
23.01.2018 22:59 -1,1 °C 94 % 1027,3 hPa 0,0 mm 0,0 km/h (0 Bft) S 191 ° 0 min 0,000 mm 0,0 UV-I 0 W/m² -1,9 °C -1,1 °C 0,0 km/h (0 Bft)
23.01.2018 23:00 -1,1 °C 94 % 1027,3 hPa 0,0 mm 0,0 km/h (0 Bft) S 191 ° 0 min 0,000 mm 0,0 UV-I 0 W/m² -1,9 °C -1,1 °C 0,0 km/h (0 Bft)
23.01.2018 23:01 -1,1 °C 93 % 1027,2 hPa 0,0 mm 0,0 km/h (0 Bft) S 191 ° 0 min 0,000 mm 0,0 UV-I 0 W/m² -2,1 °C -1,1 °C 0,0 km/h (0 Bft)
23.01.2018 23:02 -1,1 °C 93 % 1027,2 hPa 0,0 mm 0,1 km/h (0 Bft) W 279 ° 0 min 0,000 mm 0,0 UV-I 0 W/m² -2,1 °C -1,1 °C 1,6 km/h (1 Bft)
23.01.2018 23:03 -1,2 °C 93 % 1027,2 hPa 0,0 mm 2,8 km/h (1 Bft) W 279 ° 0 min 0,000 mm 0,0 UV-I 0 W/m² -2,2 °C -1,2 °C 4,8 km/h (1 Bft)
23.01.2018 23:04 -1,2 °C 93 % 1027,2 hPa 0,0 mm 0,1 km/h (0 Bft) W 279 ° 0 min 0,000 mm 0,0 UV-I 0 W/m² -2,2 °C -1,2 °C 1,6 km/h (1 Bft)
23.01.2018 23:05 -1,2 °C 93 % 1027,2 hPa 0,0 mm 0,0 km/h (0 Bft) W 279 ° 0 min 0,000 mm 0,0 UV-I 0 W/m² -2,2 °C -1,2 °C 0,0 km/h (0 Bft)
23.01.2018 23:06 -1,2 °C 94 % 1027,2 hPa 0,0 mm 0,0 km/h (0 Bft) W 279 ° 0 min 0,000 mm 0,0 UV-I 0 W/m² -2,0 °C -1,2 °C 0,0 km/h (0 Bft)
23.01.2018 23:07 -1,3 °C 93 % 1027,1 hPa 0,0 mm 1,8 km/h (1 Bft) W 279 ° 0 min 0,000 mm 0,0 UV-I 0 W/m² -2,3 °C -1,3 °C 3,2 km/h (1 Bft)
23.01.2018 23:08 -1,3 °C 94 % 1027,1 hPa 0,0 mm 1,3 km/h (1 Bft) W 279 ° 0 min 0,000 mm 0,0 UV-I 0 W/m² -2,1 °C -1,3 °C 3,2 km/h (1 Bft)
23.01.2018 23:09 -1,3 °C 94 % 1027,1 hPa 0,0 mm 0,0 km/h (0 Bft) W 279 ° 0 min 0,000 mm 0,0 UV-I 0 W/m² -2,1 °C -1,3 °C 0,0 km/h (0 Bft)
23.01.2018 23:10 -1,3 °C 94 % 1027,2 hPa 0,0 mm 0,0 km/h (0 Bft) W 279 ° 0 min 0,000 mm 0,0 UV-I 0 W/m² -2,1 °C -1,3 °C 0,0 km/h (0 Bft)
23.01.2018 23:11 -1,3 °C 94 % 1027,1 hPa 0,0 mm 0,0 km/h (0 Bft) W 279 ° 0 min 0,000 mm 0,0 UV-I 0 W/m² -2,1 °C -1,3 °C 0,0 km/h (0 Bft)
23.01.2018 23:12 -1,3 °C 94 % 1027,0 hPa 0,0 mm 0,5 km/h (0 Bft) W 279 ° 0 min 0,000 mm 0,0 UV-I 0 W/m² -2,1 °C -1,3 °C 1,6 km/h (1 Bft)
23.01.2018 23:13 -1,3 °C 94 % 1027,0 hPa 0,0 mm 0,0 km/h (0 Bft) W 279 ° 0 min 0,000 mm 0,0 UV-I 0 W/m² -2,1 °C -1,3 °C 0,0 km/h (0 Bft)
23.01.2018 23:14 -1,4 °C 94 % 1027,0 hPa 0,0 mm 0,0 km/h (0 Bft) W 279 ° 0 min 0,000 mm 0,0 UV-I 0 W/m² -2,2 °C -1,4 °C 0,0 km/h (0 Bft)
23.01.2018 23:15 -1,4 °C 94 % 1027,1 hPa 0,0 mm 0,0 km/h (0 Bft) W 279 ° 0 min 0,000 mm 0,0 UV-I 0 W/m² -2,2 °C -1,4 °C 0,0 km/h (0 Bft)
23.01.2018 23:16 -1,4 °C 94 % 1027,0 hPa 0,0 mm 0,0 km/h (0 Bft) W 279 ° 0 min 0,000 mm 0,0 UV-I 0 W/m² -2,2 °C -1,4 °C 0,0 km/h (0 Bft)
23.01.2018 23:17 -1,4 °C 93 % 1027,1 hPa 0,0 mm 0,0 km/h (0 Bft) W 279 ° 0 min 0,000 mm 0,0 UV-I 0 W/m² -2,4 °C -1,4 °C 0,0 km/h (0 Bft)
23.01.2018 23:18 -1,4 °C 93 % 1027,1 hPa 0,0 mm 0,0 km/h (0 Bft) W 279 ° 0 min 0,000 mm 0,0 UV-I 0 W/m² -2,4 °C -1,4 °C 0,0 km/h (0 Bft)
23.01.2018 23:19 -1,4 °C 93 % 1027,1 hPa 0,0 mm 0,0 km/h (0 Bft) W 279 ° 0 min 0,000 mm 0,0 UV-I 0 W/m² -2,4 °C -1,4 °C 0,0 km/h (0 Bft)
23.01.2018 23:20 -1,5 °C 93 % 1027,1 hPa 0,0 mm 0,0 km/h (0 Bft) W 279 ° 0 min 0,000 mm 0,0 UV-I 0 W/m² -2,5 °C -1,5 °C 0,0 km/h (0 Bft)
23.01.2018 23:21 -1,5 °C 93 % 1027,1 hPa 0,0 mm 0,0 km/h (0 Bft) W 279 ° 0 min 0,000 mm 0,0 UV-I 0 W/m² -2,5 °C -1,5 °C 0,0 km/h (0 Bft)
23.01.2018 23:22 -1,5 °C 93 % 1027,1 hPa 0,0 mm 0,9 km/h (0 Bft) W 279 ° 0 min 0,000 mm 0,0 UV-I 0 W/m² -2,5 °C -1,5 °C 1,6 km/h (1 Bft)
23.01.2018 23:23 -1,6 °C 93 % 1027,2 hPa 0,0 mm 0,6 km/h (0 Bft) W 279 ° 0 min 0,000 mm 0,0 UV-I 0 W/m² -2,6 °C -1,6 °C 1,6 km/h (1 Bft)
23.01.2018 23:24 -1,6 °C 93 % 1027,2 hPa 0,0 mm 0,0 km/h (0 Bft) W 279 ° 0 min 0,000 mm 0,0 UV-I 0 W/m² -2,6 °C -1,6 °C 0,0 km/h (0 Bft)
23.01.2018 23:25 -1,6 °C 93 % 1027,2 hPa 0,0 mm 0,0 km/h (0 Bft) W 279 ° 0 min 0,000 mm 0,0 UV-I 0 W/m² -2,6 °C -1,6 °C 0,0 km/h (0 Bft)
23.01.2018 23:26 -1,6 °C 93 % 1027,2 hPa 0,0 mm 0,0 km/h (0 Bft) W 279 ° 0 min 0,000 mm 0,0 UV-I 0 W/m² -2,6 °C -1,6 °C 0,0 km/h (0 Bft)
23.01.2018 23:27 -1,7 °C 93 % 1027,2 hPa 0,0 mm 0,0 km/h (0 Bft) W 279 ° 0 min 0,000 mm 0,0 UV-I 0 W/m² -2,7 °C -1,7 °C 0,0 km/h (0 Bft)
23.01.2018 23:28 -1,6 °C 93 % 1027,3 hPa 0,0 mm 0,0 km/h (0 Bft) W 279 ° 0 min 0,000 mm 0,0 UV-I 0 W/m² -2,6 °C -1,6 °C 0,0 km/h (0 Bft)
23.01.2018 23:29 -1,7 °C 93 % 1027,3 hPa 0,0 mm 0,0 km/h (0 Bft) W 279 ° 0 min 0,000 mm 0,0 UV-I 0 W/m² -2,7 °C -1,7 °C 0,0 km/h (0 Bft)
23.01.2018 23:30 -1,7 °C 93 % 1027,3 hPa 0,0 mm 0,0 km/h (0 Bft) W 279 ° 0 min 0,000 mm 0,0 UV-I 0 W/m² -2,7 °C -1,7 °C 0,0 km/h (0 Bft)
23.01.2018 23:31 -1,7 °C 93 % 1027,3 hPa 0,0 mm 0,0 km/h (0 Bft) W 279 ° 0 min 0,000 mm 0,0 UV-I 0 W/m² -2,7 °C -1,7 °C 0,0 km/h (0 Bft)
23.01.2018 23:32 -1,7 °C 93 % 1027,3 hPa 0,0 mm 0,0 km/h (0 Bft) W 279 ° 0 min 0,000 mm 0,0 UV-I 0 W/m² -2,7 °C -1,7 °C 0,0 km/h (0 Bft)
23.01.2018 23:33 -1,7 °C 93 % 1027,4 hPa 0,0 mm 0,0 km/h (0 Bft) W 279 ° 0 min 0,000 mm 0,0 UV-I 0 W/m² -2,7 °C -1,7 °C 0,0 km/h (0 Bft)
23.01.2018 23:34 -1,7 °C 93 % 1027,4 hPa 0,0 mm 0,0 km/h (0 Bft) W 279 ° 0 min 0,000 mm 0,0 UV-I 0 W/m² -2,7 °C -1,7 °C 0,0 km/h (0 Bft)
23.01.2018 23:35 -1,7 °C 93 % 1027,5 hPa 0,0 mm 0,0 km/h (0 Bft) W 279 ° 0 min 0,000 mm 0,0 UV-I 0 W/m² -2,7 °C -1,7 °C 0,0 km/h (0 Bft)
23.01.2018 23:36 -1,8 °C 93 % 1027,5 hPa 0,0 mm 1,0 km/h (0 Bft) W 279 ° 0 min 0,000 mm 0,0 UV-I 0 W/m² -2,8 °C -1,8 °C 3,2 km/h (1 Bft)
23.01.2018 23:37 -1,8 °C 94 % 1027,5 hPa 0,0 mm 1,4 km/h (1 Bft) W 279 ° 0 min 0,000 mm 0,0 UV-I 0 W/m² -2,6 °C -1,8 °C 3,2 km/h (1 Bft)
23.01.2018 23:38 -1,7 °C 93 % 1027,6 hPa 0,0 mm 1,0 km/h (0 Bft) W 279 ° 0 min 0,000 mm 0,0 UV-I 0 W/m² -2,7 °C -1,7 °C 1,6 km/h (1 Bft)
23.01.2018 23:39 -1,7 °C 93 % 1027,5 hPa 0,0 mm 1,5 km/h (1 Bft) W 279 ° 0 min 0,000 mm 0,0 UV-I 0 W/m² -2,7 °C -1,7 °C 1,6 km/h (1 Bft)
23.01.2018 23:40 -1,8 °C 93 % 1027,5 hPa 0,0 mm 0,2 km/h (0 Bft) W 275 ° 0 min 0,000 mm 0,0 UV-I 0 W/m² -2,8 °C -1,8 °C 1,6 km/h (1 Bft)
23.01.2018 23:41 -1,7 °C 94 % 1027,5 hPa 0,0 mm 0,0 km/h (0 Bft) W 263 ° 0 min 0,000 mm 0,0 UV-I 0 W/m² -2,5 °C -1,7 °C 0,0 km/h (0 Bft)
23.01.2018 23:42 -1,7 °C 94 % 1027,5 hPa 0,0 mm 0,0 km/h (0 Bft) W 263 ° 0 min 0,000 mm 0,0 UV-I 0 W/m² -2,5 °C -1,7 °C 0,0 km/h (0 Bft)
23.01.2018 23:43 -1,7 °C 94 % 1027,5 hPa 0,0 mm 0,0 km/h (0 Bft) W 263 ° 0 min 0,000 mm 0,0 UV-I 0 W/m² -2,5 °C -1,7 °C 0,0 km/h (0 Bft)
23.01.2018 23:44 -1,7 °C 94 % 1027,5 hPa 0,0 mm 1,6 km/h (1 Bft) W-SW 238 ° 0 min 0,000 mm 0,0 UV-I 0 W/m² -2,5 °C -1,7 °C 3,2 km/h (1 Bft)
23.01.2018 23:45 -1,7 °C 94 % 1027,6 hPa 0,0 mm 2,2 km/h (1 Bft) W-SW 238 ° 0 min 0,000 mm 0,0 UV-I 0 W/m² -2,5 °C -1,7 °C 3,2 km/h (1 Bft)
23.01.2018 23:46 -1,7 °C 94 % 1027,5 hPa 0,0 mm 1,3 km/h (1 Bft) W-SW 238 ° 0 min 0,000 mm 0,0 UV-I 0 W/m² -2,5 °C -1,7 °C 3,2 km/h (1 Bft)
23.01.2018 23:47 -1,6 °C 94 % 1027,6 hPa 0,0 mm 0,0 km/h (0 Bft) W-SW 238 ° 0 min 0,000 mm 0,0 UV-I 0 W/m² -2,4 °C -1,6 °C 0,0 km/h (0 Bft)
23.01.2018 23:48 -1,6 °C 94 % 1027,6 hPa 0,0 mm 0,0 km/h (0 Bft) W-SW 238 ° 0 min 0,000 mm 0,0 UV-I 0 W/m² -2,4 °C -1,6 °C 0,0 km/h (0 Bft)
23.01.2018 23:49 -1,6 °C 94 % 1027,6 hPa 0,0 mm 2,4 km/h (1 Bft) W-SW 238 ° 0 min 0,000 mm 0,0 UV-I 0 W/m² -2,4 °C -1,6 °C 3,2 km/h (1 Bft)
23.01.2018 23:50 -1,6 °C 94 % 1027,6 hPa 0,0 mm 0,4 km/h (0 Bft) W-SW 238 ° 0 min 0,000 mm 0,0 UV-I 0 W/m² -2,4 °C -1,6 °C 1,6 km/h (1 Bft)
23.01.2018 23:51 -1,6 °C 94 % 1027,6 hPa 0,0 mm 0,0 km/h (0 Bft) W-SW 238 ° 0 min 0,000 mm 0,0 UV-I 0 W/m² -2,4 °C -1,6 °C 0,0 km/h (0 Bft)
23.01.2018 23:52 -1,6 °C 94 % 1027,6 hPa 0,0 mm 0,6 km/h (0 Bft) W-SW 238 ° 0 min 0,000 mm 0,0 UV-I 0 W/m² -2,4 °C -1,6 °C 1,6 km/h (1 Bft)
23.01.2018 23:53 -1,6 °C 94 % 1027,7 hPa 0,0 mm 0,0 km/h (0 Bft) W-SW 238 ° 0 min 0,000 mm 0,0 UV-I 0 W/m² -2,4 °C -1,6 °C 0,0 km/h (0 Bft)
23.01.2018 23:54 -1,6 °C 94 % 1027,7 hPa 0,0 mm 0,0 km/h (0 Bft) W-SW 238 ° 0 min 0,000 mm 0,0 UV-I 0 W/m² -2,4 °C -1,6 °C 0,0 km/h (0 Bft)
23.01.2018 23:55 -1,6 °C 94 % 1027,7 hPa 0,0 mm 0,0 km/h (0 Bft) W-SW 238 ° 0 min 0,000 mm 0,0 UV-I 0 W/m² -2,4 °C -1,6 °C 0,0 km/h (0 Bft)
23.01.2018 23:56 -1,7 °C 94 % 1027,7 hPa 0,0 mm 0,0 km/h (0 Bft) W-SW 238 ° 0 min 0,000 mm 0,0 UV-I 0 W/m² -2,5 °C -1,7 °C 0,0 km/h (0 Bft)
23.01.2018 23:57 -1,7 °C 94 % 1027,7 hPa 0,0 mm 0,0 km/h (0 Bft) W-SW 238 ° 0 min 0,000 mm 0,0 UV-I 0 W/m² -2,5 °C -1,7 °C 0,0 km/h (0 Bft)
23.01.2018 23:58 -1,7 °C 93 % 1027,8 hPa 0,0 mm 0,0 km/h (0 Bft) W-SW 238 ° 0 min 0,000 mm 0,0 UV-I 0 W/m² -2,7 °C -1,7 °C 0,0 km/h (0 Bft)
23.01.2018 23:59 -1,7 °C 94 % 1027,8 hPa 0,0 mm 0,0 km/h (0 Bft) W-SW 238 ° 0 min 0,000 mm 0,0 UV-I 0 W/m² -2,5 °C -1,7 °C 0,0 km/h (0 Bft)
_ Min-Zeit 23:40 13:05 00:00 - 23:59 - - - - - - 23:40 22:13 23:59
Minimum _ -1,8 °C 80 % 1018,6 hPa - 0,0 km/h (0 Bft) - - - - - - -2,8 °C -3,5 °C 0,0 km/h (0 Bft)
_ Max-Zeit 14:30 23:59 23:59 08:26 00:11 - - 15:04 15:01 12:04 14:08 00:00 14:36 00:07
Maximum _ 4,6 °C 94 % 1027,8 hPa 0,2 mm 19,2 km/h
W (3 Bft)
- - 1 min 0,102 mm 1,5 UV-I 359 W/m² 3,0 °C 4,5 °C 27,4 km/h
W-SW (4 Bft)
Durchschnitt _ 2,0 °C 90 % 1025,4 hPa #5,8 mm 4,2 km/h (1 Bft) W - #30 min. #0,457 mm 1,0 UV-I 41 W/m² 0,6 °C 1,1 °C 6,8 km/h (2 Bft)